[[{"header":{"parameterUnit":"m.s-1","parameterCategory":1,"la1":31.0,"la2":29.5877,"lo1":-88.7671,"lo2":-86.6584,"dy":0.0162,"dx":0.0185,"nx":115,"ny":88,"refTime":"2023-06-17T18:00:00:Z","depth":0,"parameterNumber":2,"parameterNumberName":"U-component_of_WINDS"},"data":[0.0,0.0,0.0,0.0,0.0,0.0,0.0,0.0,0.0,0.0,0.0,0.0,0.0,0.0,0.0,0.0,0.0,0.0,0.0,0.0,0.0,0.0,0.0,0.0,0.0,0.0,0.0,0.0,0.0,0.0,0.0,0.0,0.0,0.0,0.0,0.0,0.0,0.0,0.0,0.0,0.0,-1.6599,-1.6402,-1.6113,-1.5726,-1.5443,-1.5242,0.0,0.0,0.0,0.0,0.0,0.0,0.0,0.0,0.0,0.0,0.0,0.0,0.0,0.0,0.0,0.0,0.0,0.0,0.0,0.0,0.0,0.0,0.0,0.0,0.0,0.0,0.0,0.0,0.0,0.0,0.0,0.0,0.0,0.0,0.0,0.0,0.0,0.0,0.0,0.0,0.0,0.0,0.0,0.0,0.0,0.0,0.0,0.0,0.0,0.0,0.0,0.0,0.0,0.0,0.0,0.0,0.0,0.0,0.0,0.0,0.0,0.0,0.0,0.0,0.0,0.0,0.0,0.0,0.0,0.0,0.0,0.0,0.0,0.0,0.0,0.0,0.0,0.0,0.0,0.0,0.0,0.0,0.0,0.0,0.0,0.0,0.0,0.0,0.0,0.0,0.0,0.0,0.0,0.0,0.0,0.0,0.0,0.0,0.0,0.0,0.0,0.0,0.0,0.0,0.0,0.0,0.0,0.0,0.0,0.0,-1.6779,-1.6648,-1.6113,-1.5692,-1.5484,0.0,0.0,0.0,0.0,0.0,0.0,0.0,0.0,0.0,0.0,0.0,0.0,0.0,0.0,0.0,0.0,0.0,0.0,0.0,0.0,0.0,0.0,0.0,0.0,0.0,0.0,0.0,0.0,0.0,0.0,0.0,0.0,0.0,0.0,0.0,0.0,0.0,0.0,0.0,0.0,0.0,0.0,0.0,0.0,0.0,0.0,0.0,0.0,0.0,0.0,0.0,0.0,0.0,0.0,0.0,0.0,0.0,0.0,0.0,0.0,0.0,0.0,0.0,0.0,0.0,0.0,0.0,0.0,0.0,0.0,0.0,0.0,0.0,0.0,0.0,0.0,0.0,0.0,0.0,0.0,0.0,0.0,0.0,0.0,0.0,0.0,0.0,0.0,0.0,0.0,0.0,0.0,0.0,0.0,0.0,0.0,0.0,0.0,0.0,0.0,0.0,0.0,0.0,0.0,0.0,0.0,0.0,0.0,0.0,0.0,-1.7383,-1.673,-1.6533,-1.6278,-1.5955,0.0,0.0,0.0,0.0,0.0,0.0,0.0,0.0,0.0,0.0,0.0,0.0,0.0,0.0,0.0,0.0,0.0,0.0,0.0,0.0,0.0,0.0,0.0,0.0,0.0,0.0,0.0,0.0,0.0,0.0,0.0,0.0,0.0,0.0,0.0,0.0,0.0,0.0,0.0,0.0,0.0,0.0,0.0,0.0,0.0,0.0,0.0,0.0,0.0,0.0,0.0,0.0,0.0,0.0,0.0,0.0,0.0,0.0,0.0,0.0,0.0,0.0,0.0,0.0,0.0,0.0,0.0,0.0,0.0,0.0,0.0,0.0,0.0,0.0,0.0,0.0,0.0,0.0,0.0,0.0,0.0,0.0,0.0,0.0,0.0,0.0,0.0,0.0,0.0,0.0,0.0,0.0,0.0,0.0,0.0,0.0,0.0,0.0,0.0,0.0,0.0,0.0,0.0,0.0,0.0,0.0,0.0,0.0,0.0,0.0,-1.7789,-1.7302,-1.7017,-1.6738,-1.6368,-1.6376,0.0,0.0,0.0,0.0,0.0,0.0,0.0,0.0,0.0,0.0,0.0,0.0,0.0,0.0,0.0,0.0,0.0,0.0,0.0,0.0,0.0,0.0,0.0,0.0,0.0,0.0,0.0,0.0,0.0,0.0,0.0,0.0,0.0,0.0,0.0,0.0,0.0,0.0,0.0,0.0,0.0,0.0,0.0,0.0,0.0,0.0,0.0,0.0,0.0,0.0,0.0,0.0,0.0,0.0,0.0,0.0,0.0,0.0,0.0,0.0,0.0,0.0,0.0,0.0,0.0,0.0,0.0,0.0,0.0,0.0,0.0,0.0,0.0,0.0,0.0,0.0,0.0,0.0,0.0,0.0,0.0,0.0,0.0,0.0,0.0,0.0,0.0,0.0,0.0,0.0,0.0,0.0,0.0,0.0,0.0,0.0,0.0,0.0,0.0,0.0,0.0,0.0,0.0,0.0,0.0,0.0,0.0,0.0,0.0,-1.8112,-1.7991,-1.7505,-1.7098,-1.6853,-1.6853,0.0,0.0,0.0,0.0,0.0,0.0,0.0,0.0,0.0,0.0,0.0,0.0,0.0,0.0,0.0,0.0,0.0,0.0,0.0,0.0,0.0,0.0,0.0,0.0,0.0,0.0,0.0,0.0,0.0,0.0,0.0,0.0,0.0,0.0,0.0,0.0,0.0,0.0,0.0,0.0,0.0,0.0,0.0,0.0,0.0,0.0,0.0,0.0,0.0,0.0,0.0,0.0,0.0,0.0,0.0,0.0,0.0,0.0,0.0,0.0,0.0,0.0,0.0,0.0,0.0,0.0,0.0,0.0,0.0,0.0,0.0,0.0,0.0,0.0,0.0,0.0,0.0,0.0,0.0,0.0,0.0,0.0,0.0,0.0,0.0,0.0,0.0,0.0,0.0,0.0,0.0,0.0,0.0,0.0,0.0,0.0,0.0,0.0,0.0,0.0,0.0,0.0,0.0,0.0,0.0,0.0,0.0,0.0,0.0,-1.8634,-1.8362,-1.7991,-1.7749,-1.7546,-1.7497,0.0,0.0,0.0,0.0,0.0,0.0,0.0,0.0,0.0,0.0,0.0,0.0,0.0,0.0,0.0,0.0,0.0,0.0,0.0,0.0,0.0,0.0,0.0,0.0,0.0,0.0,0.0,0.0,0.0,0.0,0.0,0.0,0.0,0.0,0.0,0.0,0.0,0.0,0.0,0.0,0.0,0.0,0.0,0.0,0.0,0.0,0.0,0.0,0.0,0.0,0.0,0.0,0.0,0.0,0.0,0.0,0.0,0.0,0.0,0.0,0.0,0.0,0.0,0.0,0.0,0.0,0.0,0.0,0.0,0.0,0.0,0.0,0.0,0.0,0.0,0.0,0.0,0.0,0.0,0.0,0.0,0.0,0.0,0.0,0.0,0.0,0.0,0.0,0.0,0.0,0.0,0.0,0.0,0.0,0.0,0.0,0.0,0.0,0.0,0.0,0.0,0.0,0.0,0.0,0.0,0.0,0.0,0.0,0.0,-1.9073,-1.8825,-1.8523,-1.825,-1.8072,-1.8224,0.0,0.0,0.0,0.0,0.0,0.0,0.0,0.0,0.0,0.0,0.0,0.0,0.0,0.0,0.0,0.0,0.0,0.0,0.0,0.0,0.0,0.0,0.0,0.0,0.0,0.0,0.0,0.0,0.0,0.0,0.0,0.0,0.0,0.0,0.0,0.0,0.0,0.0,0.0,0.0,0.0,0.0,0.0,0.0,0.0,0.0,0.0,0.0,0.0,0.0,0.0,0.0,0.0,0.0,0.0,0.0,0.0,0.0,0.0,0.0,0.0,0.0,0.0,0.0,0.0,0.0,0.0,0.0,0.0,0.0,0.0,0.0,0.0,0.0,0.0,0.0,0.0,0.0,0.0,0.0,0.0,0.0,0.0,0.0,0.0,0.0,0.0,0.0,0.0,0.0,0.0,0.0,0.0,0.0,0.0,0.0,0.0,0.0,0.0,0.0,0.0,0.0,0.0,0.0,0.0,0.0,0.0,0.0,-1.9578,-1.942,-1.9381,-1.9042,-1.8812,-1.8674,-1.8962,0.0,0.0,0.0,0.0,0.0,0.0,0.0,0.0,0.0,0.0,0.0,0.0,0.0,0.0,0.0,0.0,0.0,0.0,0.0,0.0,0.0,0.0,0.0,0.0,0.0,0.0,0.0,0.0,0.0,0.0,0.0,0.0,0.0,0.0,0.0,0.0,0.0,0.0,0.0,0.0,0.0,0.0,0.0,0.0,0.0,0.0,0.0,0.0,0.0,0.0,0.0,0.0,0.0,0.0,0.0,0.0,0.0,0.0,0.0,0.0,0.0,0.0,0.0,0.0,0.0,0.0,0.0,0.0,0.0,0.0,0.0,0.0,0.0,0.0,0.0,0.0,0.0,0.0,0.0,0.0,0.0,0.0,0.0,0.0,0.0,0.0,0.0,0.0,0.0,0.0,0.0,0.0,0.0,0.0,0.0,0.0,0.0,0.0,0.0,0.0,0.0,0.0,0.0,0.0,0.0,0.0,0.0,-2.0186,-1.999,-1.9824,-1.9814,-1.9606,-1.9557,-1.9706,-1.9745,0.0,0.0,0.0,0.0,0.0,0.0,0.0,0.0,0.0,0.0,0.0,0.0,0.0,0.0,0.0,0.0,0.0,0.0,0.0,0.0,0.0,0.0,0.0,0.0,0.0,0.0,0.0,0.0,0.0,0.0,0.0,0.0,0.0,0.0,0.0,0.0,0.0,0.0,0.0,0.0,0.0,0.0,0.0,0.0,0.0,0.0,0.0,0.0,0.0,0.0,0.0,0.0,0.0,0.0,0.0,0.0,0.0,0.0,0.0,0.0,0.0,0.0,0.0,0.0,0.0,0.0,0.0,0.0,0.0,0.0,0.0,0.0,0.0,0.0,0.0,0.0,0.0,0.0,0.0,0.0,0.0,0.0,0.0,0.0,0.0,0.0,0.0,0.0,0.0,0.0,0.0,0.0,0.0,0.0,0.0,0.0,0.0,0.0,0.0,0.0,0.0,0.0,0.0,0.0,0.0,0.0,-2.042,-2.0586,-2.0489,-2.044,-2.045,-2.0372,-2.0323,-2.044,-2.0634,0.0,0.0,0.0,0.0,0.0,0.0,0.0,0.0,0.0,0.0,0.0,0.0,0.0,0.0,0.0,0.0,0.0,0.0,0.0,0.0,0.0,0.0,0.0,0.0,0.0,0.0,0.0,0.0,0.0,0.0,0.0,0.0,0.0,0.0,0.0,0.0,0.0,0.0,0.0,0.0,0.0,0.0,0.0,0.0,0.0,0.0,0.0,0.0,0.0,0.0,0.0,0.0,0.0,0.0,0.0,0.0,0.0,0.0,0.0,0.0,0.0,0.0,0.0,0.0,0.0,0.0,0.0,0.0,0.0,0.0,0.0,0.0,0.0,0.0,0.0,0.0,0.0,0.0,0.0,0.0,0.0,0.0,0.0,0.0,0.0,0.0,0.0,0.0,0.0,0.0,0.0,0.0,0.0,0.0,0.0,0.0,0.0,0.0,0.0,0.0,0.0,0.0,0.0,0.0,0.0,0.0,-2.078,-2.1022,-2.1031,-2.1098,-2.1175,-2.1175,-2.1213,-2.1328,0.0,0.0,0.0,0.0,0.0,0.0,0.0,0.0,0.0,0.0,0.0,0.0,0.0,0.0,0.0,0.0,0.0,0.0,0.0,0.0,0.0,0.0,0.0,0.0,0.0,0.0,0.0,0.0,0.0,0.0,0.0,0.0,0.0,0.0,0.0,0.0,0.0,0.0,0.0,0.0,0.0,0.0,0.0,0.0,0.0,0.0,0.0,0.0,0.0,0.0,0.0,0.0,0.0,0.0,0.0,0.0,0.0,0.0,0.0,0.0,0.0,0.0,0.0,0.0,0.0,0.0,0.0,0.0,0.0,0.0,0.0,0.0,0.0,0.0,0.0,0.0,0.0,0.0,0.0,0.0,0.0,0.0,0.0,0.0,0.0,0.0,0.0,0.0,0.0,0.0,0.0,0.0,0.0,0.0,0.0,0.0,0.0,0.0,0.0,0.0,0.0,0.0,0.0,0.0,0.0,0.0,0.0,-2.1089,-2.1397,-2.1425,-2.1617,-2.1987,-2.1987,-2.2176,-2.2515,0.0,0.0,0.0,0.0,0.0,0.0,0.0,0.0,0.0,0.0,0.0,0.0,0.0,0.0,0.0,0.0,0.0,0.0,0.0,0.0,0.0,0.0,0.0,0.0,0.0,0.0,0.0,0.0,0.0,0.0,0.0,0.0,0.0,0.0,0.0,0.0,0.0,0.0,0.0,0.0,0.0,0.0,0.0,0.0,0.0,0.0,0.0,0.0,0.0,0.0,0.0,0.0,0.0,0.0,0.0,0.0,0.0,0.0,0.0,0.0,0.0,0.0,0.0,0.0,0.0,0.0,0.0,0.0,0.0,0.0,0.0,0.0,0.0,0.0,0.0,0.0,0.0,0.0,0.0,0.0,0.0,0.0,0.0,0.0,0.0,0.0,0.0,0.0,0.0,0.0,0.0,0.0,0.0,0.0,0.0,0.0,0.0,0.0,0.0,0.0,0.0,0.0,0.0,0.0,0.0,0.0,-2.1195,-2.1627,-2.2035,-2.2289,-2.2515,-2.2815,-2.3176,-2.3522,-2.3841,0.0,0.0,0.0,0.0,0.0,0.0,0.0,0.0,0.0,0.0,0.0,0.0,0.0,0.0,0.0,0.0,0.0,0.0,0.0,0.0,0.0,0.0,0.0,0.0,0.0,0.0,0.0,0.0,0.0,0.0,0.0,0.0,0.0,0.0,0.0,0.0,0.0,0.0,0.0,0.0,0.0,0.0,0.0,0.0,0.0,0.0,0.0,0.0,0.0,0.0,0.0,0.0,0.0,0.0,0.0,0.0,0.0,0.0,0.0,0.0,0.0,0.0,0.0,0.0,0.0,0.0,0.0,0.0,0.0,0.0,0.0,0.0,0.0,0.0,0.0,0.0,0.0,0.0,0.0,0.0,0.0,0.0,0.0,0.0,0.0,0.0,0.0,0.0,0.0,0.0,0.0,0.0,0.0,0.0,0.0,0.0,0.0,0.0,0.0,0.0,0.0,0.0,0.0,0.0,0.0,-2.1302,-2.1749,-2.2289,-2.2815,-2.3176,-2.357,-2.4009,-2.4468,-2.4862,-2.5052,0.0,0.0,0.0,0.0,0.0,0.0,0.0,0.0,0.0,0.0,0.0,0.0,0.0,0.0,0.0,0.0,0.0,0.0,0.0,0.0,0.0,0.0,0.0,0.0,0.0,0.0,0.0,0.0,0.0,0.0,0.0,0.0,0.0,0.0,0.0,0.0,0.0,0.0,0.0,0.0,0.0,0.0,0.0,0.0,0.0,0.0,0.0,0.0,0.0,0.0,0.0,0.0,0.0,0.0,0.0,0.0,0.0,0.0,0.0,0.0,0.0,0.0,0.0,0.0,0.0,0.0,0.0,0.0,0.0,0.0,0.0,0.0,0.0,0.0,0.0,0.0,0.0,0.0,0.0,0.0,0.0,0.0,0.0,0.0,0.0,0.0,0.0,0.0,0.0,0.0,0.0,0.0,0.0,0.0,0.0,0.0,0.0,0.0,0.0,0.0,0.0,0.0,0.0,0.0,0.0,0.0,-2.2478,-2.3027,-2.3824,-2.4179,-2.4803,-2.5638,-2.5906,-2.601,-2.6045,0.0,0.0,0.0,0.0,0.0,0.0,0.0,0.0,0.0,0.0,0.0,0.0,0.0,0.0,0.0,0.0,0.0,0.0,0.0,0.0,0.0,0.0,0.0,0.0,0.0,0.0,0.0,0.0,0.0,0.0,0.0,0.0,0.0,0.0,0.0,0.0,0.0,0.0,0.0,0.0,0.0,0.0,0.0,0.0,0.0,0.0,0.0,0.0,0.0,0.0,0.0,0.0,0.0,0.0,0.0,0.0,0.0,0.0,0.0,0.0,0.0,0.0,0.0,0.0,0.0,0.0,0.0,0.0,0.0,0.0,0.0,0.0,0.0,0.0,0.0,0.0,0.0,0.0,0.0,0.0,0.0,0.0,0.0,0.0,0.0,0.0,0.0,0.0,0.0,0.0,0.0,0.0,0.0,0.0,0.0,0.0,0.0,0.0,0.0,0.0,0.0,0.0,0.0,0.0,0.0,0.0,-2.3585,-2.3998,-2.4778,-2.558,-2.633,-2.7048,-2.7162,-2.7217,-2.7284,0.0,0.0,0.0,0.0,0.0,0.0,0.0,0.0,0.0,0.0,0.0,0.0,0.0,0.0,0.0,0.0,0.0,0.0,0.0,0.0,0.0,0.0,0.0,0.0,0.0,0.0,0.0,0.0,0.0,0.0,0.0,0.0,0.0,0.0,0.0,0.0,0.0,0.0,0.0,0.0,0.0,0.0,0.0,0.0,0.0,0.0,0.0,0.0,0.0,0.0,0.0,0.0,0.0,0.0,0.0,0.0,0.0,0.0,0.0,0.0,0.0,0.0,0.0,0.0,0.0,0.0,0.0,0.0,0.0,0.0,0.0,0.0,0.0,0.0,0.0,0.0,0.0,0.0,0.0,0.0,0.0,0.0,0.0,0.0,0.0,0.0,0.0,0.0,0.0,0.0,0.0,0.0,0.0,0.0,0.0,0.0,0.0,0.0,0.0,0.0,0.0,0.0,0.0,0.0,0.0,0.0,-2.4696,-2.5181,-2.6205,-2.7111,-2.7855,-2.8417,-2.8449,-2.8481,0.0,0.0,0.0,0.0,0.0,0.0,0.0,0.0,0.0,0.0,0.0,0.0,0.0,0.0,0.0,0.0,0.0,0.0,0.0,0.0,0.0,0.0,0.0,0.0,0.0,0.0,0.0,0.0,0.0,0.0,0.0,0.0,0.0,0.0,0.0,0.0,0.0,0.0,0.0,0.0,0.0,0.0,0.0,0.0,0.0,0.0,0.0,0.0,0.0,0.0,0.0,0.0,0.0,0.0,0.0,0.0,0.0,0.0,0.0,0.0,0.0,0.0,0.0,0.0,0.0,0.0,0.0,0.0,0.0,0.0,0.0,0.0,0.0,0.0,0.0,0.0,0.0,0.0,0.0,0.0,0.0,0.0,0.0,0.0,0.0,0.0,0.0,0.0,0.0,0.0,0.0,0.0,0.0,0.0,0.0,0.0,0.0,0.0,0.0,0.0,0.0,0.0,0.0,0.0,0.0,0.0,0.0,-2.5802,-2.665,-2.8163,-2.8762,-2.9324,-2.9837,-2.9851,-2.9775,0.0,0.0,0.0,0.0,0.0,0.0,0.0,0.0,0.0,0.0,0.0,0.0,0.0,0.0,0.0,0.0,0.0,0.0,0.0,0.0,0.0,0.0,0.0,0.0,0.0,0.0,0.0,0.0,0.0,0.0,0.0,0.0,0.0,0.0,0.0,0.0,0.0,0.0,0.0,0.0,0.0,0.0,0.0,0.0,0.0,0.0,0.0,0.0,0.0,0.0,0.0,0.0,0.0,0.0,0.0,0.0,0.0,0.0,0.0,0.0,0.0,0.0,0.0,0.0,0.0,0.0,0.0,0.0,0.0,0.0,0.0,0.0,0.0,0.0,0.0,0.0,0.0,0.0,0.0,0.0,0.0,0.0,0.0,0.0,0.0,0.0,0.0,0.0,0.0,0.0,0.0,0.0,0.0,0.0,0.0,0.0,0.0,0.0,0.0,0.0,0.0,0.0,0.0,0.0,0.0,0.0,0.0,-2.8956,-2.9839,-3.0326,-3.0716,-3.1397,-3.2297,-3.1807,-3.1437,-3.1225,0.0,0.0,0.0,0.0,0.0,0.0,0.0,0.0,0.0,0.0,0.0,0.0,0.0,0.0,0.0,0.0,0.0,0.0,0.0,0.0,0.0,0.0,0.0,0.0,0.0,0.0,0.0,0.0,0.0,0.0,0.0,0.0,0.0,0.0,0.0,0.0,0.0,0.0,0.0,0.0,0.0,0.0,0.0,0.0,0.0,0.0,0.0,0.0,0.0,0.0,0.0,0.0,0.0,0.0,0.0,0.0,0.0,0.0,0.0,0.0,0.0,0.0,0.0,0.0,0.0,0.0,0.0,0.0,0.0,0.0,0.0,0.0,0.0,0.0,0.0,0.0,0.0,0.0,0.0,0.0,0.0,0.0,0.0,0.0,0.0,0.0,0.0,0.0,0.0,0.0,0.0,0.0,0.0,0.0,0.0,0.0,0.0,0.0,0.0,0.0,0.0,0.0,0.0,0.0,0.0,0.0,-3.0972,-3.2088,-3.2974,-3.2886,-3.3216,-3.4043,-3.3499,-3.293,-3.2378,0.0,0.0,0.0,0.0,0.0,0.0,0.0,0.0,0.0,0.0,0.0,0.0,0.0,0.0,0.0,0.0,0.0,0.0,0.0,0.0,0.0,0.0,0.0,0.0,0.0,0.0,0.0,0.0,0.0,0.0,0.0,0.0,0.0,0.0,0.0,0.0,0.0,0.0,0.0,0.0,0.0,0.0,0.0,0.0,0.0,0.0,0.0,0.0,0.0,0.0,0.0,0.0,0.0,0.0,0.0,0.0,0.0,0.0,0.0,0.0,0.0,0.0,0.0,0.0,0.0,0.0,0.0,0.0,0.0,0.0,0.0,0.0,0.0,0.0,0.0,0.0,0.0,0.0,0.0,0.0,0.0,0.0,0.0,0.0,0.0,0.0,0.0,0.0,0.0,0.0,0.0,0.0,0.0,0.0,0.0,0.0,0.0,0.0,0.0,0.0,0.0,0.0,0.0,0.0,0.0,0.0,0.0,-3.3606,-3.5902,-3.5138,-3.4903,-3.5193,-3.4943,-3.4313,-3.3235,0.0,0.0,0.0,0.0,0.0,0.0,0.0,0.0,0.0,0.0,0.0,0.0,0.0,0.0,0.0,0.0,0.0,0.0,0.0,0.0,0.0,0.0,0.0,0.0,0.0,0.0,0.0,0.0,0.0,0.0,0.0,0.0,0.0,0.0,0.0,0.0,0.0,0.0,0.0,0.0,0.0,0.0,0.0,0.0,0.0,0.0,0.0,0.0,0.0,0.0,0.0,0.0,0.0,0.0,0.0,0.0,0.0,0.0,0.0,0.0,0.0,0.0,0.0,0.0,0.0,0.0,0.0,0.0,0.0,0.0,0.0,0.0,0.0,0.0,0.0,0.0,0.0,0.0,0.0,0.0,0.0,0.0,0.0,0.0,0.0,0.0,0.0,0.0,0.0,0.0,0.0,0.0,0.0,0.0,0.0,0.0,0.0,0.0,0.0,0.0,0.0,0.0,0.0,0.0,0.0,0.0,-3.3696,-3.5119,-3.6445,-3.7178,-3.7512,-3.75,-3.6635,-3.5912,-3.5377,0.0,0.0,0.0,0.0,0.0,0.0,0.0,0.0,0.0,0.0,0.0,0.0,0.0,0.0,0.0,0.0,0.0,0.0,0.0,0.0,0.0,0.0,0.0,0.0,0.0,0.0,0.0,0.0,0.0,0.0,0.0,0.0,0.0,0.0,0.0,0.0,0.0,0.0,0.0,0.0,0.0,0.0,0.0,0.0,0.0,0.0,0.0,0.0,0.0,0.0,0.0,0.0,0.0,0.0,0.0,0.0,0.0,0.0,0.0,0.0,0.0,0.0,0.0,0.0,0.0,0.0,0.0,0.0,0.0,0.0,0.0,0.0,0.0,0.0,0.0,0.0,0.0,0.0,0.0,0.0,0.0,0.0,0.0,0.0,0.0,0.0,0.0,0.0,0.0,0.0,0.0,0.0,0.0,0.0,0.0,0.0,0.0,0.0,0.0,0.0,0.0,0.0,0.0,0.0,0.0,0.0,-3.4668,-3.6002,-3.7192,-3.816,-3.8814,-3.9112,-3.7992,-3.7036,-3.6316,0.0,0.0,0.0,0.0,0.0,0.0,0.0,0.0,0.0,0.0,0.0,0.0,0.0,0.0,0.0,0.0,0.0,0.0,0.0,0.0,0.0,0.0,0.0,0.0,0.0,0.0,0.0,0.0,0.0,0.0,0.0,0.0,0.0,0.0,0.0,0.0,0.0,0.0,0.0,0.0,0.0,0.0,0.0,0.0,0.0,0.0,0.0,0.0,-2.0249,0.0,0.0,0.0,0.0,0.0,0.0,0.0,0.0,0.0,0.0,0.0,0.0,0.0,0.0,0.0,0.0,0.0,0.0,0.0,0.0,0.0,0.0,0.0,0.0,0.0,0.0,0.0,0.0,0.0,0.0,0.0,0.0,0.0,0.0,0.0,0.0,0.0,0.0,0.0,0.0,0.0,0.0,0.0,0.0,0.0,0.0,0.0,0.0,0.0,0.0,0.0,0.0,0.0,0.0,0.0,-3.2982,-3.4103,-3.5202,-3.6476,-3.7854,-3.8565,-3.9286,-4.0022,-3.8914,-3.7769,-3.6653,0.0,0.0,0.0,0.0,0.0,0.0,0.0,0.0,0.0,0.0,0.0,0.0,0.0,0.0,0.0,0.0,0.0,0.0,0.0,0.0,0.0,0.0,0.0,0.0,0.0,0.0,0.0,0.0,0.0,0.0,0.0,0.0,0.0,0.0,0.0,0.0,0.0,0.0,0.0,0.0,0.0,0.0,0.0,0.0,0.0,0.0,0.0,-2.3183,-2.2129,0.0,0.0,0.0,0.0,0.0,0.0,0.0,0.0,0.0,0.0,0.0,0.0,0.0,0.0,0.0,0.0,0.0,0.0,0.0,0.0,0.0,0.0,0.0,0.0,0.0,0.0,0.0,-2.9104,0.0,-2.8219,0.0,0.0,0.0,0.0,0.0,0.0,0.0,0.0,0.0,0.0,0.0,0.0,0.0,0.0,0.0,0.0,0.0,0.0,0.0,0.0,0.0,0.0,0.0,0.0,-3.2828,-3.3849,-3.4851,-3.5794,-3.6795,-3.7886,-3.891,-3.9609,-3.9914,-3.8934,-3.8267,-3.8046,0.0,0.0,0.0,0.0,0.0,0.0,0.0,0.0,0.0,0.0,0.0,0.0,0.0,0.0,0.0,0.0,0.0,0.0,0.0,0.0,0.0,0.0,0.0,0.0,0.0,0.0,0.0,0.0,0.0,0.0,0.0,0.0,0.0,0.0,0.0,0.0,0.0,0.0,0.0,0.0,0.0,0.0,0.0,0.0,0.0,0.0,0.0,-2.4392,0.0,0.0,0.0,0.0,0.0,0.0,0.0,0.0,0.0,0.0,0.0,0.0,0.0,0.0,0.0,0.0,0.0,0.0,0.0,0.0,0.0,0.0,0.0,0.0,0.0,0.0,0.0,0.0,-2.9104,-2.8816,-2.8339,0.0,0.0,0.0,0.0,0.0,0.0,0.0,0.0,0.0,0.0,0.0,0.0,0.0,0.0,0.0,0.0,0.0,0.0,0.0,0.0,0.0,0.0,0.0,-3.2128,-3.308,-3.3988,-3.4861,-3.5817,-3.6863,-3.8011,-3.8852,-3.9647,-4.0321,-3.9395,-3.8715,-3.8352,0.0,0.0,0.0,0.0,0.0,0.0,0.0,0.0,0.0,0.0,0.0,0.0,0.0,0.0,0.0,0.0,0.0,0.0,0.0,0.0,0.0,0.0,0.0,0.0,0.0,0.0,0.0,0.0,0.0,0.0,0.0,0.0,0.0,0.0,0.0,0.0,0.0,-2.0798,-2.0835,0.0,0.0,0.0,0.0,0.0,0.0,0.0,0.0,-2.6073,-2.5871,0.0,0.0,0.0,0.0,0.0,0.0,0.0,0.0,0.0,0.0,0.0,0.0,0.0,0.0,0.0,0.0,0.0,0.0,0.0,0.0,0.0,0.0,0.0,0.0,0.0,0.0,0.0,-2.9104,-2.8867,-2.851,0.0,0.0,0.0,0.0,0.0,0.0,0.0,0.0,0.0,0.0,0.0,0.0,0.0,0.0,0.0,0.0,0.0,0.0,0.0,0.0,0.0,0.0,0.0,-3.2128,-3.3017,-3.3837,-3.4629,-3.5561,-3.6737,-3.8059,-3.8646,-3.9543,-4.0816,-4.0008,-3.914,-3.8263,0.0,0.0,0.0,0.0,0.0,0.0,0.0,0.0,0.0,0.0,0.0,0.0,0.0,0.0,0.0,0.0,0.0,0.0,0.0,0.0,0.0,0.0,0.0,0.0,0.0,0.0,0.0,0.0,0.0,0.0,0.0,0.0,0.0,0.0,0.0,0.0,0.0,-2.166,-2.175,-2.2467,-2.3193,0.0,0.0,0.0,0.0,0.0,0.0,0.0,-2.8153,-2.7645,-2.5807,0.0,0.0,0.0,0.0,0.0,0.0,0.0,0.0,0.0,0.0,0.0,0.0,0.0,0.0,0.0,0.0,0.0,0.0,0.0,0.0,0.0,0.0,0.0,0.0,0.0,-2.9104,-2.8855,-2.851,0.0,0.0,0.0,0.0,0.0,0.0,0.0,0.0,0.0,0.0,0.0,0.0,0.0,0.0,0.0,0.0,0.0,0.0,0.0,0.0,0.0,0.0,0.0,0.0,-3.2903,-3.3762,-3.461,-3.5237,-3.6246,-3.7747,-3.8559,-3.9423,-4.0273,-4.0331,-3.9714,-3.8398,-3.6952,0.0,0.0,0.0,0.0,0.0,0.0,0.0,0.0,0.0,0.0,0.0,0.0,0.0,0.0,0.0,0.0,0.0,0.0,0.0,0.0,0.0,0.0,0.0,0.0,0.0,0.0,0.0,0.0,0.0,0.0,0.0,0.0,0.0,0.0,0.0,0.0,-2.2759,-2.3319,-2.3744,-2.4284,-2.5052,0.0,0.0,0.0,0.0,0.0,-2.9016,-2.9353,-2.9202,-2.8311,-2.7327,0.0,0.0,0.0,0.0,0.0,0.0,0.0,0.0,0.0,0.0,0.0,0.0,0.0,0.0,0.0,0.0,0.0,0.0,0.0,0.0,0.0,0.0,0.0,0.0,-2.8961,-2.8855,-2.8657,-2.8657,-2.8776,0.0,0.0,0.0,0.0,-2.8867,0.0,0.0,0.0,0.0,0.0,0.0,0.0,0.0,0.0,0.0,0.0,0.0,0.0,0.0,0.0,0.0,0.0,-3.2917,-3.3687,-3.4486,-3.5363,-3.6499,-3.7822,-3.8662,-3.9442,-4.0158,-4.0102,-3.9642,-3.8606,0.0,0.0,0.0,0.0,0.0,0.0,0.0,0.0,0.0,0.0,0.0,0.0,0.0,0.0,0.0,0.0,0.0,0.0,0.0,0.0,0.0,0.0,0.0,0.0,0.0,0.0,0.0,0.0,0.0,0.0,0.0,0.0,0.0,0.0,0.0,0.0,0.0,0.0,-2.4589,-2.5174,-2.583,-2.6723,-2.7459,-2.813,-2.8848,-2.9314,-2.9851,-3.0453,-3.0525,-3.0343,-2.9765,0.0,0.0,0.0,0.0,0.0,0.0,0.0,0.0,0.0,0.0,0.0,0.0,0.0,0.0,0.0,0.0,0.0,0.0,0.0,0.0,0.0,0.0,0.0,0.0,0.0,0.0,-2.8803,-2.8803,-2.8803,-2.8922,-2.917,0.0,0.0,0.0,-2.926,-2.931,0.0,0.0,0.0,0.0,0.0,0.0,0.0,0.0,0.0,0.0,0.0,0.0,0.0,0.0,0.0,0.0,-3.2917,-3.3667,-3.4395,-3.5535,-3.6742,-3.7895,-3.8838,-3.9603,-4.0223,-3.9913,-3.9407,-3.8736,0.0,0.0,0.0,0.0,0.0,0.0,0.0,0.0,0.0,0.0,0.0,0.0,0.0,0.0,0.0,0.0,0.0,0.0,0.0,0.0,0.0,0.0,0.0,0.0,0.0,0.0,0.0,0.0,0.0,0.0,0.0,0.0,0.0,0.0,0.0,0.0,0.0,0.0,0.0,-2.6552,-2.7409,-2.8321,-2.913,-2.973,-3.0121,-3.0537,-3.1026,-3.1663,-3.1596,-3.1283,0.0,0.0,0.0,0.0,0.0,0.0,0.0,0.0,0.0,0.0,0.0,0.0,0.0,0.0,0.0,0.0,0.0,0.0,0.0,0.0,0.0,0.0,-2.938,-2.938,0.0,0.0,-2.8791,-2.8803,-2.8803,-2.8803,-2.9028,-2.9341,-2.9341,-2.9482,0.0,-2.9714,-2.9977,-3.0428,0.0,0.0,0.0,0.0,0.0,0.0,0.0,0.0,0.0,0.0,0.0,0.0,0.0,0.0,0.0,0.0,-3.3667,-3.4409,-3.5414,-3.6524,-3.7722,-3.8998,-3.9892,-4.0357,-3.9981,-3.9417,-3.8601,0.0,0.0,0.0,0.0,0.0,0.0,0.0,0.0,0.0,0.0,0.0,0.0,0.0,0.0,0.0,0.0,0.0,0.0,0.0,0.0,0.0,0.0,0.0,0.0,0.0,-2.3101,0.0,0.0,0.0,0.0,0.0,0.0,0.0,0.0,0.0,0.0,0.0,0.0,0.0,0.0,-2.8545,-2.947,-2.9863,-3.0338,-3.1235,-3.1575,-3.1875,-3.2259,-3.2302,-3.2028,0.0,0.0,0.0,0.0,0.0,0.0,0.0,0.0,0.0,0.0,0.0,0.0,0.0,0.0,0.0,0.0,0.0,0.0,0.0,0.0,0.0,0.0,-2.9236,-2.9236,-2.9013,-2.8657,-2.8764,-2.8882,-2.8961,-2.9067,-2.9314,-2.9611,-2.9611,-2.9864,-3.0244,-3.0256,-3.0545,-3.106,0.0,0.0,0.0,0.0,0.0,0.0,0.0,0.0,0.0,0.0,0.0,0.0,-3.0685,-3.1211,-3.1973,-3.2632,-3.3508,-3.4626,-3.572,-3.6817,-3.7918,-3.9218,-3.995,-3.998,-3.9542,-3.902,0.0,0.0,0.0,0.0,0.0,0.0,0.0,0.0,0.0,0.0,0.0,0.0,0.0,0.0,0.0,0.0,0.0,0.0,0.0,0.0,0.0,0.0,0.0,0.0,0.0,-2.345,-2.3484,-2.3484,0.0,0.0,0.0,0.0,0.0,0.0,0.0,0.0,0.0,0.0,0.0,0.0,0.0,-3.0241,-3.1197,-3.2006,-3.2695,-3.315,-3.3351,-3.3514,-3.3662,-3.3229,-3.2665,0.0,0.0,0.0,0.0,0.0,0.0,0.0,0.0,0.0,0.0,0.0,0.0,0.0,0.0,0.0,0.0,0.0,0.0,-3.0152,-3.0088,-2.9856,-2.9507,-2.9104,-2.9104,-2.8867,-2.8522,-2.887,-2.9129,-2.9352,-2.9673,-2.9972,-3.0193,-3.0193,-3.0432,-3.0796,-3.0809,-3.1097,-3.1612,-3.2014,0.0,0.0,0.0,0.0,0.0,0.0,0.0,0.0,0.0,0.0,-3.0343,-3.0571,-3.1024,-3.173,-3.2322,-3.3294,-3.4647,-3.5846,-3.6948,-3.7961,-3.9395,-3.9961,-3.9504,-3.9126,-3.8592,0.0,0.0,0.0,0.0,0.0,0.0,0.0,0.0,0.0,0.0,0.0,0.0,0.0,0.0,0.0,0.0,0.0,0.0,0.0,0.0,0.0,0.0,0.0,-2.3547,-2.3667,-2.3807,-2.3927,-2.396,-2.4046,0.0,-2.4411,0.0,0.0,0.0,0.0,0.0,0.0,0.0,0.0,0.0,0.0,-3.1684,-3.2542,-3.3666,-3.4433,-3.4466,-3.4602,-3.468,-3.4635,-3.3814,-3.302,0.0,0.0,0.0,0.0,0.0,0.0,0.0,0.0,0.0,0.0,0.0,0.0,0.0,0.0,0.0,0.0,0.0,0.0,-3.0254,-3.0075,-2.9908,-2.9546,-2.9143,-2.9104,-2.8867,-2.861,-2.9258,-2.9691,-3.0019,-3.0666,-3.1094,-3.126,-3.121,-3.1286,-3.1336,-3.1348,-3.1637,-3.2152,-3.219,0.0,0.0,0.0,0.0,0.0,0.0,0.0,0.0,0.0,0.0,-3.0203,-3.0508,-3.0911,-3.1347,-3.2055,-3.3007,-3.4219,-3.549,-3.6591,-3.7535,-3.9431,-3.994,-3.8986,-3.8896,-3.8305,0.0,0.0,0.0,0.0,0.0,0.0,0.0,0.0,0.0,0.0,0.0,0.0,0.0,0.0,0.0,0.0,0.0,0.0,0.0,0.0,0.0,0.0,0.0,0.0,-2.412,-2.4153,-2.4272,-2.4413,-2.468,-2.4914,-2.5115,0.0,0.0,0.0,0.0,0.0,0.0,0.0,0.0,0.0,0.0,-3.2599,-3.3097,-3.3847,-3.4479,-3.4635,-3.468,-3.459,-3.4396,-3.3679,-3.2963,-3.2227,-3.1028,-2.9682,0.0,0.0,0.0,0.0,0.0,0.0,0.0,0.0,0.0,0.0,0.0,0.0,0.0,0.0,0.0,-3.0996,-3.0432,-3.0126,-2.9715,-2.9351,-2.9685,-2.9687,-2.952,-3.0212,-3.0569,-3.0716,-3.1107,-3.1317,-3.1386,-3.1386,-3.1574,-3.1901,-3.1888,-3.2202,-3.2729,-3.2742,0.0,0.0,0.0,0.0,0.0,0.0,0.0,0.0,0.0,0.0,-3.0595,-3.0407,-3.0609,-3.1099,-3.1519,-3.2579,-3.4242,-3.5108,-3.6182,-3.7526,-3.8727,-3.8993,-3.8317,-3.7739,-3.714,-3.6398,0.0,0.0,0.0,0.0,0.0,0.0,0.0,0.0,0.0,0.0,0.0,0.0,0.0,0.0,0.0,0.0,0.0,0.0,0.0,0.0,0.0,0.0,0.0,0.0,-2.4871,-2.5126,-2.5327,-2.5464,-2.5591,-2.5779,-2.5915,0.0,0.0,0.0,0.0,0.0,0.0,0.0,-3.0849,0.0,-3.3515,-3.4304,-3.5102,-3.5649,-3.5742,-3.5603,-3.5475,-3.5369,-3.4164,-3.3085,-3.2485,-3.094,-2.9361,-2.8218,0.0,0.0,0.0,0.0,0.0,0.0,0.0,0.0,0.0,0.0,0.0,0.0,0.0,0.0,-3.1677,-3.102,-3.0381,-2.9958,-2.9835,-3.0142,-3.0282,-3.029,-3.1013,-3.1332,-3.1386,-3.1743,-3.1942,-3.1888,-3.1888,-3.2102,-3.2453,-3.2478,-3.2679,-3.3099,-3.3124,-3.3212,0.0,0.0,0.0,0.0,0.0,0.0,0.0,0.0,0.0,-3.0819,-3.048,-3.056,-3.0982,-3.1273,-3.2332,-3.4151,-3.4789,-3.5745,-3.7095,-3.7726,-3.7793,-3.716,-3.6606,-3.5947,-3.5156,0.0,0.0,0.0,0.0,-2.8462,0.0,0.0,0.0,0.0,0.0,0.0,0.0,0.0,0.0,0.0,0.0,0.0,0.0,0.0,0.0,0.0,0.0,0.0,0.0,0.0,-2.5915,-2.6188,-2.6302,-2.6523,-2.6813,-2.7178,-2.736,-2.7205,0.0,0.0,0.0,0.0,0.0,0.0,-3.3135,-3.432,-3.5096,-3.5818,-3.6275,-3.6275,-3.6051,-3.5763,-3.5459,-3.4167,-3.2909,-3.2125,-3.0558,-2.9024,-2.8034,-2.7066,-2.6239,-2.5645,-2.5095,-2.4608,-2.4414,0.0,0.0,0.0,0.0,0.0,0.0,0.0,0.0,-3.2296,-3.1757,-3.0625,-3.034,-3.0545,-3.0421,-3.053,-3.0877,-3.1571,-3.1891,-3.1916,-3.2682,-3.3036,-3.3048,-3.3036,-3.3023,-3.3074,-3.3068,-3.3111,-3.3093,-3.3136,-3.337,-3.3809,-3.3382,-3.3357,-3.3784,-3.3357,-3.2817,-3.229,-3.2215,-3.1662,-3.0758,-3.0794,-3.0899,-3.0978,-3.1474,-3.2502,-3.3886,-3.4471,-3.5177,-3.6017,-3.6619,-3.6443,-3.5507,-3.5603,-3.4934,-3.3314,0.0,0.0,0.0,0.0,-2.8395,0.0,0.0,0.0,0.0,0.0,0.0,0.0,0.0,0.0,0.0,0.0,0.0,0.0,0.0,0.0,0.0,0.0,0.0,0.0,0.0,-2.658,-2.685,-2.7249,-2.7638,-2.8154,-2.8444,-2.8726,0.0,0.0,0.0,0.0,0.0,-3.1574,-3.237,-3.382,-3.4891,-3.5171,-3.5643,-3.6015,-3.6003,-3.5764,-3.5245,-3.4293,-3.3456,-3.2406,-3.0913,-2.9797,0.0,0.0,0.0,0.0,0.0,0.0,0.0,0.0,0.0,0.0,0.0,0.0,0.0,0.0,0.0,0.0,-3.3601,-3.2775,-3.1967,-3.1532,-3.1415,-3.1512,-3.1597,-3.178,-3.2414,-3.2707,-3.2732,-3.2993,-3.3124,-3.3124,-3.3124,-3.3124,-3.3124,-3.3124,-3.3294,-3.3596,-3.3621,-3.3909,-3.4424,-3.4261,-3.4274,-3.4374,-3.3884,-3.3345,-3.2805,-3.2403,-3.2026,-3.1675,-3.1392,-3.1284,-3.143,-3.1618,-3.231,-3.3387,-3.3765,-3.4312,-3.5114,-3.5342,-3.5232,-3.4743,-3.4497,-3.3637,-3.2069,-3.1052,0.0,0.0,-2.8657,-2.8075,0.0,0.0,0.0,0.0,0.0,0.0,0.0,0.0,0.0,0.0,0.0,0.0,0.0,0.0,0.0,0.0,0.0,0.0,0.0,0.0,-2.7103,-2.7516,-2.7847,-2.8073,-2.8289,-2.8645,-2.9083,-2.9627,-2.9718,-2.9914,-3.0292,-3.1362,-3.2361,-3.3153,-3.3971,-3.4791,-3.5384,-3.5593,-3.5656,-3.5476,-3.5223,-3.474,-3.3731,-3.2627,-3.1512,-3.0303,-2.9027,-2.7867,-2.7241,-2.6592,-2.6014,-2.5732,-2.545,-2.5245,-2.5245,-2.5245,-2.5195,-2.4912,-2.4853,-2.4766,-2.4473,-2.4608,-2.4854,-3.4545,-3.362,-3.2777,-3.2296,-3.2176,-3.2189,-3.2328,-3.2541,-3.2918,-3.3124,-3.3124,-3.3124,-3.3124,-3.3124,-3.3124,-3.3124,-3.3093,-3.3325,-3.3558,-3.3897,-3.4098,-3.4487,-3.4956,-3.4813,-3.4813,-3.4931,-3.4437,-3.3897,-3.3357,-3.2792,-3.2416,-3.2215,-3.1851,-3.177,-3.1852,-3.1975,-3.2431,-3.3245,-3.3452,-3.3827,-3.4317,-3.4343,-3.4259,-3.4063,-3.3491,-3.2621,-3.1465,-3.067,-2.9896,0.0,-2.8407,0.0,0.0,0.0,0.0,0.0,0.0,0.0,0.0,0.0,0.0,0.0,0.0,0.0,0.0,0.0,0.0,0.0,0.0,0.0,0.0,-2.7305,-2.783,-2.8204,-2.8485,-2.8703,-2.8823,-2.9082,-2.9433,-2.9887,-3.0419,-3.0891,-3.1092,-3.2091,-3.3005,-3.3651,-3.4218,-3.4738,-3.5271,-3.5223,-3.5054,-3.4631,-3.4305,-3.3717,-3.2436,-3.1483,-3.0491,-2.9303,-2.8211,-2.7299,-2.6716,-2.61,-2.5684,-2.5684,-2.5684,-2.5684,-2.5684,-2.5684,-2.5606,-2.5352,-2.5303,-2.5215,-2.4922,-2.4977,-2.5125,-3.5194,-3.4405,-3.3145,-3.2688,-3.289,-3.2487,-3.2608,-3.3074,-3.3124,-3.3124,-3.3124,-3.3124,-3.3124,-3.3124,-3.3124,-3.3124,-3.3162,-3.3608,-3.3884,-3.3997,-3.4474,-3.4981,-3.547,-3.4994,-3.5064,-3.5483,-3.4956,-3.4462,-3.3909,-3.337,-3.2805,-3.2277,-3.2252,-3.224,-3.224,-3.2461,-3.2853,-3.336,-3.3586,-3.367,-3.3683,-3.367,-3.3598,-3.3386,-3.26,-3.1935,-3.1395,-3.0655,-2.9828,-2.8864,-2.8143,0.0,0.0,0.0,0.0,0.0,0.0,0.0,0.0,0.0,0.0,0.0,0.0,0.0,0.0,0.0,0.0,0.0,0.0,0.0,-2.7242,-2.8093,-2.8686,-2.8864,-2.9181,-2.9449,-2.9674,-2.9723,-2.9854,-3.0147,-3.0813,-3.1437,-3.1943,-3.2787,-3.3442,-3.3875,-3.4438,-3.4775,-3.4726,-3.4519,-3.4073,-3.3347,-3.3048,-3.2266,-3.0571,-3.0047,-2.9361,-2.7857,-2.7404,-2.7023,-2.6235,-2.5868,-2.5684,-2.5684,-2.5684,-2.5693,-2.5693,-2.5684,-2.5684,-2.5625,-2.5616,-2.5684,-2.5674,-2.5596,-2.5605,-3.644,-3.5505,-3.4673,-3.4101,-3.3717,-3.3229,-3.3089,-3.3124,-3.3124,-3.3124,-3.3124,-3.3124,-3.3124,-3.3124,-3.3124,-3.3124,-3.3093,-3.3257,-3.3734,-3.4474,-3.4663,-3.5215,-3.6119,-3.6015,-3.6015,-3.6107,-3.5533,-3.4981,-3.4474,-3.3935,-3.3382,-3.2842,-3.283,-3.283,-3.283,-3.2915,-3.3046,-3.3185,-3.324,-3.3283,-3.3283,-3.3099,-3.2884,-3.268,-3.2049,-3.1635,-3.1487,-3.0269,-2.9383,-2.8942,-2.779,0.0,-2.631,0.0,0.0,0.0,0.0,-2.3634,-2.3503,-2.3276,0.0,0.0,0.0,-2.3677,0.0,0.0,0.0,0.0,-2.6528,-2.7334,-2.8116,-2.891,-2.9258,-2.9005,-2.9213,-2.9364,-2.9292,-2.9297,-2.9474,-2.9874,-3.0287,-3.0825,-3.172,-3.2683,-3.3279,-3.3228,-3.3625,-3.3892,-3.3694,-3.3331,-3.2845,-3.2305,-3.184,-3.1049,-2.9639,-2.9287,-2.8705,-2.7572,-2.687,-2.6294,-2.5868,-2.5742,-2.5684,-2.5684,-2.5538,-2.545,-2.5645,-2.5508,-2.5342,-2.5177,-2.5284,-2.5391,-2.544,-2.5547,-2.5742,-3.7341,-3.6429,-3.548,-3.4888,-3.4552,-3.3943,-3.3781,-3.3865,-3.3778,-3.3596,-3.3407,-3.3407,-3.3282,-3.3124,-3.3124,-3.3124,-3.3124,-3.3307,-3.3759,-3.4412,-3.4806,-3.5345,-3.6019,-3.6031,-3.6031,-3.6019,-3.5479,-3.4893,-3.4399,-3.406,-3.3621,-3.3093,-3.3124,-3.3124,-3.3124,-3.3124,-3.3124,-3.3124,-3.2995,-3.2939,-3.2939,-3.2624,-3.232,-3.2113,-3.1784,-3.1473,-3.1199,-3.0008,-2.9095,-2.858,-2.7265,-2.6249,0.0,-2.4988,-2.4401,-2.3947,-2.3687,-2.345,-2.3373,-2.3198,0.0,0.0,-2.3406,-2.3807,-2.4163,0.0,0.0,-2.6021,-2.7009,-2.7962,-2.8671,-2.9269,-2.9401,-2.8923,-2.9148,-2.9139,-2.8844,-2.8989,-2.9161,-2.935,-2.995,-3.0557,-3.118,-3.1912,-3.2422,-3.2677,-3.278,-3.2738,-3.234,-3.1923,-3.1431,-3.0803,-3.0466,-2.9814,-2.8593,-2.829,-2.7919,-2.6959,-2.6352,-2.5917,-2.5732,-2.5684,-2.5635,-2.5538,-2.544,-2.5303,-2.5302,-2.5019,-2.4833,-2.4815,-2.4981,-2.5137,-2.5137,-2.5333,-2.5548,-3.8059,-3.7381,-3.598,-3.54,-3.5286,-3.4622,-3.4603,-3.5041,-3.4816,-3.4424,-3.3909,-3.3909,-3.3583,-3.3124,-3.3124,-3.3124,-3.3149,-3.3608,-3.3859,-3.3935,-3.4893,-3.5382,-3.5433,-3.5433,-3.5445,-3.542,-3.4919,-3.4437,-3.3935,-3.3897,-3.3621,-3.3093,-3.3068,-3.3025,-3.3068,-3.3068,-3.3068,-3.3025,-3.281,-3.2667,-3.2581,-3.212,-3.1769,-3.1572,-3.1528,-3.1245,-3.0699,-2.9765,-2.8823,-2.7854,-2.6557,-2.5527,-2.4861,-2.4401,-2.3937,-2.3547,-2.346,-2.3382,-2.3193,-2.3149,-2.314,-2.3144,-2.3527,-2.3927,-2.4196,-2.503,-2.576,-2.621,-2.755,-2.8541,-2.8939,-2.9228,-2.9216,-2.8735,-2.8897,-2.885,-2.8395,-2.8688,-2.8882,-2.8652,-2.9543,-3.031,-3.0292,-3.0543,-3.1046,-3.1939,-3.1817,-3.1439,-3.0882,-3.0439,-2.9872,-2.9181,-2.8993,-2.8535,-2.7519,-2.7245,-2.6996,-2.6294,-2.5868,-2.5732,-2.5684,-2.5635,-2.5586,-2.5333,-2.5235,-2.5098,-2.4782,-2.4409,-2.4115,-2.4433,-2.4658,-2.4833,-2.4883,-2.5089,-2.515,-3.9824,-3.9129,-3.8315,-3.7139,-3.5751,-3.5513,-3.5302,-3.5098,-3.4828,-3.4412,-3.3909,-3.3909,-3.3596,-3.3124,-3.3124,-3.3124,-3.3136,-3.3262,-3.3508,-3.3909,-3.4173,-3.4467,-3.4868,-3.4868,-3.4868,-3.4856,-3.4731,-3.4437,-3.3922,-3.372,-3.3345,-3.2791,-3.2649,-3.2649,-3.281,-3.281,-3.2723,-3.2562,-3.2531,-3.2201,-3.1649,-3.1193,-3.0701,-3.0272,-3.0114,-2.9966,-2.9795,-2.8731,-2.782,-2.7206,-2.5894,-2.4903,-2.4411,-2.3894,-2.3634,-2.3503,-2.3319,-2.3335,-2.3603,-2.3643,-2.3486,-2.312,-2.3527,-2.397,-2.438,-2.5455,-2.627,-2.6729,-2.8057,-2.8896,-2.8778,-2.9195,-2.9226,-2.8547,-2.8505,-2.8337,-2.7867,-2.7725,-2.7744,-2.7775,-2.8061,-2.8429,-2.8782,-2.9063,-2.9245,-2.931,-2.9895,-3.0226,-2.988,-2.9206,-2.8682,-2.8313,-2.7827,-2.727,-2.6805,-2.6534,-2.6342,-2.6149,-2.5868,-2.5684,-2.5684,-2.5547,-2.5382,-2.5294,-2.4775,-2.4566,-2.4749,-2.4157,-2.3461,-2.324,-2.3723,-2.4332,-2.4578,-2.4753,-2.4842,-4.0602,-4.0068,-3.9727,-3.8699,-3.725,-3.6709,-3.6289,-3.5958,-3.5729,-3.5093,-3.4236,-3.3759,-3.337,-3.3124,-3.3124,-3.3124,-3.3124,-3.3124,-3.3275,-3.3545,-3.3784,-3.406,-3.4361,-3.4349,-3.4361,-3.4349,-3.3965,-3.3658,-3.3371,-3.3139,-3.279,-3.2407,-3.2288,-3.2189,-3.2089,-3.2264,-3.232,-3.2189,-3.1893,-3.1306,-3.0532,-3.025,-2.9783,-2.9187,-2.9059,-2.8879,-2.851,-2.7563,-2.6809,-2.6241,-2.5076,-2.4229,-2.3894,-2.3537,-2.3319,-2.3319,-2.3188,-2.3286,-2.376,-2.3789,-2.3769,-2.3666,-2.4123,-2.4567,-2.4954,-2.5864,-2.6714,-2.7349,-2.8166,-2.8611,-2.8571,-2.8824,-2.871,-2.7961,-2.7925,-2.7736,-2.7167,-2.7208,-2.7316,-2.7356,-2.7579,-2.7842,-2.8096,-2.8104,-2.7971,-2.7821,-2.8152,-2.8443,-2.8403,-2.7924,-2.7469,-2.7344,-2.6995,-2.663,-2.6342,-2.611,-2.5917,-2.5917,-2.5781,-2.5684,-2.5684,-2.5489,-2.5284,-2.5079,-2.4529,-2.4143,-2.4189,-2.3723,-2.307,-2.2833,-2.3117,-2.3728,-2.4084,-2.427,-2.4345,-4.1154,-4.0783,-4.0637,-4.0082,-3.9166,-3.8084,-3.7441,-3.7108,-3.6739,-3.586,-3.4562,-3.352,-3.3124,-3.3124,-3.3124,-3.3124,-3.3124,-3.3124,-3.3124,-3.3149,-3.3571,-3.3796,-3.3796,-3.3753,-3.374,-3.3727,-3.299,-3.2667,-3.2624,-3.2388,-3.2157,-3.1901,-3.1857,-3.1637,-3.125,-3.156,-3.1769,-3.1813,-3.1116,-3.0306,-2.9485,-2.9301,-2.8943,-2.8301,-2.8207,-2.7832,-2.7123,-2.6498,-2.5823,-2.5189,-2.4257,-2.3667,-2.346,-2.3232,-2.3101,-2.3101,-2.3149,-2.3408,-2.3838,-2.3935,-2.4131,-2.4541,-2.5017,-2.5345,-2.5452,-2.6173,-2.7027,-2.7898,-2.7998,-2.8023,-2.8222,-2.8254,-2.7925,-2.7262,-2.7214,-2.7023,-2.6506,-2.679,-2.703,-2.7041,-2.7382,-2.7623,-2.7573,-2.7261,-2.6991,-2.6961,-2.6759,-2.6718,-2.692,-2.6719,-2.6536,-2.6448,-2.64,-2.6304,-2.6062,-2.5868,-2.5732,-2.5684,-2.5684,-2.5684,-2.5645,-2.544,-2.5137,-2.4833,-2.4332,-2.3877,-2.3493,-2.3179,-2.287,-2.2633,-2.2844,-2.322,-2.3579,-2.3712,-2.3737,-4.2654,-4.2254,-4.1869,-4.1055,-4.0005,-3.9426,-3.8487,-3.7374,-3.6424,-3.5292,-3.4022,-3.3357,-3.3124,-3.3124,-3.3124,-3.3124,-3.3124,-3.3124,-3.3124,-3.3124,-3.3224,-3.3275,-3.3232,-3.3003,-3.2916,-3.2916,-3.2611,-3.2332,-3.212,-3.1913,-3.1705,-3.1427,-3.1059,-3.0847,-3.0713,-3.0454,-3.0499,-3.0791,-3.0125,-2.9577,-2.9163,-2.8384,-2.782,-2.7499,-2.7061,-2.6618,-2.6113,-2.563,-2.5113,-2.4446,-2.3873,-2.346,-2.3178,-2.3144,-2.3101,-2.312,-2.3477,-2.3848,-2.4268,-2.4629,-2.5019,-2.5449,-2.5767,-2.5734,-2.5249,-2.6227,-2.7186,-2.791,-2.7776,-2.7631,-2.7547,-2.7299,-2.7051,-2.6688,-2.664,-2.6544,-2.6197,-2.6277,-2.6219,-2.6006,-2.6084,-2.6133,-2.6153,-2.6045,-2.6016,-2.6025,-2.5888,-2.5859,-2.5996,-2.6131,-2.6197,-2.6149,-2.6014,-2.5878,-2.5781,-2.5723,-2.5684,-2.5684,-2.5684,-2.5635,-2.544,-2.5186,-2.4784,-2.4381,-2.3845,-2.3506,-2.3382,-2.3022,-2.2695,-2.2619,-2.2828,-2.305,-2.3184,-2.3153,-2.3083,-4.305,-4.2688,-4.2322,-4.159,-4.0603,-4.0055,-3.9176,-3.8141,-3.726,-3.5954,-3.4439,-3.3532,-3.3124,-3.3124,-3.3124,-3.3124,-3.3124,-3.3124,-3.3124,-3.3124,-3.3124,-3.3038,-3.2896,-3.2766,-3.2581,-3.2351,-3.2157,-3.1849,-3.146,-3.125,-3.0949,-3.0601,-3.0375,-3.0182,-3.0023,-2.968,-2.9634,-2.984,-2.9393,-2.8978,-2.856,-2.7914,-2.7394,-2.6928,-2.664,-2.6042,-2.5159,-2.4921,-2.4449,-2.3693,-2.3437,-2.3232,-2.3101,-2.3101,-2.3101,-2.311,-2.3555,-2.3975,-2.4385,-2.4824,-2.5264,-2.5654,-2.582,-2.5874,-2.5805,-2.6353,-2.6861,-2.722,-2.7156,-2.7023,-2.6928,-2.6774,-2.6582,-2.6342,-2.6294,-2.6197,-2.5955,-2.5907,-2.5868,-2.5732,-2.5684,-2.5684,-2.5684,-2.5684,-2.5684,-2.5684,-2.5684,-2.5684,-2.5732,-2.583,-2.5917,-2.5917,-2.5781,-2.5684,-2.5684,-2.5684,-2.5684,-2.5684,-2.5684,-2.5586,-2.5333,-2.5088,-2.4784,-2.4332,-2.3786,-2.3415,-2.3382,-2.2972,-2.2603,-2.2653,-2.2846,-2.2965,-2.2939,-2.2796,-2.2776,-4.309,-4.2729,-4.25,-4.191,-4.1085,-4.0416,-3.9675,-3.8908,-3.8049,-3.6722,-3.5035,-3.3846,-3.3275,-3.3262,-3.3174,-3.3124,-3.3124,-3.3124,-3.3124,-3.3124,-3.3124,-3.2952,-3.2711,-3.2667,-3.2407,-3.1945,-3.1705,-3.1306,-3.0758,-3.0578,-3.0319,-2.9965,-2.9941,-2.9781,-2.9585,-2.9265,-2.9128,-2.9128,-2.8896,-2.8524,-2.8034,-2.7678,-2.7214,-2.6496,-2.6448,-2.5789,-2.4453,-2.4424,-2.3978,-2.3149,-2.3101,-2.3101,-2.3101,-2.3101,-2.3101,-2.312,-2.3613,-2.4043,-2.4404,-2.4902,-2.5342,-2.5713,-2.5684,-2.5927,-2.64,-2.6448,-2.6438,-2.6496,-2.6448,-2.6448,-2.6448,-2.6352,-2.6255,-2.6052,-2.6062,-2.5907,-2.5732,-2.5684,-2.5684,-2.5684,-2.5684,-2.5684,-2.5684,-2.5684,-2.5684,-2.5684,-2.5684,-2.5684,-2.5684,-2.5732,-2.5732,-2.5732,-2.5684,-2.5684,-2.5684,-2.5684,-2.5684,-2.5684,-2.5684,-2.5586,-2.5333,-2.5079,-2.4775,-2.443,-2.3845,-2.3447,-2.3247,-2.2896,-2.2653,-2.2703,-2.2846,-2.2974,-2.2784,-2.2652,-2.2682,-4.317,-4.2915,-4.2541,-4.209,-4.1563,-4.0901,-4.0097,-3.9118,-3.7564,-3.618,-3.506,-3.4438,-3.4016,-3.3759,-3.3282,-3.3124,-3.3124,-3.3124,-3.3124,-3.3124,-3.3124,-3.2939,-3.2711,-3.2519,-3.2213,-3.1749,-3.1261,-3.0769,-3.0306,-3.0114,-3.0044,-3.0148,-2.9969,-2.9886,-2.9806,-2.9349,-2.922,-2.9439,-2.8803,-2.829,-2.7998,-2.7536,-2.7071,-2.6544,-2.6294,-2.5589,-2.4463,-2.4424,-2.4023,-2.3149,-2.3101,-2.3101,-2.3101,-2.3101,-2.3101,-2.313,-2.3887,-2.4309,-2.4387,-2.5138,-2.5625,-2.5674,-2.5684,-2.583,-2.6149,-2.6149,-2.6245,-2.6448,-2.6294,-2.6149,-2.6149,-2.5975,-2.583,-2.5781,-2.5732,-2.5732,-2.5684,-2.5684,-2.5684,-2.5684,-2.5684,-2.5684,-2.5684,-2.5684,-2.5684,-2.5684,-2.5684,-2.5684,-2.5684,-2.5684,-2.5684,-2.5684,-2.5684,-2.5684,-2.5684,-2.5684,-2.5684,-2.5684,-2.5684,-2.5586,-2.5333,-2.5079,-2.4726,-2.4233,-2.3795,-2.3279,-2.2894,-2.2669,-2.2813,-2.3099,-2.3173,-2.3073,-2.3064,-2.2967,-2.2916,-4.3155,-4.2996,-4.2809,-4.2404,-4.1785,-4.1029,-4.017,-3.9234,-3.8296,-3.7187,-3.5923,-3.5092,-3.4483,-3.4107,-3.3539,-3.3258,-3.3126,-3.2872,-3.2736,-3.2736,-3.2736,-3.255,-3.2332,-3.2201,-3.1906,-3.133,-3.1197,-3.0813,-3.0248,-3.0263,-3.0236,-3.0197,-3.0134,-3.0145,-3.0245,-2.9792,-2.9678,-2.99,-2.9075,-2.8571,-2.842,-2.782,-2.7309,-2.6928,-2.6544,-2.5909,-2.5039,-2.4643,-2.4131,-2.3516,-2.3227,-2.3101,-2.3101,-2.3101,-2.3101,-2.312,-2.373,-2.418,-2.4404,-2.5196,-2.5684,-2.5684,-2.5684,-2.5732,-2.5868,-2.5868,-2.5917,-2.6072,-2.5975,-2.5868,-2.5868,-2.5781,-2.5684,-2.5684,-2.5684,-2.5684,-2.5684,-2.5684,-2.5684,-2.5684,-2.5684,-2.5684,-2.5684,-2.5684,-2.5684,-2.5684,-2.5684,-2.5684,-2.5684,-2.5684,-2.5684,-2.5684,-2.5684,-2.5684,-2.5684,-2.5684,-2.5684,-2.5684,-2.5684,-2.5586,-2.5333,-2.5088,-2.4784,-2.4381,-2.3945,-2.3529,-2.3085,-2.3061,-2.3155,-2.3273,-2.3464,-2.3439,-2.3555,-2.3573,-2.34,-4.321,-4.3076,-4.3036,-4.2633,-4.191,-4.1114,-4.0286,-3.9499,-3.9087,-3.8161,-3.6916,-3.5846,-3.5037,-3.4487,-3.3921,-3.3521,-3.315,-3.2769,-3.2511,-3.24,-3.24,-3.2257,-3.2038,-3.2006,-3.1701,-3.1217,-3.1262,-3.0996,-3.0485,-3.0556,-3.0508,-3.0401,-3.0422,-3.0569,-3.0852,-3.0433,-3.0334,-3.0388,-2.9598,-2.9053,-2.8803,-2.8045,-2.7584,-2.7262,-2.6784,-2.6189,-2.5513,-2.4788,-2.4228,-2.3809,-2.3335,-2.3101,-2.3101,-2.3101,-2.3101,-2.313,-2.3555,-2.4023,-2.4541,-2.5195,-2.5635,-2.5684,-2.5684,-2.5684,-2.5684,-2.5684,-2.5684,-2.5684,-2.5732,-2.5684,-2.5732,-2.5684,-2.5684,-2.5684,-2.5684,-2.5684,-2.5684,-2.5684,-2.5684,-2.5684,-2.5684,-2.5684,-2.5684,-2.5684,-2.5684,-2.5684,-2.5684,-2.5684,-2.5684,-2.5684,-2.5684,-2.5684,-2.5684,-2.5684,-2.5684,-2.5684,-2.5684,-2.5684,-2.5684,-2.5635,-2.544,-2.5186,-2.4883,-2.4637,-2.4192,-2.3845,-2.3619,-2.3429,-2.3456,-2.3582,-2.3755,-2.3899,-2.4128,-2.4183,-2.3902,-4.3305,-4.325,-4.3076,-4.2607,-4.198,-4.1283,-4.0688,-4.017,-3.9309,-3.8477,-3.7599,-3.6612,-3.5788,-3.5093,-3.4479,-3.386,-3.326,-3.315,-3.2867,-3.2449,-3.24,-3.2257,-3.2018,-3.2018,-3.1881,-3.1641,-3.1472,-3.1236,-3.0993,-3.0734,-3.0722,-3.0838,-3.1053,-3.1351,-3.1542,-3.1371,-3.1147,-3.0938,-3.046,-2.9722,-2.8825,-2.8233,-2.7762,-2.7309,-2.6784,-2.6189,-2.5543,-2.4788,-2.4228,-2.3809,-2.3379,-2.3101,-2.3101,-2.3101,-2.3101,-2.311,-2.3555,-2.4141,-2.494,-2.5125,-2.5322,-2.5635,-2.5684,-2.5684,-2.5684,-2.5684,-2.5684,-2.5684,-2.5684,-2.5684,-2.5684,-2.5684,-2.5684,-2.5684,-2.5684,-2.5684,-2.5713,-2.5684,-2.5684,-2.5684,-2.5791,-2.5693,-2.5791,-2.5791,-2.5752,-2.582,-2.5791,-2.5762,-2.5752,-2.5703,-2.5684,-2.5684,-2.5684,-2.5684,-2.5684,-2.5684,-2.5684,-2.5684,-2.5684,-2.5684,-2.5586,-2.5391,-2.5196,-2.5005,-2.4535,-2.4207,-2.3986,-2.38,-2.3727,-2.4195,-2.4312,-2.4258,-2.4515,-2.4641,-2.4378,-4.3195,-4.3305,-4.3195,-4.3016,-4.2682,-4.2038,-4.165,-4.1316,-4.0181,-3.9173,-3.8219,-3.7052,-3.6112,-3.5406,-3.4524,-3.3971,-3.3635,-3.2892,-3.2539,-3.241,-3.2139,-3.2063,-3.2276,-3.2288,-3.234,-3.2415,-3.2312,-3.2139,-3.19,-3.1753,-3.1751,-3.1817,-3.1951,-3.2163,-3.2368,-3.2014,-3.1749,-3.1641,-3.0751,-2.9922,-2.923,-2.8419,-2.7773,-2.7309,-2.6784,-2.633,-2.5871,-2.5181,-2.4609,-2.417,-2.376,-2.3408,-2.311,-2.3101,-2.3101,-2.312,-2.3545,-2.4053,-2.4648,-2.4959,-2.5254,-2.5654,-2.5684,-2.5684,-2.5684,-2.5684,-2.5684,-2.5684,-2.5684,-2.5684,-2.5684,-2.5684,-2.5684,-2.5684,-2.5684,-2.5781,-2.6094,-2.6113,-2.6201,-2.6435,-2.6494,-2.6475,-2.6444,-2.6444,-2.6444,-2.6455,-2.6309,-2.6123,-2.6113,-2.5918,-2.5693,-2.5684,-2.5684,-2.5684,-2.5684,-2.5684,-2.5684,-2.5684,-2.5684,-2.5684,-2.5703,-2.5489,-2.5302,-2.5502,-2.5192,-2.4729,-2.4224,-2.4886,-2.5173,-2.5329,-2.5264,-2.5237,-2.5121,-2.5025,-2.4818,-4.3076,-4.3225,-4.3379,-4.3397,-4.337,-4.2811,-4.243,-4.2025,-4.0868,-3.9647,-3.8436,-3.7162,-3.615,-3.5331,-3.457,-3.409,-3.3708,-3.2922,-3.2551,-3.2604,-3.2286,-3.2334,-3.2695,-3.2719,-3.2845,-3.3078,-3.31,-3.2959,-3.2718,-3.2553,-3.2493,-3.2493,-3.2555,-3.2718,-3.2846,-3.2483,-3.2245,-3.1992,-3.0987,-3.0146,-2.9382,-2.8513,-2.7852,-2.733,-2.6784,-2.639,-2.6081,-2.5484,-2.4969,-2.46,-2.4189,-2.3769,-2.335,-2.332,-2.3227,-2.313,-2.3383,-2.3848,-2.4375,-2.4717,-2.5137,-2.5606,-2.5684,-2.5684,-2.5684,-2.5684,-2.5684,-2.5684,-2.5684,-2.5684,-2.5684,-2.5684,-2.5723,-2.5889,-2.5869,-2.6094,-2.6484,-2.6553,-2.668,-2.6963,-2.6934,-2.7012,-2.7002,-2.6973,-2.6943,-2.6914,-2.6738,-2.6562,-2.6533,-2.6299,-2.6035,-2.5937,-2.5918,-2.5859,-2.5723,-2.5684,-2.5684,-2.5684,-2.5684,-2.5732,-2.5869,-2.5722,-2.566,-2.5985,-2.5951,-2.5746,-2.5233,-2.5764,-2.6233,-2.6269,-2.6181,-2.6056,-2.5701,-2.5538,-2.5361,-4.3021,-4.3085,-4.3519,-4.3676,-4.3666,-4.3373,-4.2826,-4.2161,-4.1074,-3.9706,-3.8113,-3.6918,-3.5807,-3.4847,-3.4666,-3.4221,-3.3455,-3.3445,-3.3292,-3.2934,-3.3083,-3.3212,-3.326,-3.3272,-3.3443,-3.3708,-3.3708,-3.3545,-3.3273,-3.2807,-3.2493,-3.2578,-3.2825,-3.2903,-3.2914,-3.2857,-3.2596,-3.2078,-3.1246,-3.0335,-2.9225,-2.8614,-2.7976,-2.7297,-2.6784,-2.6352,-2.6051,-2.5446,-2.5096,-2.5077,-2.4619,-2.4209,-2.3818,-2.376,-2.3594,-2.3208,-2.3159,-2.3539,-2.4316,-2.4502,-2.4863,-2.5528,-2.5684,-2.5684,-2.5684,-2.5684,-2.5684,-2.5684,-2.5684,-2.5684,-2.5732,-2.5762,-2.5888,-2.6269,-2.6357,-2.6543,-2.6934,-2.6992,-2.6992,-2.707,-2.7129,-2.7168,-2.708,-2.7012,-2.7109,-2.7109,-2.7031,-2.6992,-2.6973,-2.6943,-2.6719,-2.6465,-2.6338,-2.6221,-2.5859,-2.5791,-2.5762,-2.5801,-2.5947,-2.5937,-2.6172,-2.6356,-2.648,-2.6572,-2.6567,-2.6471,-2.6214,-2.6252,-2.6473,-2.6576,-2.6679,-2.6502,-2.6286,-2.6317,-2.6064,-4.2526,-4.2828,-4.3287,-4.3577,-4.3788,-4.3655,-4.3434,-4.2929,-4.1599,-4.0083,-3.8492,-3.7032,-3.5587,-3.4286,-3.3953,-3.381,-3.377,-3.3404,-3.3242,-3.3327,-3.3172,-3.3371,-3.3941,-3.4012,-3.4244,-3.4595,-3.4462,-3.4335,-3.4237,-3.4082,-3.4053,-3.4159,-3.398,-3.3791,-3.3542,-3.314,-3.2616,-3.2051,-3.1273,-3.0413,-2.9452,-2.8519,-2.7803,-2.727,-2.6744,-2.6304,-2.5878,-2.5615,-2.5361,-2.5078,-2.4912,-2.4639,-2.4248,-2.4189,-2.4121,-2.3939,-2.3919,-2.4209,-2.4727,-2.4824,-2.5088,-2.5596,-2.5684,-2.5684,-2.5684,-2.5684,-2.5684,-2.5684,-2.5684,-2.5781,-2.6094,-2.6152,-2.6221,-2.6377,-2.6641,-2.6963,-2.7305,-2.7432,-2.7529,-2.7754,-2.7822,-2.7832,-2.7773,-2.7822,-2.7832,-2.7803,-2.7607,-2.7461,-2.7383,-2.7217,-2.6982,-2.6846,-2.6787,-2.6738,-2.6621,-2.6309,-2.6182,-2.626,-2.6348,-2.6543,-2.6768,-2.6797,-2.6861,-2.7201,-2.7266,-2.7302,-2.7131,-2.7227,-2.7313,-2.7182,-2.7266,-2.7101,-2.6824,-2.6738,-2.6416,-4.2295,-4.2795,-4.3397,-4.3729,-4.3893,-4.4063,-4.3836,-4.3307,-4.1869,-4.0217,-3.847,-3.685,-3.5274,-3.3875,-3.3269,-3.322,-3.3545,-3.316,-3.3315,-3.3765,-3.3517,-3.3815,-3.4532,-3.4688,-3.4918,-3.5259,-3.5162,-3.5083,-3.5044,-3.5082,-3.5137,-3.5149,-3.4806,-3.4347,-3.3868,-3.3266,-3.2633,-3.1902,-3.12,-3.0477,-2.9595,-2.87,-2.7819,-2.7111,-2.6771,-2.6298,-2.5742,-2.5684,-2.5605,-2.5332,-2.5283,-2.5088,-2.4678,-2.4492,-2.4424,-2.4424,-2.4414,-2.46,-2.499,-2.5059,-2.5264,-2.5635,-2.5684,-2.5684,-2.5684,-2.5684,-2.5684,-2.5703,-2.5849,-2.6094,-2.6357,-2.6621,-2.6797,-2.6836,-2.706,-2.7402,-2.7793,-2.7861,-2.7998,-2.8184,-2.8232,-2.8271,-2.8301,-2.8281,-2.8262,-2.8291,-2.8037,-2.7881,-2.7822,-2.7646,-2.7344,-2.7266,-2.7236,-2.7139,-2.7031,-2.6836,-2.668,-2.6728,-2.6758,-2.7002,-2.7217,-2.7226,-2.7363,-2.7715,-2.792,-2.8037,-2.8154,-2.8262,-2.8144,-2.79,-2.7832,-2.7662,-2.7373,-2.7041,-2.6777,-4.224,-4.2743,-4.3822,-4.3993,-4.3849,-4.4357,-4.412,-4.2944,-4.1673,-3.9794,-3.763,-3.6177,-3.4746,-3.3419,-3.2745,-3.2544,-3.2583,-3.2962,-3.3449,-3.3981,-3.4191,-3.4569,-3.515,-3.5138,-3.5295,-3.5597,-3.5599,-3.5605,-3.5663,-3.5702,-3.5627,-3.5328,-3.5288,-3.4786,-3.3651,-3.336,-3.2668,-3.176,-3.1054,-3.0325,-2.9424,-2.8932,-2.8117,-2.6983,-2.6844,-2.6478,-2.5791,-2.5693,-2.5664,-2.5654,-2.5645,-2.5508,-2.5088,-2.4736,-2.4482,-2.4531,-2.4482,-2.4678,-2.5086,-2.5117,-2.5332,-2.5596,-2.5684,-2.5684,-2.5684,-2.5684,-2.5703,-2.5859,-2.6113,-2.6387,-2.6572,-2.7109,-2.7591,-2.7699,-2.7607,-2.7885,-2.8135,-2.8271,-2.8291,-2.8301,-2.8301,-2.8301,-2.8301,-2.8301,-2.8301,-2.8281,-2.8242,-2.8203,-2.8193,-2.8125,-2.8037,-2.7793,-2.7666,-2.7588,-2.7451,-2.7334,-2.7256,-2.7197,-2.7197,-2.7314,-2.7578,-2.7676,-2.7754,-2.8037,-2.8096,-2.8203,-2.8203,-2.8301,-2.8301,-2.8135,-2.8154,-2.8096,-2.7803,-2.748,-2.7295,-4.1521,-4.1944,-4.3113,-4.3341,-4.3041,-4.3664,-4.319,-4.1791,-4.0657,-3.8926,-3.6862,-3.5633,-3.4198,-3.2909,-3.2319,-3.2077,-3.1936,-3.2493,-3.3108,-3.3706,-3.4064,-3.4652,-3.532,-3.5464,-3.5608,-3.5863,-3.6064,-3.622,-3.6458,-3.6789,-3.6808,-3.6532,-3.6139,-3.5538,-3.4559,-3.3511,-3.2512,-3.1787,-3.0757,-3.0016,-2.9486,-2.8733,-2.8121,-2.7708,-2.7217,-2.6712,-2.6211,-2.5898,-2.5693,-2.5684,-2.5684,-2.5664,-2.5518,-2.5362,-2.5284,-2.5284,-2.5284,-2.5313,-2.5478,-2.5518,-2.5566,-2.5654,-2.5684,-2.5684,-2.5684,-2.5713,-2.5849,-2.6123,-2.6328,-2.6582,-2.7229,-2.7532,-2.7738,-2.7728,-2.7973,-2.8115,-2.8252,-2.8301,-2.8301,-2.8301,-2.8301,-2.8301,-2.8301,-2.8301,-2.8301,-2.8301,-2.8301,-2.8301,-2.8301,-2.8301,-2.8281,-2.8105,-2.8076,-2.8008,-2.7881,-2.7803,-2.7764,-2.7695,-2.7676,-2.7646,-2.7881,-2.8027,-2.8135,-2.8193,-2.8262,-2.8301,-2.8301,-2.8301,-2.8301,-2.8301,-2.8242,-2.8164,-2.8086,-2.79,-2.7666,-4.093,-4.1383,-4.2506,-4.2669,-4.2256,-4.2897,-4.2249,-4.0688,-3.9532,-3.7878,-3.6049,-3.4893,-3.3554,-3.2296,-3.1913,-3.1721,-3.1578,-3.219,-3.2796,-3.3346,-3.3866,-3.4652,-3.5524,-3.5812,-3.6079,-3.6436,-3.6616,-3.6897,-3.7222,-3.7539,-3.7503,-3.7121,-3.6707,-3.5906,-3.4812,-3.3695,-3.2659,-3.1529,-3.0652,-2.9949,-2.928,-2.866,-2.8222,-2.7949,-2.7496,-2.7051,-2.6641,-2.6298,-2.6015,-2.5752,-2.5684,-2.5684,-2.5684,-2.5674,-2.5684,-2.5684,-2.5674,-2.5674,-2.5684,-2.5654,-2.5684,-2.5703,-2.583,-2.5986,-2.6016,-2.6074,-2.6357,-2.6562,-2.6797,-2.708,-2.7601,-2.7822,-2.7881,-2.791,-2.8125,-2.8291,-2.8301,-2.8301,-2.8301,-2.8301,-2.8301,-2.8301,-2.8301,-2.8301,-2.8301,-2.8301,-2.8301,-2.8301,-2.8301,-2.8301,-2.8291,-2.8291,-2.8242,-2.8223,-2.8262,-2.8262,-2.8262,-2.8213,-2.8164,-2.8105,-2.8184,-2.8193,-2.8252,-2.8252,-2.8291,-2.8301,-2.8301,-2.8301,-2.8301,-2.8301,-2.8369,-2.8252,-2.8174,-2.8105,-2.793,-4.0629,-4.1127,-4.2123,-4.2155,-4.1672,-4.2122,-4.1389,-3.9772,-3.8503,-3.6899,-3.5244,-3.4081,-3.2857,-3.1786,-3.1618,-3.1476,-3.1384,-3.2139,-3.2645,-3.3058,-3.3717,-3.4652,-3.556,-3.6038,-3.6526,-3.7039,-3.7147,-3.7452,-3.7841,-3.7899,-3.7667,-3.7066,-3.6696,-3.5874,-3.4524,-3.3912,-3.2771,-3.1226,-3.0729,-2.9949,-2.887,-2.8664,-2.838,-2.7816,-2.7757,-2.749,-2.7109,-2.6934,-2.6582,-2.5898,-2.5869,-2.5888,-2.5801,-2.5762,-2.584,-2.5869,-2.5781,-2.584,-2.5801,-2.5898,-2.5879,-2.5927,-2.624,-2.6426,-2.6455,-2.668,-2.6904,-2.7051,-2.7353,-2.7669,-2.7826,-2.8018,-2.8223,-2.8281,-2.8271,-2.8301,-2.8301,-2.8301,-2.8301,-2.8301,-2.8301,-2.8301,-2.8301,-2.8301,-2.8301,-2.8301,-2.8301,-2.8301,-2.8301,-2.8301,-2.8301,-2.8301,-2.8301,-2.8301,-2.8301,-2.8301,-2.8301,-2.8301,-2.8301,-2.831,-2.831,-2.831,-2.8408,-2.8398,-2.8418,-2.8379,-2.8467,-2.8594,-2.8613,-2.8672,-2.8603,-2.8398,-2.833,-2.833,-2.8232,-4.1078,-4.1359,-4.227,-4.209,-4.1343,-4.145,-4.0383,-3.8497,-3.7313,-3.5904,-3.4421,-3.3391,-3.2385,-3.1395,-3.1527,-3.1373,-3.1281,-3.2048,-3.2745,-3.3158,-3.3767,-3.4664,-3.5476,-3.5955,-3.648,-3.7127,-3.7382,-3.7677,-3.7991,-3.8008,-3.7601,-3.6808,-3.6483,-3.5729,-3.4527,-3.3812,-3.2937,-3.1633,-3.0523,-2.985,-2.9257,-2.8672,-2.8305,-2.8207,-2.8125,-2.79,-2.75,-2.7178,-2.6953,-2.6728,-2.668,-2.6629,-2.658,-2.6621,-2.6602,-2.6602,-2.6631,-2.665,-2.665,-2.6641,-2.666,-2.668,-2.6748,-2.6846,-2.6855,-2.6943,-2.7168,-2.7402,-2.7689,-2.7855,-2.8066,-2.8223,-2.8291,-2.8301,-2.8301,-2.8301,-2.8301,-2.8301,-2.8301,-2.8301,-2.8301,-2.8301,-2.8301,-2.8301,-2.8301,-2.8301,-2.8301,-2.8301,-2.8301,-2.8301,-2.8301,-2.8301,-2.8301,-2.8301,-2.8301,-2.8301,-2.8301,-2.8301,-2.831,-2.834,-2.834,-2.835,-2.8525,-2.8672,-2.8779,-2.8789,-2.9062,-2.9287,-2.9228,-2.9053,-2.9092,-2.9004,-2.8818,-2.875,-2.8555,-4.071,-4.0984,-4.1767,-4.1578,-4.0763,-4.0585,-3.9425,-3.7658,-3.6416,-3.5051,-3.3779,-3.2996,-3.215,-3.127,-3.1476,-3.1476,-3.1281,-3.2088,-3.2757,-3.3308,-3.3904,-3.4738,-3.5464,-3.5872,-3.6497,-3.7281,-3.7432,-3.7649,-3.7886,-3.7918,-3.7334,-3.6592,-3.6102,-3.54,-3.4323,-3.3482,-3.2637,-3.1615,-3.0636,-2.9968,-2.9475,-2.8898,-2.8594,-2.8506,-2.8418,-2.8154,-2.791,-2.7685,-2.7412,-2.7119,-2.7002,-2.7012,-2.7012,-2.7012,-2.7012,-2.7012,-2.7012,-2.7002,-2.7012,-2.7012,-2.7012,-2.7051,-2.7158,-2.7285,-2.7334,-2.7432,-2.7705,-2.7891,-2.793,-2.8057,-2.8223,-2.8301,-2.8301,-2.8301,-2.8301,-2.8301,-2.8301,-2.8301,-2.8301,-2.8301,-2.8301,-2.8301,-2.8301,-2.8301,-2.8301,-2.8301,-2.8301,-2.8301,-2.8301,-2.8301,-2.8301,-2.8301,-2.8301,-2.8301,-2.8301,-2.8301,-2.835,-2.835,-2.8496,-2.8486,-2.8613,-2.8623,-2.8809,-2.9043,-2.9131,-2.9277,-2.9541,-2.9678,-2.9492,-2.9414,-2.956,-2.9531,-2.9297,-2.9189,-2.8975,-4.0126,-4.0418,-4.0997,-4.0816,-4.0256,-3.9808,-3.8788,-3.7088,-3.5904,-3.4565,-3.3408,-3.2757,-3.215,-3.1333,-3.168,-3.1669,-3.1669,-3.2342,-3.2958,-3.3592,-3.4282,-3.5077,-3.5648,-3.5901,-3.6601,-3.7419,-3.7355,-3.7587,-3.7802,-3.7667,-3.7036,-3.6266,-3.5653,-3.4891,-3.4009,-3.3176,-3.2174,-3.1398,-3.0857,-3.0327,-2.9731,-2.9228,-2.9004,-2.8945,-2.8603,-2.8379,-2.8271,-2.8184,-2.792,-2.7207,-2.7148,-2.7226,-2.7207,-2.7178,-2.7197,-2.7236,-2.7285,-2.7266,-2.7187,-2.7266,-2.7207,-2.7305,-2.7568,-2.7777,-2.7836,-2.7988,-2.8174,-2.8203,-2.8291,-2.8262,-2.8281,-2.8301,-2.8301,-2.8301,-2.8301,-2.8301,-2.8301,-2.8301,-2.8301,-2.8301,-2.8301,-2.8301,-2.8301,-2.8301,-2.8301,-2.8301,-2.8301,-2.8301,-2.8301,-2.8301,-2.8301,-2.8301,-2.8301,-2.8301,-2.8301,-2.8301,-2.8379,-2.8447,-2.8682,-2.8828,-2.9111,-2.9189,-2.9297,-2.9424,-2.956,-2.9707,-2.9893,-2.9883,-2.9795,-2.9863,-3.0059,-2.9883,-2.9648,-2.9639,-2.9502,-4.0707,-4.077,-4.1136,-4.0811,-4.0109,-3.9749,-3.8596,-3.6872,-3.5941,-3.4837,-3.3638,-3.3042,-3.2499,-3.1867,-3.2177,-3.2179,-3.2155,-3.2898,-3.3519,-3.4247,-3.5194,-3.5683,-3.5966,-3.6076,-3.6641,-3.7381,-3.7533,-3.7673,-3.7748,-3.7239,-3.6538,-3.5872,-3.5113,-3.4356,-3.3681,-3.298,-3.2379,-3.1654,-3.105,-3.051,-3.0106,-2.9658,-2.9414,-2.9355,-2.8994,-2.8633,-2.8359,-2.8301,-2.8203,-2.8066,-2.7998,-2.7959,-2.793,-2.7939,-2.793,-2.793,-2.7959,-2.7978,-2.7988,-2.7939,-2.7998,-2.7949,-2.8008,-2.8164,-2.8164,-2.8242,-2.831,-2.8301,-2.8301,-2.8379,-2.835,-2.831,-2.831,-2.832,-2.8301,-2.8301,-2.8301,-2.8301,-2.8301,-2.8301,-2.8301,-2.8301,-2.8301,-2.8301,-2.8301,-2.8301,-2.8301,-2.8301,-2.8301,-2.8301,-2.8301,-2.8301,-2.8301,-2.8301,-2.833,-2.8379,-2.8535,-2.8711,-2.8965,-2.9219,-2.9502,-2.9726,-2.9814,-2.9912,-3.0019,-3.0166,-3.0293,-3.0449,-3.0439,-3.0508,-3.0498,-3.0312,-3.0156,-3.0117,-2.9941,-4.0542,-4.0529,-4.0833,-4.0564,-4.003,-3.9674,-3.8729,-3.7431,-3.6538,-3.547,-3.445,-3.3919,-3.3446,-3.2971,-3.3241,-3.3344,-3.3538,-3.4162,-3.4831,-3.5392,-3.6094,-3.639,-3.6588,-3.6708,-3.7101,-3.7535,-3.7448,-3.7428,-3.7204,-3.6742,-3.6048,-3.5224,-3.4568,-3.3896,-3.3218,-3.2581,-3.2008,-3.1584,-3.1079,-3.071,-3.0516,-3.0098,-2.9726,-2.9655,-2.9346,-2.9092,-2.8945,-2.8916,-2.8906,-2.8838,-2.8691,-2.8486,-2.833,-2.8301,-2.8301,-2.8301,-2.8301,-2.8301,-2.8291,-2.8301,-2.8271,-2.831,-2.8301,-2.8428,-2.8525,-2.8594,-2.8711,-2.8828,-2.8887,-2.8838,-2.8623,-2.8594,-2.8535,-2.833,-2.831,-2.8301,-2.8301,-2.8301,-2.8301,-2.8301,-2.8301,-2.8301,-2.8301,-2.8301,-2.8301,-2.8301,-2.8301,-2.8301,-2.8301,-2.8301,-2.8301,-2.8301,-2.8301,-2.831,-2.835,-2.8476,-2.8721,-2.9004,-2.9355,-2.9639,-2.9932,-3.0137,-3.0312,-3.0381,-3.043,-3.0557,-3.0693,-3.0869,-3.0898,-3.0791,-3.0703,-3.0684,-3.0635,-3.0527,-3.0293,-4.0032,-4.0083,-4.03,-4.0249,-4.002,-3.9563,-3.8855,-3.8007,-3.7258,-3.6282,-3.5413,-3.5063,-3.4549,-3.4339,-3.4409,-3.4739,-3.5132,-3.5561,-3.6016,-3.6456,-3.6953,-3.719,-3.7363,-3.7604,-3.7731,-3.7688,-3.7489,-3.7174,-3.6769,-3.632,-3.5609,-3.4624,-3.4019,-3.3501,-3.2753,-3.2065,-3.1614,-3.1315,-3.1073,-3.0888,-3.0801,-3.0469,-3.0127,-2.9785,-2.9697,-2.958,-2.9473,-2.9463,-2.9512,-2.9597,-2.9219,-2.8867,-2.8574,-2.832,-2.835,-2.8379,-2.8447,-2.8535,-2.8633,-2.8584,-2.8574,-2.8476,-2.8516,-2.8672,-2.8935,-2.9033,-2.916,-2.9355,-2.9434,-2.9326,-2.9062,-2.9023,-2.8857,-2.8643,-2.8525,-2.8486,-2.8486,-2.8486,-2.8535,-2.8301,-2.8301,-2.8301,-2.8301,-2.8301,-2.8301,-2.831,-2.832,-2.831,-2.832,-2.8301,-2.831,-2.8301,-2.8301,-2.8476,-2.8545,-2.8672,-2.8896,-2.9355,-2.9736,-3.001,-3.0303,-3.0469,-3.0615,-3.0732,-3.082,-3.0869,-3.0869,-3.0889,-3.0898,-3.0898,-3.0869,-3.0801,-3.083,-3.0889,-3.0635,-3.9788,-3.9736,-3.98,-3.9788,-3.9788,-3.9687,-3.9039,-3.8155,-3.7775,-3.6934,-3.5971,-3.5603,-3.5507,-3.538,-3.5385,-3.5706,-3.6185,-3.654,-3.6797,-3.7276,-3.7799,-3.8111,-3.8017,-3.8258,-3.8371,-3.8182,-3.7724,-3.7198,-3.6599,-3.5927,-3.5179,-3.4401,-3.3491,-3.2856,-3.2467,-3.1893,-3.1383,-3.1276,-3.1064,-3.0898,-3.0859,-3.0762,-3.0527,-3.0146,-3.0107,-2.9961,-2.9753,-2.9665,-2.958,-2.957,-2.9492,-2.9424,-2.9209,-2.8721,-2.8574,-2.874,-2.8818,-2.8926,-2.915,-2.9287,-2.9336,-2.9365,-2.9277,-2.9307,-2.9424,-2.9463,-2.956,-2.9675,-2.9724,-2.957,-2.9492,-2.9463,-2.9489,-2.9401,-2.9323,-2.9258,-2.9277,-2.9219,-2.8994,-2.8594,-2.8437,-2.8398,-2.8516,-2.8584,-2.8603,-2.8633,-2.8623,-2.8525,-2.8437,-2.8389,-2.835,-2.832,-2.8301,-2.8545,-2.8779,-2.8935,-2.915,-2.9726,-3.0107,-3.0322,-3.0576,-3.0752,-3.0889,-3.0889,-3.0898,-3.0889,-3.0889,-3.0898,-3.0898,-3.0898,-3.0898,-3.0898,-3.0898,-3.0898,-3.0898,-4.0124,-4.0086,-3.9823,-3.9697,-3.9697,-3.9697,-3.934,-3.8755,-3.8563,-3.795,-3.7224,-3.6904,-3.6642,-3.6537,-3.6759,-3.7112,-3.7515,-3.7643,-3.79,-3.8409,-3.8697,-3.8885,-3.8667,-3.8807,-3.8594,-3.825,-3.7679,-3.7036,-3.644,-3.5621,-3.4791,-3.4009,-3.3094,-3.2571,-3.218,-3.1614,-3.1276,-3.1112,-3.1005,-3.0898,-3.0898,-3.0898,-3.0732,-3.0625,-3.0537,-3.0439,-3.0322,-3.0254,-3.0264,-3.0225,-3.0019,-2.9922,-2.9717,-2.9404,-2.9053,-2.9238,-2.9268,-2.9336,-2.9531,-2.958,-2.9607,-2.9616,-2.9646,-2.9697,-2.9824,-2.9902,-2.999,-3.0233,-3.0234,-3.0146,-2.9941,-2.9902,-2.9785,-2.9675,-2.96,-2.9609,-2.96,-2.96,-2.9346,-2.9033,-2.9072,-2.9082,-2.9033,-2.9053,-2.8994,-2.8955,-2.8926,-2.8799,-2.8633,-2.8613,-2.8603,-2.8516,-2.8545,-2.8789,-2.9101,-2.9336,-2.9512,-3.0039,-3.04,-3.0615,-3.0732,-3.0859,-3.0889,-3.0898,-3.0898,-3.0898,-3.0898,-3.0898,-3.0898,-3.0898,-3.0898,-3.0898,-3.0898,-3.0898,-3.0898,-4.0614,-4.0475,-4.0036,-3.9798,-3.971,-3.9697,-3.953,-3.9322,-3.9245,-3.8792,-3.825,-3.8108,-3.7873,-3.7643,-3.7897,-3.8372,-3.8905,-3.8844,-3.9015,-3.921,-3.9351,-3.9349,-3.9258,-3.8998,-3.8671,-3.8421,-3.756,-3.6796,-3.6211,-3.5345,-3.4468,-3.3681,-3.2924,-3.2295,-3.1845,-3.1392,-3.1112,-3.1005,-3.0898,-3.0898,-3.0898,-3.0898,-3.0898,-3.0898,-3.0898,-3.0859,-3.0781,-3.0771,-3.0781,-3.0703,-3.0537,-3.0332,-3.0283,-3.0019,-2.9844,-2.988,-2.9766,-2.9802,-2.9863,-2.9902,-2.998,-2.999,-2.9929,-3.0039,-3.0215,-3.0371,-3.0478,-3.081,-3.084,-3.0703,-3.04,-3.0342,-3.0195,-3.001,-2.9912,-2.9873,-2.9941,-2.998,-3.0019,-2.9853,-2.9824,-2.9668,-2.9502,-2.9365,-2.9277,-2.9277,-2.9248,-2.9219,-2.9072,-2.9062,-2.9014,-2.8867,-2.8887,-2.9101,-2.9414,-2.9785,-3.001,-3.0361,-3.0605,-3.0781,-3.084,-3.0889,-3.0898,-3.0898,-3.0898,-3.0898,-3.0898,-3.0898,-3.0898,-3.0898,-3.0898,-3.0898,-3.0898,-3.0898,-3.0898,-4.0899,-4.0513,-4.0438,-4.0149,-3.9735,-3.9697,-3.953,-3.9322,-3.9322,-3.9114,-3.8684,-3.8684,-3.8631,-3.8566,-3.8566,-3.8893,-3.9166,-3.927,-3.9374,-3.9581,-3.9581,-3.9581,-3.953,-3.9062,-3.885,-3.8611,-3.7685,-3.6862,-3.6248,-3.5257,-3.4278,-3.3512,-3.2592,-3.1845,-3.1787,-3.1286,-3.0937,-3.0889,-3.0898,-3.0898,-3.0898,-3.0898,-3.0898,-3.0898,-3.0898,-3.0898,-3.0898,-3.0898,-3.0898,-3.0879,-3.084,-3.0801,-3.0801,-3.0791,-3.0742,-3.0615,-3.0439,-3.0303,-3.0566,-3.0586,-3.0576,-3.0557,-3.0615,-3.0742,-3.0723,-3.0732,-3.0771,-3.085,-3.0898,-3.0869,-3.0762,-3.0781,-3.0752,-3.0674,-3.0537,-3.0586,-3.0625,-3.0371,-3.041,-3.0459,-3.0371,-3.0059,-2.9805,-2.9668,-2.956,-2.957,-2.958,-2.956,-2.9482,-2.9424,-2.9365,-2.9209,-2.9297,-2.9521,-2.9717,-3.0098,-3.0361,-3.0664,-3.0771,-3.0898,-3.0898,-3.0898,-3.0898,-3.0898,-3.0898,-3.0898,-3.0898,-3.0898,-3.0898,-3.0898,-3.0898,-3.0898,-3.0898,-3.0898,-3.0898,-4.148,-4.0874,-4.0312,-3.9923,-3.971,-3.9697,-3.9633,-3.953,-3.953,-3.9374,-3.9114,-3.9114,-3.9102,-3.905,-3.9102,-3.9258,-3.9478,-3.953,-3.9594,-3.971,-3.971,-3.971,-3.953,-3.9139,-3.8887,-3.8941,-3.8198,-3.7562,-3.6685,-3.5413,-3.4211,-3.3523,-3.2487,-3.1845,-3.173,-3.1228,-3.0947,-3.0898,-3.0898,-3.0898,-3.0898,-3.0898,-3.0898,-3.0898,-3.0898,-3.0898,-3.0898,-3.0898,-3.0898,-3.0898,-3.0898,-3.0898,-3.0889,-3.0889,-3.0879,-3.0869,-3.0713,-3.0693,-3.084,-3.0889,-3.0898,-3.0898,-3.0898,-3.0869,-3.0889,-3.0898,-3.0898,-3.0898,-3.0898,-3.0898,-3.0898,-3.0898,-3.0898,-3.0898,-3.0898,-3.0898,-3.0898,-3.0898,-3.081,-3.0869,-3.0869,-3.0508,-3.0244,-3.0225,-3.0185,-3.0205,-3.0185,-3.0146,-2.9922,-2.9648,-2.958,-2.9502,-2.9697,-2.9961,-3.0137,-3.0391,-3.0576,-3.0801,-3.0801,-3.0898,-3.0898,-3.0898,-3.0898,-3.0898,-3.0898,-3.0898,-3.0898,-3.0898,-3.0898,-3.0898,-3.0898,-3.0898,-3.0898,-3.0898,-3.0898,-4.163,-4.1012,-4.0237,-3.9823,-3.9697,-3.9697,-3.9697,-3.9697,-3.9697,-3.9581,-3.9426,-3.9374,-3.9426,-3.9426,-3.9426,-3.9478,-3.9697,-3.9697,-3.9697,-3.9722,-3.9835,-3.9936,-3.988,-3.9473,-3.9464,-3.9795,-3.8644,-3.7982,-3.7199,-3.5981,-3.4612,-3.3749,-3.2656,-3.2014,-3.1644,-3.1228,-3.0898,-3.0898,-3.0898,-3.0898,-3.0898,-3.0898,-3.0898,-3.0898,-3.0898,-3.0898,-3.0898,-3.0898,-3.0898,-3.0898,-3.0898,-3.0898,-3.0898,-3.0898,-3.0898,-3.0889,-3.082,-3.084,-3.0879,-3.0898,-3.0898,-3.0898,-3.0898,-3.0898,-3.0898,-3.0898,-3.0898,-3.0898,-3.0898,-3.0898,-3.0898,-3.0898,-3.0898,-3.0898,-3.0898,-3.0898,-3.0898,-3.0898,-3.0898,-3.0898,-3.0898,-3.0898,-3.0732,-3.0801,-3.083,-3.085,-3.081,-3.0703,-3.041,-3.0029,-3.0029,-3.0019,-3.0156,-3.0381,-3.0478,-3.0664,-3.085,-3.0898,-3.0898,-3.0898,-3.0898,-3.0898,-3.0898,-3.0898,-3.0889,-3.0898,-3.0898,-3.0898,-3.0898,-3.0898,-3.0898,-3.0898,-3.0898,-3.0898,-3.0898,-4.1025,-4.0563,-4.0475,-4.0136,-3.9697,-3.9697,-3.9697,-3.9697,-3.9697,-3.9697,-3.9645,-3.9645,-3.9645,-3.9645,-3.9633,-3.9645,-3.9697,-3.9697,-3.9772,-3.9936,-4.0174,-4.0413,-4.0352,-4.0294,-4.0237,-4.0184,-3.9248,-3.8391,-3.7713,-3.6738,-3.5352,-3.4259,-3.3145,-3.2335,-3.1854,-3.1465,-3.1162,-3.1094,-3.1084,-3.1045,-3.1016,-3.0986,-3.0947,-3.0928,-3.0908,-3.0898,-3.0898,-3.0898,-3.0898,-3.0898,-3.0898,-3.0898,-3.0898,-3.0898,-3.0898,-3.0898,-3.0898,-3.0898,-3.0898,-3.0898,-3.0898,-3.0898,-3.0898,-3.0898,-3.0898,-3.0898,-3.0898,-3.0898,-3.0898,-3.0898,-3.0898,-3.0898,-3.0898,-3.0898,-3.0898,-3.0898,-3.0898,-3.0898,-3.0898,-3.0898,-3.0898,-3.0898,-3.0898,-3.0898,-3.0898,-3.0898,-3.0898,-3.0791,-3.081,-3.0557,-3.0635,-3.0674,-3.0703,-3.0791,-3.0801,-3.0898,-3.0898,-3.0898,-3.0898,-3.0898,-3.0898,-3.0898,-3.0889,-3.0889,-3.0889,-3.0889,-3.084,-3.0713,-3.0713,-3.084,-3.0898,-3.0898,-3.0898,-3.0898,-3.0898,-4.0714,-4.0488,-4.0162,-3.9885,-3.9697,-3.9697,-3.9697,-3.9697,-3.9697,-3.9697,-3.9697,-3.9697,-3.9697,-3.9697,-3.9697,-3.9697,-3.9747,-4.0086,-4.0162,-4.0375,-4.0648,-4.0924,-4.0926,-4.074,-4.0635,-4.063,-3.981,-3.9103,-3.8676,-3.7498,-3.6393,-3.5193,-3.386,-3.3111,-3.2524,-3.1939,-3.174,-3.1641,-3.1641,-3.166,-3.1621,-3.1387,-3.1279,-3.1269,-3.0957,-3.0908,-3.0898,-3.0898,-3.0898,-3.0898,-3.0898,-3.0898,-3.0898,-3.0898,-3.0898,-3.0898,-3.0898,-3.0898,-3.0898,-3.0898,-3.0898,-3.0898,-3.0898,-3.0898,-3.0898,-3.0898,-3.0898,-3.0898,-3.0898,-3.0898,-3.0898,-3.0898,-3.0898,-3.0898,-3.0898,-3.0898,-3.0898,-3.0898,-3.0898,-3.0898,-3.0898,-3.0898,-3.0898,-3.0898,-3.0898,-3.0898,-3.0898,-3.0898,-3.0898,-3.0898,-3.0898,-3.0898,-3.0898,-3.0898,-3.0898,-3.0898,-3.0898,-3.0898,-3.0898,-3.0889,-3.0889,-3.0889,-3.0889,-3.083,-3.0772,-3.0723,-3.0606,-3.0421,-3.0479,-3.0723,-3.084,-3.0898,-3.0898,-3.083,-3.083,-4.0413,-4.0237,-3.986,-3.9697,-3.9697,-3.9697,-3.9697,-3.9697,-3.9697,-3.9697,-3.9697,-3.9697,-3.9697,-3.9722,-3.991,-3.9961,-4.0136,-4.0475,-4.0701,-4.0965,-4.1266,-4.153,-4.1426,-4.134,-4.1274,-4.1216,-4.0359,-3.9558,-3.9193,-3.8324,-3.7134,-3.5908,-3.4872,-3.4042,-3.3005,-3.2522,-3.2229,-3.2229,-3.2229,-3.2229,-3.208,-3.1875,-3.1719,-3.1699,-3.1465,-3.126,-3.1191,-3.1133,-3.1025,-3.0947,-3.0898,-3.0898,-3.0898,-3.0898,-3.0898,-3.0898,-3.0908,-3.0908,-3.0898,-3.0898,-3.0898,-3.0898,-3.0898,-3.0898,-3.0898,-3.0898,-3.0898,-3.0898,-3.0898,-3.0898,-3.0898,-3.0898,-3.0898,-3.0898,-3.0898,-3.0898,-3.0898,-3.0898,-3.0898,-3.0898,-3.0898,-3.0898,-3.0898,-3.0898,-3.0898,-3.0898,-3.0898,-3.0898,-3.0898,-3.0898,-3.0898,-3.0898,-3.0898,-3.0898,-3.0898,-3.0898,-3.0898,-3.0898,-3.0889,-3.082,-3.0762,-3.0762,-3.0645,-3.046,-3.0352,-3.043,-3.0371,-3.0195,-3.0371,-3.0606,-3.0606,-3.0587,-3.0528,-3.046,-3.0645,-4.0199,-3.9735,-3.971,-3.9697,-3.9697,-3.9697,-3.9697,-3.9697,-3.9697,-3.9697,-3.9697,-3.9697,-3.9747,-3.9848,-4.0224,-4.04,-4.0626,-4.1053,-4.1317,-4.1455,-4.1869,-4.215,-4.2118,-4.1967,-4.1791,-4.1672,-4.0777,-3.9768,-3.9308,-3.8418,-3.7391,-3.6399,-3.5455,-3.4646,-3.3206,-3.2491,-3.2248,-3.2197,-3.2256,-3.2305,-3.2305,-3.2236,-3.2158,-3.2119,-3.1992,-3.1758,-3.1582,-3.1514,-3.1396,-3.1201,-3.1045,-3.1045,-3.1094,-3.1016,-3.1006,-3.1045,-3.1025,-3.0986,-3.0928,-3.0908,-3.0898,-3.0898,-3.0898,-3.0898,-3.0898,-3.0898,-3.0898,-3.0898,-3.0898,-3.0898,-3.0898,-3.0898,-3.0898,-3.0898,-3.0898,-3.0898,-3.0898,-3.0898,-3.0898,-3.0898,-3.0898,-3.0898,-3.0898,-3.0898,-3.0898,-3.0898,-3.0898,-3.0898,-3.0898,-3.0898,-3.0898,-3.0898,-3.0898,-3.0898,-3.0898,-3.0898,-3.0898,-3.0898,-3.083,-3.0704,-3.0577,-3.046,-3.0284,-3.0039,-2.9941,-2.9901,-2.996,-2.996,-2.9891,-2.9705,-3.0049,-3.0098,-3.0098,-3.0157,-3.0333,-3.9873,-3.9697,-3.9697,-3.9697,-3.9697,-3.9697,-3.9697,-3.9697,-3.9697,-3.9697,-3.9697,-3.9697,-3.9948,-4.0224,-4.0463,-4.0764,-4.1141,-4.1605,-4.1882,-4.1957,-4.2464,-4.2635,-4.2618,-4.2289,-4.211,-4.1757,-4.0872,-3.9919,-3.9308,-3.8649,-3.7561,-3.6545,-3.549,-3.4583,-3.3937,-3.3371,-3.3008,-3.3008,-3.3018,-3.3008,-3.2949,-3.2734,-3.2588,-3.2568,-3.2363,-3.2148,-3.1973,-3.1953,-3.1826,-3.1621,-3.1465,-3.1416,-3.1533,-3.1504,-3.1435,-3.1611,-3.1709,-3.1582,-3.1328,-3.1113,-3.0898,-3.0908,-3.0898,-3.0898,-3.0898,-3.0898,-3.0898,-3.0898,-3.0898,-3.0898,-3.0898,-3.0898,-3.0898,-3.0898,-3.0898,-3.0898,-3.0898,-3.0898,-3.0898,-3.0898,-3.0898,-3.0898,-3.0898,-3.0898,-3.0898,-3.0898,-3.0898,-3.0898,-3.0898,-3.0898,-3.0898,-3.0898,-3.0898,-3.0898,-3.0898,-3.0898,-3.0889,-3.083,-3.0704,-3.0518,-3.0333,-3.0157,-2.9981,-2.9745,-2.9587,-2.9428,-2.9309,-2.919,-2.8815,-2.8746,-2.9153,-2.9568,-2.9745,-2.9922,-3.0157,-3.9697,-3.9697,-3.9697,-3.9697,-3.9697,-3.9697,-3.9697,-3.9697,-3.971,-3.9785,-3.9961,-3.9998,-4.0287,-4.0727,-4.1028,-4.1191,-4.1681,-4.2183,-4.2489,-4.2539,-4.276,-4.2898,-4.2781,-4.2475,-4.2327,-4.1952,-4.1171,-4.0222,-3.9928,-3.9209,-3.8077,-3.6699,-3.519,-3.459,-3.4103,-3.3717,-3.335,-3.332,-3.3301,-3.332,-3.3271,-3.3164,-3.3008,-3.2949,-3.2783,-3.2559,-3.2441,-3.2373,-3.2314,-3.2148,-3.1992,-3.1885,-3.2012,-3.1992,-3.1894,-3.209,-3.2129,-3.1992,-3.1719,-3.1572,-3.1387,-3.1162,-3.1006,-3.0898,-3.0898,-3.0898,-3.0898,-3.0898,-3.0928,-3.0928,-3.0947,-3.0947,-3.0928,-3.0928,-3.0898,-3.0898,-3.0898,-3.0898,-3.0898,-3.0898,-3.0898,-3.0898,-3.0898,-3.0898,-3.0898,-3.0898,-3.0898,-3.0898,-3.0898,-3.0898,-3.0898,-3.0898,-3.0898,-3.0898,-3.0898,-3.0898,-3.083,-3.0762,-3.0577,-3.0333,-2.9981,-2.9686,-2.9568,-2.94,-2.9053,-2.8705,-2.8594,-2.8346,-2.7855,-2.7915,-2.837,-2.8847,-2.934,-2.9577,-2.9745,-3.9697,-3.9697,-3.9697,-3.9697,-3.9697,-3.9697,-3.9697,-3.971,-3.9735,-4.0036,-4.0475,-4.0501,-4.0852,-4.1392,-4.1869,-4.215,-4.2275,-4.2698,-4.2823,-4.2898,-4.2949,-4.3011,-4.285,-4.2517,-4.2483,-4.2336,-4.172,-4.0863,-4.0659,-3.9506,-3.8306,-3.7062,-3.5455,-3.4871,-3.4495,-3.4053,-3.3696,-3.3603,-3.3564,-3.3574,-3.3545,-3.3418,-3.331,-3.3262,-3.3203,-3.3037,-3.291,-3.2812,-3.2627,-3.2432,-3.2226,-3.2226,-3.2287,-3.2197,-3.2197,-3.2236,-3.2285,-3.2207,-3.2168,-3.208,-3.1865,-3.1543,-3.124,-3.1035,-3.0967,-3.1045,-3.1113,-3.1152,-3.1211,-3.1113,-3.1045,-3.1025,-3.0996,-3.0967,-3.0918,-3.0908,-3.0898,-3.0898,-3.0898,-3.0898,-3.0898,-3.0898,-3.0898,-3.0898,-3.0898,-3.0898,-3.0898,-3.0898,-3.0898,-3.0898,-3.0898,-3.0898,-3.0898,-3.0898,-3.0898,-3.0898,-3.0762,-3.0635,-3.0401,-3.0157,-2.9745,-2.9272,-2.9103,-2.8865,-2.8337,-2.8046,-2.7806,-2.7315,-2.6729,-2.6996,-2.7573,-2.8131,-2.8618,-2.8984,-2.9222,-3.9697,-3.9697,-3.9697,-3.9697,-3.9697,-3.9697,-3.9697,-3.9735,-4.0086,-4.0413,-4.0538,-4.094,-4.1404,-4.1932,-4.2137,-4.2439,-4.266,-4.2873,-4.2936,-4.2999,-4.3049,-4.3081,-4.3029,-4.2848,-4.2788,-4.2552,-4.2042,-4.1364,-4.0754,-3.9563,-3.826,-3.7076,-3.5904,-3.5426,-3.5031,-3.4705,-3.4269,-3.3975,-3.3926,-3.3887,-3.3799,-3.3662,-3.3564,-3.3486,-3.3476,-3.334,-3.3242,-3.3193,-3.3066,-3.3037,-3.2744,-3.2715,-3.3047,-3.2812,-3.2676,-3.2998,-3.2851,-3.2617,-3.2568,-3.2344,-3.2129,-3.2031,-3.1826,-3.1621,-3.1465,-3.1387,-3.1475,-3.1533,-3.1601,-3.1572,-3.1504,-3.1445,-3.1377,-3.1318,-3.1221,-3.1094,-3.1074,-3.1006,-3.0996,-3.0898,-3.0898,-3.0898,-3.0898,-3.0898,-3.0898,-3.0898,-3.0898,-3.0898,-3.0898,-3.0898,-3.0898,-3.0898,-3.0898,-3.0898,-3.0898,-3.0898,-3.0704,-3.0509,-3.0274,-2.9981,-2.9509,-2.9103,-2.8746,-2.8346,-2.8004,-2.7513,-2.7004,-2.6443,-2.5935,-2.6236,-2.6796,-2.7349,-2.79,-2.8328,-2.8755,-3.9581,-3.9697,-3.9697,-3.9697,-3.9697,-3.9697,-3.9798,-4.0049,-4.0375,-4.0701,-4.1178,-4.1517,-4.1969,-4.2421,-4.2564,-4.266,-4.2936,-4.2949,-4.2986,-4.3024,-4.3225,-4.3249,-4.3283,-4.3225,-4.3195,-4.2844,-4.2345,-4.1677,-4.0899,-3.9358,-3.7901,-3.7311,-3.6357,-3.5856,-3.5436,-3.5113,-3.49,-3.4629,-3.4463,-3.4365,-3.4209,-3.4043,-3.3906,-3.3701,-3.3682,-3.3603,-3.3447,-3.3437,-3.3428,-3.3418,-3.3105,-3.3144,-3.3379,-3.3164,-3.3086,-3.332,-3.3203,-3.3057,-3.3008,-3.2861,-3.2627,-3.2461,-3.2412,-3.2275,-3.207,-3.1934,-3.1963,-3.2002,-3.208,-3.2109,-3.2031,-3.1953,-3.1865,-3.1777,-3.1562,-3.1357,-3.126,-3.1172,-3.1064,-3.0928,-3.0898,-3.0898,-3.0898,-3.0898,-3.0898,-3.0898,-3.0898,-3.0898,-3.0898,-3.0898,-3.0898,-3.0898,-3.0898,-3.0898,-3.0898,-3.0889,-3.0645,-3.0392,-3.0098,-2.9804,-2.9331,-2.8797,-2.8328,-2.8004,-2.7678,-2.7168,-2.6648,-2.5843,-2.5367,-2.579,-2.6197,-2.6744,-2.7358,-2.79,-2.8328,-3.9413,-3.9645,-3.9697,-3.9697,-3.9697,-3.976,-4.0086,-4.0563,-4.0689,-4.1204,-4.2037,-4.225,-4.2527,-4.2798,-4.2861,-4.2873,-4.3037,-4.3087,-4.32,-4.3099,-4.3538,-4.3692,-4.3618,-4.3548,-4.3481,-4.3141,-4.2532,-4.1702,-4.099,-3.9498,-3.7976,-3.7443,-3.6436,-3.5856,-3.5597,-3.5493,-3.5371,-3.5293,-3.5059,-3.4883,-3.4756,-3.4658,-3.4531,-3.4199,-3.4072,-3.3965,-3.3623,-3.3486,-3.3457,-3.3437,-3.3408,-3.3389,-3.3389,-3.3389,-3.3398,-3.3398,-3.335,-3.333,-3.331,-3.3223,-3.3105,-3.2949,-3.2842,-3.2803,-3.2646,-3.2373,-3.2344,-3.25,-3.2598,-3.2607,-3.2549,-3.2373,-3.2236,-3.2139,-3.1973,-3.1777,-3.1631,-3.1455,-3.1191,-3.1045,-3.0898,-3.0898,-3.0898,-3.0898,-3.0898,-3.0898,-3.0898,-3.0898,-3.0928,-3.0928,-3.0937,-3.0928,-3.0898,-3.0898,-3.0898,-3.083,-3.0577,-3.0274,-3.0039,-2.9745,-2.939,-2.8677,-2.784,-2.7634,-2.7479,-2.6917,-2.6336,-2.5676,-2.5415,-2.557,-2.5961,-2.6258,-2.6805,-2.7539,-2.796,-3.931,-3.9426,-3.9645,-3.9697,-3.976,-4.0136,-4.0626,-4.1125,-4.1605,-4.1936,-4.225,-4.2572,-4.2823,-4.2949,-4.3037,-4.3049,-4.3087,-4.3451,-4.3576,-4.3676,-4.4019,-4.414,-4.4075,-4.3782,-4.3624,-4.3355,-4.2632,-4.1422,-4.0148,-3.8929,-3.8051,-3.7499,-3.6676,-3.614,-3.6016,-3.5926,-3.5791,-3.5771,-3.5664,-3.541,-3.5234,-3.4883,-3.4609,-3.4551,-3.4512,-3.4326,-3.4062,-3.3916,-3.3711,-3.3516,-3.3437,-3.3408,-3.3418,-3.3437,-3.3428,-3.3418,-3.3467,-3.3467,-3.3418,-3.3418,-3.332,-3.3301,-3.3232,-3.3262,-3.3135,-3.2832,-3.2754,-3.2959,-3.3066,-3.3047,-3.2988,-3.2783,-3.2617,-3.251,-3.2412,-3.2226,-3.2031,-3.1699,-3.1377,-3.1182,-3.0996,-3.0957,-3.0976,-3.0957,-3.0898,-3.0898,-3.0898,-3.0918,-3.0996,-3.1035,-3.1045,-3.1025,-3.0918,-3.0898,-3.0898,-3.083,-3.0645,-3.0401,-3.0157,-2.9804,-2.939,-2.8677,-2.7969,-2.7556,-2.7263,-2.6778,-2.6413,-2.5986,-2.5733,-2.5733,-2.6031,-2.6449,-2.6935,-2.7608,-2.7848,-3.8945,-3.9322,-3.9594,-3.9697,-3.9785,-4.0275,-4.0827,-4.1326,-4.1919,-4.2351,-4.259,-4.2836,-4.2986,-4.3074,-4.3212,-4.3338,-4.3438,-4.3915,-4.4104,-4.4227,-4.4369,-4.4447,-4.4303,-4.3953,-4.3579,-4.3212,-4.187,-4.0549,-3.9199,-3.8538,-3.794,-3.7213,-3.6664,-3.6393,-3.6336,-3.6084,-3.6025,-3.6016,-3.6025,-3.5879,-3.5654,-3.54,-3.5137,-3.5107,-3.4941,-3.4746,-3.4512,-3.4355,-3.4219,-3.4062,-3.4043,-3.4043,-3.4062,-3.4072,-3.3916,-3.3789,-3.3711,-3.3633,-3.3516,-3.3467,-3.3476,-3.3496,-3.3447,-3.3398,-3.3369,-3.3096,-3.3086,-3.3262,-3.3271,-3.3262,-3.3252,-3.3105,-3.3076,-3.3008,-3.292,-3.2793,-3.2471,-3.21,-3.1875,-3.1728,-3.1611,-3.1611,-3.1621,-3.1631,-3.1592,-3.1582,-3.1484,-3.1406,-3.1406,-3.1279,-3.126,-3.1201,-3.1133,-3.0967,-3.0898,-3.083,-3.0762,-3.046,-3.0264,-2.9823,-2.9368,-2.8755,-2.8157,-2.7737,-2.7315,-2.6891,-2.6527,-2.623,-2.5978,-2.597,-2.6266,-2.6692,-2.7185,-2.7728,-2.8148,-3.8514,-3.9258,-3.9581,-3.9747,-3.9885,-4.04,-4.0899,-4.1492,-4.2032,-4.259,-4.2924,-4.3049,-4.3074,-4.3263,-4.3539,-4.3752,-4.4066,-4.4518,-4.4694,-4.4719,-4.4861,-4.469,-4.4403,-4.407,-4.3244,-4.2166,-4.096,-3.967,-3.8447,-3.7971,-3.7482,-3.6664,-3.6393,-3.6258,-3.6084,-3.6025,-3.6025,-3.6025,-3.6025,-3.6025,-3.6016,-3.6025,-3.5742,-3.5557,-3.5439,-3.5234,-3.4941,-3.4785,-3.4775,-3.4639,-3.4551,-3.4531,-3.4531,-3.4492,-3.4375,-3.4219,-3.4141,-3.3984,-3.3799,-3.375,-3.3711,-3.3652,-3.3574,-3.3555,-3.3564,-3.3525,-3.3516,-3.3437,-3.3447,-3.3418,-3.3418,-3.3398,-3.3389,-3.3379,-3.331,-3.3193,-3.2803,-3.2461,-3.2334,-3.2258,-3.2139,-3.2129,-3.2139,-3.2229,-3.2238,-3.2187,-3.2187,-3.2229,-3.208,-3.1855,-3.1719,-3.1611,-3.1504,-3.1309,-3.0996,-3.0957,-3.0908,-3.0839,-3.0583,-2.9955,-2.9433,-2.9048,-2.855,-2.79,-2.7478,-2.7263,-2.6952,-2.6761,-2.651,-2.6319,-2.6623,-2.7116,-2.7608,-2.8157,-2.8627,-3.8514,-3.931,-3.9581,-3.9948,-4.0388,-4.0899,-4.1492,-4.2087,-4.2559,-4.2898,-4.3062,-4.3463,-4.3652,-4.3652,-4.3714,-4.4003,-4.4568,-4.5058,-4.5035,-4.5007,-4.502,-4.4793,-4.4216,-4.3446,-4.2154,-4.1089,-4.0127,-3.9276,-3.8037,-3.7492,-3.7069,-3.6529,-3.621,-3.6084,-3.6093,-3.6025,-3.6025,-3.6025,-3.6025,-3.6025,-3.6025,-3.6016,-3.5996,-3.5908,-3.5889,-3.5625,-3.5391,-3.5273,-3.5029,-3.4824,-3.4766,-3.4805,-3.4834,-3.4863,-3.4746,-3.4658,-3.459,-3.4473,-3.4316,-3.4248,-3.4219,-3.4258,-3.4219,-3.415,-3.4092,-3.3955,-3.3848,-3.3594,-3.3555,-3.3467,-3.3447,-3.3418,-3.3408,-3.3408,-3.3359,-3.3174,-3.2891,-3.2744,-3.2637,-3.2461,-3.2314,-3.2305,-3.2314,-3.2324,-3.2334,-3.2344,-3.2353,-3.2353,-3.2393,-3.2275,-3.2187,-3.2051,-3.1914,-3.1445,-3.1064,-3.1103,-3.1084,-3.1082,-3.103,-3.0553,-3.0133,-2.9651,-2.9155,-2.8633,-2.8144,-2.7832,-2.7513,-2.7306,-2.7228,-2.7108,-2.722,-2.753,-2.8029,-2.8507,-2.9035]},{"header":{"parameterUnit":"m.s-1","parameterCategory":1,"la1":31.0,"la2":29.5877,"lo1":-88.7671,"lo2":-86.6584,"dy":0.0162,"dx":0.0185,"nx":115,"ny":88,"refTime":"2023-06-17T18:00:00:Z","depth":0,"parameterNumber":3,"parameterNumberName":"V-component_of_WINDS"},"data":[0.0,0.0,0.0,0.0,0.0,0.0,0.0,0.0,0.0,0.0,0.0,0.0,0.0,0.0,0.0,0.0,0.0,0.0,0.0,0.0,0.0,0.0,0.0,0.0,0.0,0.0,0.0,0.0,0.0,0.0,0.0,0.0,0.0,0.0,0.0,0.0,0.0,0.0,0.0,0.0,0.0,-3.7613,-3.7721,-3.7845,-3.7966,-3.8103,-3.8204,0.0,0.0,0.0,0.0,0.0,0.0,0.0,0.0,0.0,0.0,0.0,0.0,0.0,0.0,0.0,0.0,0.0,0.0,0.0,0.0,0.0,0.0,0.0,0.0,0.0,0.0,0.0,0.0,0.0,0.0,0.0,0.0,0.0,0.0,0.0,0.0,0.0,0.0,0.0,0.0,0.0,0.0,0.0,0.0,0.0,0.0,0.0,0.0,0.0,0.0,0.0,0.0,0.0,0.0,0.0,0.0,0.0,0.0,0.0,0.0,0.0,0.0,0.0,0.0,0.0,0.0,0.0,0.0,0.0,0.0,0.0,0.0,0.0,0.0,0.0,0.0,0.0,0.0,0.0,0.0,0.0,0.0,0.0,0.0,0.0,0.0,0.0,0.0,0.0,0.0,0.0,0.0,0.0,0.0,0.0,0.0,0.0,0.0,0.0,0.0,0.0,0.0,0.0,0.0,0.0,0.0,0.0,0.0,0.0,0.0,-3.7576,-3.7613,-3.7845,-3.8001,-3.8086,0.0,0.0,0.0,0.0,0.0,0.0,0.0,0.0,0.0,0.0,0.0,0.0,0.0,0.0,0.0,0.0,0.0,0.0,0.0,0.0,0.0,0.0,0.0,0.0,0.0,0.0,0.0,0.0,0.0,0.0,0.0,0.0,0.0,0.0,0.0,0.0,0.0,0.0,0.0,0.0,0.0,0.0,0.0,0.0,0.0,0.0,0.0,0.0,0.0,0.0,0.0,0.0,0.0,0.0,0.0,0.0,0.0,0.0,0.0,0.0,0.0,0.0,0.0,0.0,0.0,0.0,0.0,0.0,0.0,0.0,0.0,0.0,0.0,0.0,0.0,0.0,0.0,0.0,0.0,0.0,0.0,0.0,0.0,0.0,0.0,0.0,0.0,0.0,0.0,0.0,0.0,0.0,0.0,0.0,0.0,0.0,0.0,0.0,0.0,0.0,0.0,0.0,0.0,0.0,0.0,0.0,0.0,0.0,0.0,0.0,-3.7279,-3.7577,-3.7685,-3.7775,-3.7933,0.0,0.0,0.0,0.0,0.0,0.0,0.0,0.0,0.0,0.0,0.0,0.0,0.0,0.0,0.0,0.0,0.0,0.0,0.0,0.0,0.0,0.0,0.0,0.0,0.0,0.0,0.0,0.0,0.0,0.0,0.0,0.0,0.0,0.0,0.0,0.0,0.0,0.0,0.0,0.0,0.0,0.0,0.0,0.0,0.0,0.0,0.0,0.0,0.0,0.0,0.0,0.0,0.0,0.0,0.0,0.0,0.0,0.0,0.0,0.0,0.0,0.0,0.0,0.0,0.0,0.0,0.0,0.0,0.0,0.0,0.0,0.0,0.0,0.0,0.0,0.0,0.0,0.0,0.0,0.0,0.0,0.0,0.0,0.0,0.0,0.0,0.0,0.0,0.0,0.0,0.0,0.0,0.0,0.0,0.0,0.0,0.0,0.0,0.0,0.0,0.0,0.0,0.0,0.0,0.0,0.0,0.0,0.0,0.0,0.0,-3.7087,-3.7317,-3.7448,-3.7594,-3.7757,-3.7775,0.0,0.0,0.0,0.0,0.0,0.0,0.0,0.0,0.0,0.0,0.0,0.0,0.0,0.0,0.0,0.0,0.0,0.0,0.0,0.0,0.0,0.0,0.0,0.0,0.0,0.0,0.0,0.0,0.0,0.0,0.0,0.0,0.0,0.0,0.0,0.0,0.0,0.0,0.0,0.0,0.0,0.0,0.0,0.0,0.0,0.0,0.0,0.0,0.0,0.0,0.0,0.0,0.0,0.0,0.0,0.0,0.0,0.0,0.0,0.0,0.0,0.0,0.0,0.0,0.0,0.0,0.0,0.0,0.0,0.0,0.0,0.0,0.0,0.0,0.0,0.0,0.0,0.0,0.0,0.0,0.0,0.0,0.0,0.0,0.0,0.0,0.0,0.0,0.0,0.0,0.0,0.0,0.0,0.0,0.0,0.0,0.0,0.0,0.0,0.0,0.0,0.0,0.0,0.0,0.0,0.0,0.0,0.0,0.0,-3.693,-3.6989,-3.7222,-3.7411,-3.7522,-3.7522,0.0,0.0,0.0,0.0,0.0,0.0,0.0,0.0,0.0,0.0,0.0,0.0,0.0,0.0,0.0,0.0,0.0,0.0,0.0,0.0,0.0,0.0,0.0,0.0,0.0,0.0,0.0,0.0,0.0,0.0,0.0,0.0,0.0,0.0,0.0,0.0,0.0,0.0,0.0,0.0,0.0,0.0,0.0,0.0,0.0,0.0,0.0,0.0,0.0,0.0,0.0,0.0,0.0,0.0,0.0,0.0,0.0,0.0,0.0,0.0,0.0,0.0,0.0,0.0,0.0,0.0,0.0,0.0,0.0,0.0,0.0,0.0,0.0,0.0,0.0,0.0,0.0,0.0,0.0,0.0,0.0,0.0,0.0,0.0,0.0,0.0,0.0,0.0,0.0,0.0,0.0,0.0,0.0,0.0,0.0,0.0,0.0,0.0,0.0,0.0,0.0,0.0,0.0,0.0,0.0,0.0,0.0,0.0,0.0,-3.667,-3.6829,-3.6989,-3.7106,-3.7203,-3.7204,0.0,0.0,0.0,0.0,0.0,0.0,0.0,0.0,0.0,0.0,0.0,0.0,0.0,0.0,0.0,0.0,0.0,0.0,0.0,0.0,0.0,0.0,0.0,0.0,0.0,0.0,0.0,0.0,0.0,0.0,0.0,0.0,0.0,0.0,0.0,0.0,0.0,0.0,0.0,0.0,0.0,0.0,0.0,0.0,0.0,0.0,0.0,0.0,0.0,0.0,0.0,0.0,0.0,0.0,0.0,0.0,0.0,0.0,0.0,0.0,0.0,0.0,0.0,0.0,0.0,0.0,0.0,0.0,0.0,0.0,0.0,0.0,0.0,0.0,0.0,0.0,0.0,0.0,0.0,0.0,0.0,0.0,0.0,0.0,0.0,0.0,0.0,0.0,0.0,0.0,0.0,0.0,0.0,0.0,0.0,0.0,0.0,0.0,0.0,0.0,0.0,0.0,0.0,0.0,0.0,0.0,0.0,0.0,0.0,-3.6444,-3.655,-3.6748,-3.6906,-3.695,-3.6853,0.0,0.0,0.0,0.0,0.0,0.0,0.0,0.0,0.0,0.0,0.0,0.0,0.0,0.0,0.0,0.0,0.0,0.0,0.0,0.0,0.0,0.0,0.0,0.0,0.0,0.0,0.0,0.0,0.0,0.0,0.0,0.0,0.0,0.0,0.0,0.0,0.0,0.0,0.0,0.0,0.0,0.0,0.0,0.0,0.0,0.0,0.0,0.0,0.0,0.0,0.0,0.0,0.0,0.0,0.0,0.0,0.0,0.0,0.0,0.0,0.0,0.0,0.0,0.0,0.0,0.0,0.0,0.0,0.0,0.0,0.0,0.0,0.0,0.0,0.0,0.0,0.0,0.0,0.0,0.0,0.0,0.0,0.0,0.0,0.0,0.0,0.0,0.0,0.0,0.0,0.0,0.0,0.0,0.0,0.0,0.0,0.0,0.0,0.0,0.0,0.0,0.0,0.0,0.0,0.0,0.0,0.0,0.0,-3.6152,-3.6237,-3.6259,-3.6482,-3.6623,-3.665,-3.6523,0.0,0.0,0.0,0.0,0.0,0.0,0.0,0.0,0.0,0.0,0.0,0.0,0.0,0.0,0.0,0.0,0.0,0.0,0.0,0.0,0.0,0.0,0.0,0.0,0.0,0.0,0.0,0.0,0.0,0.0,0.0,0.0,0.0,0.0,0.0,0.0,0.0,0.0,0.0,0.0,0.0,0.0,0.0,0.0,0.0,0.0,0.0,0.0,0.0,0.0,0.0,0.0,0.0,0.0,0.0,0.0,0.0,0.0,0.0,0.0,0.0,0.0,0.0,0.0,0.0,0.0,0.0,0.0,0.0,0.0,0.0,0.0,0.0,0.0,0.0,0.0,0.0,0.0,0.0,0.0,0.0,0.0,0.0,0.0,0.0,0.0,0.0,0.0,0.0,0.0,0.0,0.0,0.0,0.0,0.0,0.0,0.0,0.0,0.0,0.0,0.0,0.0,0.0,0.0,0.0,0.0,0.0,-3.5861,-3.5971,-3.6041,-3.6023,-3.6204,-3.6208,-3.6105,-3.6084,0.0,0.0,0.0,0.0,0.0,0.0,0.0,0.0,0.0,0.0,0.0,0.0,0.0,0.0,0.0,0.0,0.0,0.0,0.0,0.0,0.0,0.0,0.0,0.0,0.0,0.0,0.0,0.0,0.0,0.0,0.0,0.0,0.0,0.0,0.0,0.0,0.0,0.0,0.0,0.0,0.0,0.0,0.0,0.0,0.0,0.0,0.0,0.0,0.0,0.0,0.0,0.0,0.0,0.0,0.0,0.0,0.0,0.0,0.0,0.0,0.0,0.0,0.0,0.0,0.0,0.0,0.0,0.0,0.0,0.0,0.0,0.0,0.0,0.0,0.0,0.0,0.0,0.0,0.0,0.0,0.0,0.0,0.0,0.0,0.0,0.0,0.0,0.0,0.0,0.0,0.0,0.0,0.0,0.0,0.0,0.0,0.0,0.0,0.0,0.0,0.0,0.0,0.0,0.0,0.0,0.0,-3.5728,-3.5656,-3.5667,-3.5672,-3.5689,-3.5734,-3.5739,-3.5672,-3.556,0.0,0.0,0.0,0.0,0.0,0.0,0.0,0.0,0.0,0.0,0.0,0.0,0.0,0.0,0.0,0.0,0.0,0.0,0.0,0.0,0.0,0.0,0.0,0.0,0.0,0.0,0.0,0.0,0.0,0.0,0.0,0.0,0.0,0.0,0.0,0.0,0.0,0.0,0.0,0.0,0.0,0.0,0.0,0.0,0.0,0.0,0.0,0.0,0.0,0.0,0.0,0.0,0.0,0.0,0.0,0.0,0.0,0.0,0.0,0.0,0.0,0.0,0.0,0.0,0.0,0.0,0.0,0.0,0.0,0.0,0.0,0.0,0.0,0.0,0.0,0.0,0.0,0.0,0.0,0.0,0.0,0.0,0.0,0.0,0.0,0.0,0.0,0.0,0.0,0.0,0.0,0.0,0.0,0.0,0.0,0.0,0.0,0.0,0.0,0.0,0.0,0.0,0.0,0.0,0.0,0.0,-3.5543,-3.5423,-3.535,-3.5287,-3.5241,-3.5241,-3.5218,-3.5148,0.0,0.0,0.0,0.0,0.0,0.0,0.0,0.0,0.0,0.0,0.0,0.0,0.0,0.0,0.0,0.0,0.0,0.0,0.0,0.0,0.0,0.0,0.0,0.0,0.0,0.0,0.0,0.0,0.0,0.0,0.0,0.0,0.0,0.0,0.0,0.0,0.0,0.0,0.0,0.0,0.0,0.0,0.0,0.0,0.0,0.0,0.0,0.0,0.0,0.0,0.0,0.0,0.0,0.0,0.0,0.0,0.0,0.0,0.0,0.0,0.0,0.0,0.0,0.0,0.0,0.0,0.0,0.0,0.0,0.0,0.0,0.0,0.0,0.0,0.0,0.0,0.0,0.0,0.0,0.0,0.0,0.0,0.0,0.0,0.0,0.0,0.0,0.0,0.0,0.0,0.0,0.0,0.0,0.0,0.0,0.0,0.0,0.0,0.0,0.0,0.0,0.0,0.0,0.0,0.0,0.0,0.0,-3.536,-3.5175,-3.5135,-3.5018,-3.4763,-3.4763,-3.4643,-3.4423,0.0,0.0,0.0,0.0,0.0,0.0,0.0,0.0,0.0,0.0,0.0,0.0,0.0,0.0,0.0,0.0,0.0,0.0,0.0,0.0,0.0,0.0,0.0,0.0,0.0,0.0,0.0,0.0,0.0,0.0,0.0,0.0,0.0,0.0,0.0,0.0,0.0,0.0,0.0,0.0,0.0,0.0,0.0,0.0,0.0,0.0,0.0,0.0,0.0,0.0,0.0,0.0,0.0,0.0,0.0,0.0,0.0,0.0,0.0,0.0,0.0,0.0,0.0,0.0,0.0,0.0,0.0,0.0,0.0,0.0,0.0,0.0,0.0,0.0,0.0,0.0,0.0,0.0,0.0,0.0,0.0,0.0,0.0,0.0,0.0,0.0,0.0,0.0,0.0,0.0,0.0,0.0,0.0,0.0,0.0,0.0,0.0,0.0,0.0,0.0,0.0,0.0,0.0,0.0,0.0,0.0,-3.5274,-3.5034,-3.4756,-3.457,-3.4423,-3.4226,-3.3958,-3.3672,-3.3423,0.0,0.0,0.0,0.0,0.0,0.0,0.0,0.0,0.0,0.0,0.0,0.0,0.0,0.0,0.0,0.0,0.0,0.0,0.0,0.0,0.0,0.0,0.0,0.0,0.0,0.0,0.0,0.0,0.0,0.0,0.0,0.0,0.0,0.0,0.0,0.0,0.0,0.0,0.0,0.0,0.0,0.0,0.0,0.0,0.0,0.0,0.0,0.0,0.0,0.0,0.0,0.0,0.0,0.0,0.0,0.0,0.0,0.0,0.0,0.0,0.0,0.0,0.0,0.0,0.0,0.0,0.0,0.0,0.0,0.0,0.0,0.0,0.0,0.0,0.0,0.0,0.0,0.0,0.0,0.0,0.0,0.0,0.0,0.0,0.0,0.0,0.0,0.0,0.0,0.0,0.0,0.0,0.0,0.0,0.0,0.0,0.0,0.0,0.0,0.0,0.0,0.0,0.0,0.0,0.0,-3.5278,-3.489,-3.457,-3.4226,-3.3958,-3.3662,-3.3351,-3.2991,-3.2695,-3.2501,0.0,0.0,0.0,0.0,0.0,0.0,0.0,0.0,0.0,0.0,0.0,0.0,0.0,0.0,0.0,0.0,0.0,0.0,0.0,0.0,0.0,0.0,0.0,0.0,0.0,0.0,0.0,0.0,0.0,0.0,0.0,0.0,0.0,0.0,0.0,0.0,0.0,0.0,0.0,0.0,0.0,0.0,0.0,0.0,0.0,0.0,0.0,0.0,0.0,0.0,0.0,0.0,0.0,0.0,0.0,0.0,0.0,0.0,0.0,0.0,0.0,0.0,0.0,0.0,0.0,0.0,0.0,0.0,0.0,0.0,0.0,0.0,0.0,0.0,0.0,0.0,0.0,0.0,0.0,0.0,0.0,0.0,0.0,0.0,0.0,0.0,0.0,0.0,0.0,0.0,0.0,0.0,0.0,0.0,0.0,0.0,0.0,0.0,0.0,0.0,0.0,0.0,0.0,0.0,0.0,0.0,-3.4448,-3.4059,-3.3555,-3.3203,-3.2691,-3.2015,-3.1849,-3.1764,-3.1736,0.0,0.0,0.0,0.0,0.0,0.0,0.0,0.0,0.0,0.0,0.0,0.0,0.0,0.0,0.0,0.0,0.0,0.0,0.0,0.0,0.0,0.0,0.0,0.0,0.0,0.0,0.0,0.0,0.0,0.0,0.0,0.0,0.0,0.0,0.0,0.0,0.0,0.0,0.0,0.0,0.0,0.0,0.0,0.0,0.0,0.0,0.0,0.0,0.0,0.0,0.0,0.0,0.0,0.0,0.0,0.0,0.0,0.0,0.0,0.0,0.0,0.0,0.0,0.0,0.0,0.0,0.0,0.0,0.0,0.0,0.0,0.0,0.0,0.0,0.0,0.0,0.0,0.0,0.0,0.0,0.0,0.0,0.0,0.0,0.0,0.0,0.0,0.0,0.0,0.0,0.0,0.0,0.0,0.0,0.0,0.0,0.0,0.0,0.0,0.0,0.0,0.0,0.0,0.0,0.0,0.0,-3.3604,-3.3335,-3.2807,-3.2086,-3.1448,-3.0911,-3.0837,-3.0763,-3.0703,0.0,0.0,0.0,0.0,0.0,0.0,0.0,0.0,0.0,0.0,0.0,0.0,0.0,0.0,0.0,0.0,0.0,0.0,0.0,0.0,0.0,0.0,0.0,0.0,0.0,0.0,0.0,0.0,0.0,0.0,0.0,0.0,0.0,0.0,0.0,0.0,0.0,0.0,0.0,0.0,0.0,0.0,0.0,0.0,0.0,0.0,0.0,0.0,0.0,0.0,0.0,0.0,0.0,0.0,0.0,0.0,0.0,0.0,0.0,0.0,0.0,0.0,0.0,0.0,0.0,0.0,0.0,0.0,0.0,0.0,0.0,0.0,0.0,0.0,0.0,0.0,0.0,0.0,0.0,0.0,0.0,0.0,0.0,0.0,0.0,0.0,0.0,0.0,0.0,0.0,0.0,0.0,0.0,0.0,0.0,0.0,0.0,0.0,0.0,0.0,0.0,0.0,0.0,0.0,0.0,0.0,-3.2772,-3.2376,-3.1578,-3.0778,-3.0133,-2.9685,-2.9654,-2.9623,0.0,0.0,0.0,0.0,0.0,0.0,0.0,0.0,0.0,0.0,0.0,0.0,0.0,0.0,0.0,0.0,0.0,0.0,0.0,0.0,0.0,0.0,0.0,0.0,0.0,0.0,0.0,0.0,0.0,0.0,0.0,0.0,0.0,0.0,0.0,0.0,0.0,0.0,0.0,0.0,0.0,0.0,0.0,0.0,0.0,0.0,0.0,0.0,0.0,0.0,0.0,0.0,0.0,0.0,0.0,0.0,0.0,0.0,0.0,0.0,0.0,0.0,0.0,0.0,0.0,0.0,0.0,0.0,0.0,0.0,0.0,0.0,0.0,0.0,0.0,0.0,0.0,0.0,0.0,0.0,0.0,0.0,0.0,0.0,0.0,0.0,0.0,0.0,0.0,0.0,0.0,0.0,0.0,0.0,0.0,0.0,0.0,0.0,0.0,0.0,0.0,0.0,0.0,0.0,0.0,0.0,0.0,-3.1934,-3.1203,-2.9872,-2.9268,-2.8817,-2.8314,-2.8327,-2.8379,0.0,0.0,0.0,0.0,0.0,0.0,0.0,0.0,0.0,0.0,0.0,0.0,0.0,0.0,0.0,0.0,0.0,0.0,0.0,0.0,0.0,0.0,0.0,0.0,0.0,0.0,0.0,0.0,0.0,0.0,0.0,0.0,0.0,0.0,0.0,0.0,0.0,0.0,0.0,0.0,0.0,0.0,0.0,0.0,0.0,0.0,0.0,0.0,0.0,0.0,0.0,0.0,0.0,0.0,0.0,0.0,0.0,0.0,0.0,0.0,0.0,0.0,0.0,0.0,0.0,0.0,0.0,0.0,0.0,0.0,0.0,0.0,0.0,0.0,0.0,0.0,0.0,0.0,0.0,0.0,0.0,0.0,0.0,0.0,0.0,0.0,0.0,0.0,0.0,0.0,0.0,0.0,0.0,0.0,0.0,0.0,0.0,0.0,0.0,0.0,0.0,0.0,0.0,0.0,0.0,0.0,0.0,-2.9789,-2.9323,-2.8904,-2.8518,-2.8208,-2.8014,-2.7833,-2.7752,-2.7931,0.0,0.0,0.0,0.0,0.0,0.0,0.0,0.0,0.0,0.0,0.0,0.0,0.0,0.0,0.0,0.0,0.0,0.0,0.0,0.0,0.0,0.0,0.0,0.0,0.0,0.0,0.0,0.0,0.0,0.0,0.0,0.0,0.0,0.0,0.0,0.0,0.0,0.0,0.0,0.0,0.0,0.0,0.0,0.0,0.0,0.0,0.0,0.0,0.0,0.0,0.0,0.0,0.0,0.0,0.0,0.0,0.0,0.0,0.0,0.0,0.0,0.0,0.0,0.0,0.0,0.0,0.0,0.0,0.0,0.0,0.0,0.0,0.0,0.0,0.0,0.0,0.0,0.0,0.0,0.0,0.0,0.0,0.0,0.0,0.0,0.0,0.0,0.0,0.0,0.0,0.0,0.0,0.0,0.0,0.0,0.0,0.0,0.0,0.0,0.0,0.0,0.0,0.0,0.0,0.0,0.0,-2.8443,-2.8017,-2.7915,-2.7656,-2.7442,-2.7261,-2.7127,-2.7145,-2.7289,0.0,0.0,0.0,0.0,0.0,0.0,0.0,0.0,0.0,0.0,0.0,0.0,0.0,0.0,0.0,0.0,0.0,0.0,0.0,0.0,0.0,0.0,0.0,0.0,0.0,0.0,0.0,0.0,0.0,0.0,0.0,0.0,0.0,0.0,0.0,0.0,0.0,0.0,0.0,0.0,0.0,0.0,0.0,0.0,0.0,0.0,0.0,0.0,0.0,0.0,0.0,0.0,0.0,0.0,0.0,0.0,0.0,0.0,0.0,0.0,0.0,0.0,0.0,0.0,0.0,0.0,0.0,0.0,0.0,0.0,0.0,0.0,0.0,0.0,0.0,0.0,0.0,0.0,0.0,0.0,0.0,0.0,0.0,0.0,0.0,0.0,0.0,0.0,0.0,0.0,0.0,0.0,0.0,0.0,0.0,0.0,0.0,0.0,0.0,0.0,0.0,0.0,0.0,0.0,0.0,0.0,0.0,-2.7274,-2.687,-2.678,-2.6541,-2.622,-2.6391,-2.6508,-2.6614,0.0,0.0,0.0,0.0,0.0,0.0,0.0,0.0,0.0,0.0,0.0,0.0,0.0,0.0,0.0,0.0,0.0,0.0,0.0,0.0,0.0,0.0,0.0,0.0,0.0,0.0,0.0,0.0,0.0,0.0,0.0,0.0,0.0,0.0,0.0,0.0,0.0,0.0,0.0,0.0,0.0,0.0,0.0,0.0,0.0,0.0,0.0,0.0,0.0,0.0,0.0,0.0,0.0,0.0,0.0,0.0,0.0,0.0,0.0,0.0,0.0,0.0,0.0,0.0,0.0,0.0,0.0,0.0,0.0,0.0,0.0,0.0,0.0,0.0,0.0,0.0,0.0,0.0,0.0,0.0,0.0,0.0,0.0,0.0,0.0,0.0,0.0,0.0,0.0,0.0,0.0,0.0,0.0,0.0,0.0,0.0,0.0,0.0,0.0,0.0,0.0,0.0,0.0,0.0,0.0,0.0,-2.8149,-2.7253,-2.6297,-2.5972,-2.5902,-2.5954,-2.6132,-2.6332,-2.6658,0.0,0.0,0.0,0.0,0.0,0.0,0.0,0.0,0.0,0.0,0.0,0.0,0.0,0.0,0.0,0.0,0.0,0.0,0.0,0.0,0.0,0.0,0.0,0.0,0.0,0.0,0.0,0.0,0.0,0.0,0.0,0.0,0.0,0.0,0.0,0.0,0.0,0.0,0.0,0.0,0.0,0.0,0.0,0.0,0.0,0.0,0.0,0.0,0.0,0.0,0.0,0.0,0.0,0.0,0.0,0.0,0.0,0.0,0.0,0.0,0.0,0.0,0.0,0.0,0.0,0.0,0.0,0.0,0.0,0.0,0.0,0.0,0.0,0.0,0.0,0.0,0.0,0.0,0.0,0.0,0.0,0.0,0.0,0.0,0.0,0.0,0.0,0.0,0.0,0.0,0.0,0.0,0.0,0.0,0.0,0.0,0.0,0.0,0.0,0.0,0.0,0.0,0.0,0.0,0.0,0.0,-2.8136,-2.7191,-2.6224,-2.5679,-2.5508,-2.5765,-2.5928,-2.6174,-2.6507,0.0,0.0,0.0,0.0,0.0,0.0,0.0,0.0,0.0,0.0,0.0,0.0,0.0,0.0,0.0,0.0,0.0,0.0,0.0,0.0,0.0,0.0,0.0,0.0,0.0,0.0,0.0,0.0,0.0,0.0,0.0,0.0,0.0,0.0,0.0,0.0,0.0,0.0,0.0,0.0,0.0,0.0,0.0,0.0,0.0,0.0,0.0,0.0,-4.1516,0.0,0.0,0.0,0.0,0.0,0.0,0.0,0.0,0.0,0.0,0.0,0.0,0.0,0.0,0.0,0.0,0.0,0.0,0.0,0.0,0.0,0.0,0.0,0.0,0.0,0.0,0.0,0.0,0.0,0.0,0.0,0.0,0.0,0.0,0.0,0.0,0.0,0.0,0.0,0.0,0.0,0.0,0.0,0.0,0.0,0.0,0.0,0.0,0.0,0.0,0.0,0.0,0.0,0.0,0.0,-3.0756,-2.945,-2.8126,-2.7114,-2.6505,-2.5707,-2.5391,-2.562,-2.5817,-2.608,-2.6508,0.0,0.0,0.0,0.0,0.0,0.0,0.0,0.0,0.0,0.0,0.0,0.0,0.0,0.0,0.0,0.0,0.0,0.0,0.0,0.0,0.0,0.0,0.0,0.0,0.0,0.0,0.0,0.0,0.0,0.0,0.0,0.0,0.0,0.0,0.0,0.0,0.0,0.0,0.0,0.0,0.0,0.0,0.0,0.0,0.0,0.0,0.0,-3.9952,-4.0546,0.0,0.0,0.0,0.0,0.0,0.0,0.0,0.0,0.0,0.0,0.0,0.0,0.0,0.0,0.0,0.0,0.0,0.0,0.0,0.0,0.0,0.0,0.0,0.0,0.0,0.0,0.0,-3.602,0.0,-3.6693,0.0,0.0,0.0,0.0,0.0,0.0,0.0,0.0,0.0,0.0,0.0,0.0,0.0,0.0,0.0,0.0,0.0,0.0,0.0,0.0,0.0,0.0,0.0,0.0,-3.219,-3.1085,-2.9897,-2.8792,-2.7664,-2.6528,-2.6245,-2.5969,-2.5859,-2.5892,-2.6424,-2.7515,0.0,0.0,0.0,0.0,0.0,0.0,0.0,0.0,0.0,0.0,0.0,0.0,0.0,0.0,0.0,0.0,0.0,0.0,0.0,0.0,0.0,0.0,0.0,0.0,0.0,0.0,0.0,0.0,0.0,0.0,0.0,0.0,0.0,0.0,0.0,0.0,0.0,0.0,0.0,0.0,0.0,0.0,0.0,0.0,0.0,0.0,0.0,-3.9226,0.0,0.0,0.0,0.0,0.0,0.0,0.0,0.0,0.0,0.0,0.0,0.0,0.0,0.0,0.0,0.0,0.0,0.0,0.0,0.0,0.0,0.0,0.0,0.0,0.0,0.0,0.0,0.0,-3.602,-3.6226,-3.66,0.0,0.0,0.0,0.0,0.0,0.0,0.0,0.0,0.0,0.0,0.0,0.0,0.0,0.0,0.0,0.0,0.0,0.0,0.0,0.0,0.0,0.0,0.0,-3.3269,-3.2295,-3.1281,-3.0304,-2.9199,-2.8222,-2.7364,-2.6952,-2.6932,-2.7261,-2.7266,-2.7488,-2.8057,0.0,0.0,0.0,0.0,0.0,0.0,0.0,0.0,0.0,0.0,0.0,0.0,0.0,0.0,0.0,0.0,0.0,0.0,0.0,0.0,0.0,0.0,0.0,0.0,0.0,0.0,0.0,0.0,0.0,0.0,0.0,0.0,0.0,0.0,0.0,0.0,0.0,-4.1375,-4.1335,0.0,0.0,0.0,0.0,0.0,0.0,0.0,0.0,-3.8837,-3.8995,0.0,0.0,0.0,0.0,0.0,0.0,0.0,0.0,0.0,0.0,0.0,0.0,0.0,0.0,0.0,0.0,0.0,0.0,0.0,0.0,0.0,0.0,0.0,0.0,0.0,0.0,0.0,-3.602,-3.621,-3.6492,0.0,0.0,0.0,0.0,0.0,0.0,0.0,0.0,0.0,0.0,0.0,0.0,0.0,0.0,0.0,0.0,0.0,0.0,0.0,0.0,0.0,0.0,0.0,-3.3269,-3.2304,-3.1415,-3.057,-2.951,-2.8767,-2.842,-2.7885,-2.8076,-2.8913,-2.9134,-2.9095,-2.8833,0.0,0.0,0.0,0.0,0.0,0.0,0.0,0.0,0.0,0.0,0.0,0.0,0.0,0.0,0.0,0.0,0.0,0.0,0.0,0.0,0.0,0.0,0.0,0.0,0.0,0.0,0.0,0.0,0.0,0.0,0.0,0.0,0.0,0.0,0.0,0.0,0.0,-4.0953,-4.0905,-4.0427,-3.9969,0.0,0.0,0.0,0.0,0.0,0.0,0.0,-3.8572,-3.8578,-3.8991,0.0,0.0,0.0,0.0,0.0,0.0,0.0,0.0,0.0,0.0,0.0,0.0,0.0,0.0,0.0,0.0,0.0,0.0,0.0,0.0,0.0,0.0,0.0,0.0,0.0,-3.602,-3.6195,-3.6492,0.0,0.0,0.0,0.0,0.0,0.0,0.0,0.0,0.0,0.0,0.0,0.0,0.0,0.0,0.0,0.0,0.0,0.0,0.0,0.0,0.0,0.0,0.0,0.0,-3.2475,-3.1553,-3.062,-2.9896,-2.9352,-2.8899,-2.8991,-2.9238,-2.9665,-3.0599,-3.1238,-3.1442,-3.1075,0.0,0.0,0.0,0.0,0.0,0.0,0.0,0.0,0.0,0.0,0.0,0.0,0.0,0.0,0.0,0.0,0.0,0.0,0.0,0.0,0.0,0.0,0.0,0.0,0.0,0.0,0.0,0.0,0.0,0.0,0.0,0.0,0.0,0.0,0.0,0.0,-4.033,-3.9986,-3.9713,-3.9339,-3.8854,0.0,0.0,0.0,0.0,0.0,-3.8858,-3.8776,-3.884,-3.9326,-3.9209,0.0,0.0,0.0,0.0,0.0,0.0,0.0,0.0,0.0,0.0,0.0,0.0,0.0,0.0,0.0,0.0,0.0,0.0,0.0,0.0,0.0,0.0,0.0,0.0,-3.6085,-3.6195,-3.6352,-3.6352,-3.6258,0.0,0.0,0.0,0.0,-3.621,0.0,0.0,0.0,0.0,0.0,0.0,0.0,0.0,0.0,0.0,0.0,0.0,0.0,0.0,0.0,0.0,0.0,-3.2489,-3.169,-3.0848,-3.0471,-3.0154,-2.9883,-3.0206,-3.0539,-3.0954,-3.1756,-3.2389,-3.29,0.0,0.0,0.0,0.0,0.0,0.0,0.0,0.0,0.0,0.0,0.0,0.0,0.0,0.0,0.0,0.0,0.0,0.0,0.0,0.0,0.0,0.0,0.0,0.0,0.0,0.0,0.0,0.0,0.0,0.0,0.0,0.0,0.0,0.0,0.0,0.0,0.0,0.0,-3.9931,-3.9611,-3.9397,-3.9341,-3.8854,-3.8541,-3.8544,-3.829,-3.8294,-3.889,-3.8982,-3.91,-3.959,0.0,0.0,0.0,0.0,0.0,0.0,0.0,0.0,0.0,0.0,0.0,0.0,0.0,0.0,0.0,0.0,0.0,0.0,0.0,0.0,0.0,0.0,0.0,0.0,0.0,0.0,-3.6211,-3.6211,-3.6211,-3.6116,-3.5941,0.0,0.0,0.0,-3.5893,-3.5953,0.0,0.0,0.0,0.0,0.0,0.0,0.0,0.0,0.0,0.0,0.0,0.0,0.0,0.0,0.0,0.0,-3.2489,-3.174,-3.1037,-3.0958,-3.0899,-3.0823,-3.1241,-3.1785,-3.2355,-3.2829,-3.3434,-3.4121,0.0,0.0,0.0,0.0,0.0,0.0,0.0,0.0,0.0,0.0,0.0,0.0,0.0,0.0,0.0,0.0,0.0,0.0,0.0,0.0,0.0,0.0,0.0,0.0,0.0,0.0,0.0,0.0,0.0,0.0,0.0,0.0,0.0,0.0,0.0,0.0,0.0,0.0,0.0,-3.9644,-3.951,-3.9704,-3.9187,-3.8832,-3.8727,-3.8476,-3.8485,-3.91,-3.928,-3.9504,0.0,0.0,0.0,0.0,0.0,0.0,0.0,0.0,0.0,0.0,0.0,0.0,0.0,0.0,0.0,0.0,0.0,0.0,0.0,0.0,0.0,0.0,-3.572,-3.572,0.0,0.0,-3.6196,-3.6211,-3.6211,-3.6211,-3.6006,-3.5752,-3.5752,-3.5686,0.0,-3.5569,-3.5884,-3.6424,0.0,0.0,0.0,0.0,0.0,0.0,0.0,0.0,0.0,0.0,0.0,0.0,0.0,0.0,0.0,0.0,-3.174,-3.105,-3.1126,-3.1126,-3.1096,-3.2005,-3.2885,-3.3639,-3.4147,-3.4796,-3.5526,0.0,0.0,0.0,0.0,0.0,0.0,0.0,0.0,0.0,0.0,0.0,0.0,0.0,0.0,0.0,0.0,0.0,0.0,0.0,0.0,0.0,0.0,0.0,0.0,0.0,-4.0113,0.0,0.0,0.0,0.0,0.0,0.0,0.0,0.0,0.0,0.0,0.0,0.0,0.0,0.0,-3.947,-3.8932,-3.8656,-3.8657,-3.8918,-3.8819,-3.8927,-3.9748,-3.9889,-4.0085,0.0,0.0,0.0,0.0,0.0,0.0,0.0,0.0,0.0,0.0,0.0,0.0,0.0,0.0,0.0,0.0,0.0,0.0,0.0,0.0,0.0,0.0,-3.5863,-3.5863,-3.6068,-3.6352,-3.6242,-3.6148,-3.6085,-3.5975,-3.5799,-3.5604,-3.5604,-3.5749,-3.6043,-3.6058,-3.6402,-3.7015,0.0,0.0,0.0,0.0,0.0,0.0,0.0,0.0,0.0,0.0,0.0,0.0,-3.4683,-3.421,-3.3472,-3.2775,-3.2218,-3.1798,-3.1811,-3.1864,-3.1958,-3.3054,-3.382,-3.4297,-3.4831,-3.5444,0.0,0.0,0.0,0.0,0.0,0.0,0.0,0.0,0.0,0.0,0.0,0.0,0.0,0.0,0.0,0.0,0.0,0.0,0.0,0.0,0.0,0.0,0.0,0.0,0.0,-3.991,-3.9867,-3.9867,0.0,0.0,0.0,0.0,0.0,0.0,0.0,0.0,0.0,0.0,0.0,0.0,0.0,-4.0405,-4.0291,-4.0327,-4.0375,-4.0483,-4.0368,-4.0386,-4.0745,-4.0671,-4.07,0.0,0.0,0.0,0.0,0.0,0.0,0.0,0.0,0.0,0.0,0.0,0.0,0.0,0.0,0.0,0.0,0.0,0.0,-3.5148,-3.5228,-3.5424,-3.5716,-3.602,-3.602,-3.621,-3.6507,-3.6457,-3.6376,-3.6246,-3.6237,-3.6117,-3.5983,-3.5983,-3.6267,-3.6701,-3.6716,-3.706,-3.7674,-3.8153,0.0,0.0,0.0,0.0,0.0,0.0,0.0,0.0,0.0,0.0,-3.506,-3.4783,-3.438,-3.373,-3.3108,-3.2718,-3.2522,-3.2489,-3.2546,-3.2781,-3.402,-3.4738,-3.4874,-3.5618,-3.6224,0.0,0.0,0.0,0.0,0.0,0.0,0.0,0.0,0.0,0.0,0.0,0.0,0.0,0.0,0.0,0.0,0.0,0.0,0.0,0.0,0.0,0.0,0.0,-3.9875,-3.9781,-3.972,-3.9625,-3.9582,-3.953,0.0,-3.9352,0.0,0.0,0.0,0.0,0.0,0.0,0.0,0.0,0.0,0.0,-4.1198,-4.1372,-4.1574,-4.1678,-4.1626,-4.1513,-4.1422,-4.146,-4.1202,-4.1142,0.0,0.0,0.0,0.0,0.0,0.0,0.0,0.0,0.0,0.0,0.0,0.0,0.0,0.0,0.0,0.0,0.0,0.0,-3.5034,-3.5213,-3.5407,-3.5683,-3.5988,-3.602,-3.621,-3.6537,-3.6947,-3.7077,-3.6988,-3.7367,-3.747,-3.7255,-3.7195,-3.7285,-3.7345,-3.736,-3.7704,-3.8317,-3.8362,0.0,0.0,0.0,0.0,0.0,0.0,0.0,0.0,0.0,0.0,-3.5207,-3.4865,-3.4481,-3.4059,-3.3339,-3.3007,-3.2972,-3.2878,-3.2947,-3.3209,-3.4809,-3.5648,-3.5568,-3.667,-3.7315,0.0,0.0,0.0,0.0,0.0,0.0,0.0,0.0,0.0,0.0,0.0,0.0,0.0,0.0,0.0,0.0,0.0,0.0,0.0,0.0,0.0,0.0,0.0,0.0,-3.9554,-3.9511,-3.9415,-3.9259,-3.9115,-3.9013,-3.886,0.0,0.0,0.0,0.0,0.0,0.0,0.0,0.0,0.0,0.0,-4.1352,-4.1055,-4.1427,-4.1641,-4.146,-4.1422,-4.1498,-4.1633,-4.1312,-4.1163,-4.1716,-4.1646,-4.1516,0.0,0.0,0.0,0.0,0.0,0.0,0.0,0.0,0.0,0.0,0.0,0.0,0.0,0.0,0.0,-3.5034,-3.4931,-3.5195,-3.5492,-3.5844,-3.6252,-3.6578,-3.6863,-3.7309,-3.7498,-3.7428,-3.7485,-3.7488,-3.7404,-3.7404,-3.7629,-3.8018,-3.8003,-3.8377,-3.9005,-3.902,0.0,0.0,0.0,0.0,0.0,0.0,0.0,0.0,0.0,0.0,-3.5822,-3.5289,-3.475,-3.4312,-3.3874,-3.3811,-3.4093,-3.3682,-3.374,-3.4386,-3.5331,-3.5966,-3.6203,-3.7167,-3.7794,-3.8105,0.0,0.0,0.0,0.0,0.0,0.0,0.0,0.0,0.0,0.0,0.0,0.0,0.0,0.0,0.0,0.0,0.0,0.0,0.0,0.0,0.0,0.0,0.0,0.0,-3.904,-3.8876,-3.8722,-3.8655,-3.8572,-3.8399,-3.8331,0.0,0.0,0.0,0.0,0.0,0.0,0.0,-4.0386,0.0,-4.1946,-4.1987,-4.2393,-4.2674,-4.2596,-4.2713,-4.2844,-4.2906,-4.2377,-4.2063,-4.2528,-4.2196,-4.2029,-4.2431,0.0,0.0,0.0,0.0,0.0,0.0,0.0,0.0,0.0,0.0,0.0,0.0,0.0,0.0,-3.5027,-3.4908,-3.5104,-3.5466,-3.5952,-3.6484,-3.6899,-3.7322,-3.779,-3.8008,-3.7989,-3.7997,-3.7983,-3.8003,-3.8003,-3.8257,-3.8676,-3.8706,-3.8945,-3.9358,-3.9388,-3.9493,0.0,0.0,0.0,0.0,0.0,0.0,0.0,0.0,0.0,-3.6324,-3.5766,-3.5311,-3.4942,-3.4656,-3.4824,-3.5442,-3.4789,-3.4821,-3.5588,-3.6115,-3.6497,-3.6837,-3.766,-3.8129,-3.8198,0.0,0.0,0.0,0.0,-3.643,0.0,0.0,0.0,0.0,0.0,0.0,0.0,0.0,0.0,0.0,0.0,0.0,0.0,0.0,0.0,0.0,0.0,0.0,0.0,0.0,-3.8331,-3.8193,-3.8091,-3.8056,-3.8115,-3.7927,-3.7918,-3.8316,0.0,0.0,0.0,0.0,0.0,0.0,-4.175,-4.2477,-4.2575,-4.3067,-4.3423,-4.3423,-4.3636,-4.3771,-4.3691,-4.305,-4.2695,-4.302,-4.2546,-4.2429,-4.3066,-4.3105,-4.3134,-4.3536,-4.2816,-4.2196,-4.2286,0.0,0.0,0.0,0.0,0.0,0.0,0.0,0.0,-3.4938,-3.527,-3.523,-3.5681,-3.6402,-3.6658,-3.7201,-3.7876,-3.8469,-3.8687,-3.8717,-3.9122,-3.9284,-3.9298,-3.9284,-3.9269,-3.9328,-3.9409,-3.9373,-3.9439,-3.9403,-3.9768,-4.0292,-3.9783,-3.9753,-4.0262,-3.9753,-3.911,-3.8482,-3.8392,-3.7734,-3.6656,-3.6294,-3.6179,-3.6111,-3.5654,-3.5861,-3.6819,-3.6245,-3.6189,-3.6652,-3.7183,-3.741,-3.7335,-3.8263,-3.8375,-3.7572,0.0,0.0,0.0,0.0,-3.6507,0.0,0.0,0.0,0.0,0.0,0.0,0.0,0.0,0.0,0.0,0.0,0.0,0.0,0.0,0.0,0.0,0.0,0.0,0.0,0.0,-3.7873,-3.773,-3.7419,-3.7521,-3.8135,-3.8091,-3.8294,0.0,0.0,0.0,0.0,0.0,-4.0962,-4.1432,-4.2328,-4.2895,-4.2665,-4.3238,-4.369,-4.3675,-4.3871,-4.3914,-4.3598,-4.3112,-4.2809,-4.294,-4.2654,0.0,0.0,0.0,0.0,0.0,0.0,0.0,0.0,0.0,0.0,0.0,0.0,0.0,0.0,0.0,0.0,-3.5563,-3.5612,-3.5974,-3.6433,-3.6945,-3.7554,-3.7992,-3.8296,-3.8887,-3.9152,-3.9182,-3.932,-3.9388,-3.9388,-3.9388,-3.9388,-3.9388,-3.9388,-3.9679,-4.0038,-4.0068,-4.0412,-4.1025,-4.0831,-4.0846,-4.0965,-4.0382,-3.9738,-3.9095,-3.8616,-3.8167,-3.7749,-3.7246,-3.6954,-3.6881,-3.6694,-3.6843,-3.7325,-3.701,-3.7037,-3.7491,-3.7652,-3.7782,-3.7915,-3.8481,-3.8355,-3.7465,-3.6843,0.0,0.0,-3.6352,-3.6754,0.0,0.0,0.0,0.0,0.0,0.0,0.0,0.0,0.0,0.0,0.0,0.0,0.0,0.0,0.0,0.0,0.0,0.0,0.0,0.0,-3.7476,-3.7271,-3.7634,-3.8025,-3.823,-3.8623,-3.9125,-3.9766,-3.9527,-3.9428,-3.9926,-4.078,-4.1514,-4.196,-4.2707,-4.3252,-4.3501,-4.3758,-4.3934,-4.4104,-4.4281,-4.4265,-4.396,-4.3693,-4.3472,-4.3277,-4.3135,-4.3221,-4.3595,-4.4039,-4.4384,-4.457,-4.4192,-4.3836,-4.3836,-4.3836,-4.3639,-4.3149,-4.3047,-4.2895,-4.2388,-4.2196,-4.1984,-3.585,-3.5974,-3.6402,-3.6908,-3.7425,-3.8107,-3.8527,-3.8781,-3.923,-3.9388,-3.9388,-3.9388,-3.9388,-3.9388,-3.9388,-3.9388,-3.9439,-3.9627,-3.9993,-4.0397,-4.0636,-4.11,-4.1752,-4.1489,-4.1489,-4.1722,-4.104,-4.0397,-3.9753,-3.908,-3.8631,-3.8392,-3.7958,-3.7694,-3.7625,-3.752,-3.7721,-3.8076,-3.7894,-3.79,-3.8196,-3.8225,-3.83,-3.8501,-3.8612,-3.8279,-3.7415,-3.6959,-3.6509,0.0,-3.6523,0.0,0.0,0.0,0.0,0.0,0.0,0.0,0.0,0.0,0.0,0.0,0.0,0.0,0.0,0.0,0.0,0.0,0.0,0.0,0.0,-3.7668,-3.7525,-3.7343,-3.806,-3.8701,-3.8952,-3.9392,-3.9959,-4.0668,-4.0736,-4.0624,-4.052,-4.1353,-4.215,-4.2686,-4.3308,-4.3868,-4.4143,-4.4281,-4.4266,-4.4226,-4.4406,-4.434,-4.3835,-4.3733,-4.3647,-4.3443,-4.344,-4.3582,-4.3919,-4.431,-4.4598,-4.4598,-4.4598,-4.4598,-4.4598,-4.4598,-4.4462,-4.391,-4.3826,-4.3673,-4.3166,-4.3044,-4.2867,-3.5736,-3.6335,-3.657,-3.711,-3.7919,-3.829,-3.8775,-3.9328,-3.9388,-3.9388,-3.9388,-3.9388,-3.9388,-3.9388,-3.9388,-3.9388,-3.9433,-4.0053,-4.0382,-4.0516,-4.1085,-4.1782,-4.2366,-4.1796,-4.1788,-4.2381,-4.1752,-4.107,-4.0412,-3.9768,-3.9095,-3.8467,-3.8437,-3.8422,-3.8422,-3.826,-3.8466,-3.906,-3.8892,-3.8819,-3.8833,-3.8819,-3.8907,-3.909,-3.868,-3.8142,-3.7499,-3.7022,-3.6589,-3.6287,-3.6677,0.0,0.0,0.0,0.0,0.0,0.0,0.0,0.0,0.0,0.0,0.0,0.0,0.0,0.0,0.0,0.0,0.0,0.0,0.0,-3.7496,-3.7792,-3.7982,-3.7872,-3.8636,-3.9437,-4.0194,-4.0352,-4.0716,-4.159,-4.212,-4.2291,-4.2008,-4.2345,-4.29,-4.3553,-4.4178,-4.461,-4.4648,-4.4783,-4.4707,-4.4252,-4.4257,-4.4106,-4.3256,-4.3313,-4.3428,-4.3413,-4.3539,-4.3776,-4.4207,-4.4468,-4.4598,-4.4598,-4.4598,-4.4615,-4.4615,-4.4598,-4.4598,-4.4609,-4.4592,-4.4598,-4.4581,-4.4445,-4.4237,-3.5731,-3.6606,-3.7101,-3.7707,-3.8363,-3.8735,-3.9086,-3.9388,-3.9388,-3.9388,-3.9388,-3.9388,-3.9388,-3.9388,-3.9388,-3.9388,-3.9439,-3.9634,-4.0202,-4.1085,-4.1309,-4.1968,-4.3045,-4.2826,-4.2826,-4.303,-4.244,-4.1782,-4.1085,-4.0442,-3.9783,-3.914,-3.9125,-3.9125,-3.9125,-3.9053,-3.9122,-3.9286,-3.9265,-3.9228,-3.9228,-3.9358,-3.9538,-3.9732,-3.9138,-3.872,-3.8538,-3.7715,-3.7272,-3.7294,-3.7385,0.0,-3.8014,0.0,0.0,0.0,0.0,-3.9824,-3.9901,-4.0011,0.0,0.0,0.0,-3.9798,0.0,0.0,0.0,0.0,-3.7886,-3.7622,-3.7824,-3.8278,-3.8651,-3.8842,-3.966,-4.0324,-4.069,-4.1358,-4.2093,-4.2863,-4.2954,-4.3315,-4.4164,-4.3968,-4.3863,-4.4195,-4.4825,-4.5284,-4.5431,-4.5044,-4.4795,-4.4874,-4.4535,-4.4138,-4.3735,-4.3831,-4.3887,-4.3594,-4.3848,-4.4196,-4.4468,-4.4587,-4.4598,-4.4598,-4.4682,-4.4754,-4.4755,-4.4743,-4.4793,-4.4841,-4.4803,-4.4765,-4.4737,-4.4699,-4.4474,-3.5358,-3.627,-3.7226,-3.8073,-3.8798,-3.9306,-3.9728,-4.0092,-4.0165,-4.0038,-3.9813,-3.9813,-3.9664,-3.9388,-3.9388,-3.9388,-3.9388,-3.9694,-4.0232,-4.101,-4.1572,-4.2216,-4.2925,-4.294,-4.294,-4.2925,-4.2282,-4.1677,-4.0995,-4.0591,-4.0068,-3.9439,-3.9388,-3.9388,-3.9388,-3.9388,-3.9388,-3.9388,-3.9496,-3.9517,-3.9517,-3.9753,-4.0001,-4.0191,-3.9779,-3.9478,-3.9222,-3.8494,-3.8089,-3.8013,-3.7961,-3.8103,0.0,-3.8942,-3.9335,-3.9659,-3.9815,-3.991,-3.9977,-4.0079,0.0,0.0,-3.9935,-3.972,-3.9528,0.0,0.0,-3.8307,-3.7953,-3.7962,-3.8482,-3.9107,-3.9643,-3.9993,-4.0769,-4.1422,-4.1675,-4.2476,-4.3233,-4.3718,-4.409,-4.4669,-4.5474,-4.5154,-4.4934,-4.5183,-4.5326,-4.5477,-4.5761,-4.517,-4.4681,-4.4714,-4.4329,-4.3994,-4.382,-4.3877,-4.393,-4.3885,-4.4184,-4.444,-4.457,-4.4598,-4.4626,-4.4682,-4.4737,-4.4837,-4.495,-4.5019,-4.5032,-4.4998,-4.4951,-4.4886,-4.4886,-4.4776,-4.4586,-3.4875,-3.5629,-3.7015,-3.8212,-3.9189,-3.9829,-4.0515,-4.1118,-4.1308,-4.1025,-4.0412,-4.0412,-4.0023,-3.9388,-3.9388,-3.9388,-3.9418,-4.0053,-4.0352,-4.0442,-4.1677,-4.2261,-4.2321,-4.2321,-4.2336,-4.2306,-4.1707,-4.104,-4.0442,-4.0397,-4.0068,-3.9439,-3.9409,-3.9445,-3.9409,-3.9409,-3.9409,-3.9445,-3.9625,-3.9717,-3.9788,-4.0111,-4.0389,-4.0593,-4.0627,-4.0353,-3.9738,-3.9321,-3.8952,-3.8692,-3.846,-3.8567,-3.9023,-3.9335,-3.9642,-3.9875,-3.9926,-3.9994,-4.0172,-4.0197,-4.018,-4.0087,-3.9841,-3.9625,-3.9484,-3.9007,-3.8553,-3.8225,-3.8358,-3.8748,-3.9377,-4.023,-4.0865,-4.1228,-4.1947,-4.2571,-4.2899,-4.3548,-4.4052,-4.4225,-4.5276,-4.6011,-4.6093,-4.5927,-4.5919,-4.6255,-4.5651,-4.5319,-4.5677,-4.5127,-4.4496,-4.4088,-4.3908,-4.3835,-4.372,-4.3707,-4.3839,-4.4196,-4.4468,-4.457,-4.4598,-4.4626,-4.4654,-4.4776,-4.4831,-4.493,-4.5172,-4.5308,-4.5354,-4.5117,-4.5062,-4.5032,-4.5005,-4.4801,-4.4453,-3.5544,-3.625,-3.7081,-3.7959,-3.8845,-3.9877,-4.061,-4.1095,-4.1323,-4.101,-4.0412,-4.0412,-4.0038,-3.9388,-3.9388,-3.9388,-3.9403,-3.9553,-3.9933,-4.0412,-4.0726,-4.1168,-4.1647,-4.1647,-4.1647,-4.1632,-4.1482,-4.104,-4.0427,-4.0544,-4.0272,-3.9691,-3.9783,-3.9783,-3.9625,-3.9625,-3.9696,-3.9854,-3.9905,-4.0121,-4.0509,-4.0836,-4.1207,-4.1475,-4.1638,-4.1625,-4.1483,-4.0466,-4.0009,-4.0146,-3.9308,-3.8996,-3.9352,-3.9668,-3.9824,-3.9901,-3.9986,-4.0316,-4.0882,-4.095,-4.0679,-4.0146,-3.9841,-3.9599,-3.9302,-3.9385,-3.9316,-3.8982,-3.97,-4.0325,-4.0625,-4.131,-4.1933,-4.2422,-4.2661,-4.2914,-4.3221,-4.352,-4.3971,-4.4666,-4.5017,-4.5386,-4.5949,-4.584,-4.5794,-4.6008,-4.5489,-4.5129,-4.5359,-4.4866,-4.4485,-4.4443,-4.4103,-4.3853,-4.3956,-4.4051,-4.4167,-4.4281,-4.4468,-4.4598,-4.4598,-4.4699,-4.4748,-4.482,-4.5042,-4.5245,-4.5346,-4.5553,-4.5674,-4.5612,-4.5451,-4.5283,-4.515,-4.4541,-4.3909,-3.5607,-3.6236,-3.7127,-3.803,-3.8912,-4.0061,-4.1017,-4.1824,-4.2019,-4.1637,-4.0801,-4.0232,-3.9768,-3.9388,-3.9388,-3.9388,-3.9388,-3.9388,-3.9568,-3.9978,-4.0262,-4.0591,-4.095,-4.0935,-4.095,-4.0935,-4.0748,-4.0469,-4.0124,-4.029,-4.0222,-3.993,-4.0051,-4.0106,-4.0161,-4.0021,-4.0001,-4.0106,-4.0366,-4.0799,-4.1357,-4.154,-4.1851,-4.2269,-4.2381,-4.2315,-4.207,-4.1154,-4.06,-4.0504,-3.9743,-3.9441,-3.9668,-3.9858,-3.9986,-3.9986,-4.0062,-4.0434,-4.1153,-4.1204,-4.117,-4.1094,-4.0851,-4.0585,-4.0325,-4.0306,-4.0264,-4.0261,-4.0791,-4.1338,-4.1863,-4.2234,-4.2665,-4.316,-4.3207,-4.3328,-4.3687,-4.4075,-4.4467,-4.497,-4.5337,-4.5657,-4.6074,-4.5749,-4.5532,-4.5624,-4.5052,-4.4754,-4.5125,-4.4688,-4.4281,-4.4404,-4.416,-4.3993,-4.4167,-4.4327,-4.444,-4.444,-4.4542,-4.4598,-4.4598,-4.4709,-4.4803,-4.4896,-4.5177,-4.5406,-4.5492,-4.5693,-4.5895,-4.5795,-4.574,-4.558,-4.5415,-4.4584,-4.3807,-3.5539,-3.6082,-3.7237,-3.8287,-3.9251,-4.022,-4.1401,-4.2688,-4.2826,-4.2267,-4.119,-3.9948,-3.9388,-3.9388,-3.9388,-3.9388,-3.9388,-3.9388,-3.9388,-3.9418,-4.0008,-4.0277,-4.0277,-4.0314,-4.0299,-4.0284,-3.9932,-3.9717,-3.9753,-3.9996,-4.0156,-4.0285,-4.032,-4.0493,-4.0817,-4.0578,-4.0389,-4.0355,-4.0919,-4.1522,-4.2109,-4.2238,-4.2508,-4.2961,-4.3023,-4.2755,-4.2167,-4.1593,-4.1026,-4.0409,-3.9974,-3.9781,-3.9926,-4.0037,-4.0113,-4.0113,-4.0197,-4.0544,-4.1288,-4.1457,-4.1796,-4.2506,-4.2364,-4.2077,-4.1738,-4.1382,-4.1321,-4.1752,-4.1803,-4.2138,-4.2943,-4.2992,-4.3207,-4.3628,-4.3658,-4.3776,-4.4114,-4.4696,-4.5098,-4.5114,-4.5684,-4.6086,-4.6002,-4.5483,-4.5144,-4.5094,-4.4645,-4.4465,-4.4913,-4.4578,-4.4164,-4.4126,-4.4155,-4.4212,-4.4355,-4.4468,-4.457,-4.4598,-4.4598,-4.4598,-4.4643,-4.4737,-4.4886,-4.5032,-4.5283,-4.5503,-4.5614,-4.5862,-4.5995,-4.5895,-4.5943,-4.5819,-4.5416,-4.4596,-4.3718,-3.643,-3.6893,-3.7534,-3.8452,-3.9571,-4.012,-4.1182,-4.243,-4.2273,-4.1596,-4.0546,-3.9753,-3.9388,-3.9388,-3.9388,-3.9388,-3.9388,-3.9388,-3.9388,-3.9388,-3.9508,-3.9568,-3.9604,-3.9769,-3.9841,-3.9841,-3.9914,-4.0016,-4.0111,-4.0301,-4.0489,-4.0681,-4.0938,-4.1122,-4.1223,-4.1439,-4.1406,-4.114,-4.1654,-4.2045,-4.2333,-4.2883,-4.3251,-4.3479,-4.373,-4.3544,-4.2822,-4.2133,-4.1487,-4.0886,-4.0227,-3.9926,-4.0045,-4.0087,-4.0113,-4.0146,-4.0663,-4.1305,-4.2033,-4.2658,-4.3335,-4.4079,-4.3962,-4.3256,-4.2021,-4.1972,-4.2265,-4.2774,-4.2977,-4.3164,-4.3449,-4.3582,-4.3713,-4.3981,-4.401,-4.4068,-4.4253,-4.4387,-4.4512,-4.4705,-4.484,-4.4924,-4.4958,-4.4772,-4.4722,-4.4739,-4.4615,-4.4564,-4.4688,-4.4473,-4.4253,-4.4281,-4.4384,-4.4485,-4.4542,-4.4553,-4.4598,-4.4598,-4.4598,-4.4626,-4.4737,-4.4858,-4.5059,-4.5257,-4.5563,-4.5761,-4.589,-4.605,-4.6147,-4.6119,-4.6038,-4.573,-4.4894,-4.4007,-4.3072,-3.6687,-3.7108,-3.7526,-3.8277,-3.9295,-3.9881,-4.0745,-4.1715,-4.193,-4.1543,-4.0681,-3.9785,-3.9388,-3.9388,-3.9388,-3.9388,-3.9388,-3.9388,-3.9388,-3.9388,-3.9388,-3.946,-3.9553,-3.9661,-3.9788,-3.995,-4.0156,-4.0401,-4.0631,-4.0817,-4.107,-4.1355,-4.1521,-4.1637,-4.1704,-4.1996,-4.2029,-4.1835,-4.2174,-4.246,-4.2743,-4.319,-4.3522,-4.3835,-4.401,-4.3664,-4.2711,-4.2307,-4.161,-4.0627,-4.0189,-4.0037,-4.0113,-4.0113,-4.0113,-4.013,-4.0798,-4.1525,-4.2236,-4.2997,-4.3758,-4.4547,-4.4497,-4.4035,-4.3054,-4.311,-4.3302,-4.3562,-4.3671,-4.3776,-4.3835,-4.3906,-4.4023,-4.4167,-4.4196,-4.4253,-4.4395,-4.4423,-4.4468,-4.457,-4.4598,-4.4598,-4.4598,-4.4598,-4.4598,-4.4598,-4.4598,-4.4598,-4.457,-4.4514,-4.444,-4.444,-4.4542,-4.4598,-4.4598,-4.4598,-4.4598,-4.4598,-4.4598,-4.4654,-4.4776,-4.4913,-4.5059,-4.5283,-4.5572,-4.583,-4.589,-4.6075,-4.6214,-4.6189,-4.6073,-4.5685,-4.4779,-4.3908,-4.2948,-3.664,-3.7062,-3.7353,-3.7985,-3.8819,-3.9543,-4.0286,-4.1001,-4.1614,-4.1598,-4.102,-3.998,-3.9568,-3.9553,-3.9448,-3.9388,-3.9388,-3.9388,-3.9388,-3.9388,-3.9388,-3.9532,-3.9681,-3.9717,-3.993,-4.025,-4.0489,-4.0799,-4.1189,-4.1323,-4.1634,-4.2106,-4.217,-4.2236,-4.235,-4.2382,-4.2381,-4.2381,-4.2539,-4.279,-4.3066,-4.3342,-4.3658,-4.4097,-4.4126,-4.3564,-4.2354,-4.2303,-4.1636,-4.0197,-4.0113,-4.0113,-4.0113,-4.0113,-4.0113,-4.0146,-4.0899,-4.1644,-4.2269,-4.3132,-4.3893,-4.4536,-4.4598,-4.4457,-4.4155,-4.4126,-4.4109,-4.4097,-4.4126,-4.4126,-4.4126,-4.4184,-4.4241,-4.4338,-4.4355,-4.4423,-4.457,-4.4598,-4.4598,-4.4598,-4.4598,-4.4598,-4.4598,-4.4598,-4.4598,-4.4598,-4.4598,-4.4598,-4.4598,-4.457,-4.457,-4.457,-4.4598,-4.4598,-4.4598,-4.4598,-4.4598,-4.4598,-4.4598,-4.4654,-4.4776,-4.4896,-4.5042,-4.523,-4.5563,-4.577,-4.5871,-4.6048,-4.6189,-4.6165,-4.6073,-4.5703,-4.4836,-4.3982,-4.2997,-3.6546,-3.6815,-3.7307,-3.7815,-3.8336,-3.9069,-3.9922,-4.0774,-4.1264,-4.1347,-4.105,-4.0322,-4.0092,-4.0232,-3.9664,-3.9388,-3.9388,-3.9388,-3.9388,-3.9388,-3.9388,-3.9517,-3.9681,-3.9889,-4.0137,-4.0455,-4.0833,-4.1205,-4.1522,-4.1735,-4.2217,-4.2957,-4.3201,-4.3282,-4.3266,-4.2703,-4.2318,-4.2142,-4.2602,-4.2945,-4.3113,-4.3432,-4.3747,-4.4068,-4.4196,-4.3659,-4.2371,-4.2303,-4.161,-4.0197,-4.0113,-4.0113,-4.0113,-4.0113,-4.0113,-4.0163,-4.1373,-4.2211,-4.2347,-4.365,-4.4496,-4.4581,-4.4598,-4.4514,-4.4281,-4.4281,-4.4224,-4.4126,-4.4196,-4.4281,-4.4281,-4.4429,-4.4514,-4.4542,-4.457,-4.457,-4.4598,-4.4598,-4.4598,-4.4598,-4.4598,-4.4598,-4.4598,-4.4598,-4.4598,-4.4598,-4.4598,-4.4598,-4.4598,-4.4598,-4.4598,-4.4598,-4.4598,-4.4598,-4.4598,-4.4598,-4.4598,-4.4598,-4.4598,-4.4654,-4.4776,-4.4896,-4.5069,-4.5336,-4.5589,-4.5811,-4.5918,-4.6094,-4.6132,-4.6077,-4.5974,-4.5653,-4.4781,-4.3885,-4.2873,-3.6534,-3.6722,-3.6968,-3.7433,-3.8122,-3.8935,-3.9821,-4.0716,-4.1067,-4.121,-4.1234,-4.0817,-4.0823,-4.101,-4.0416,-4.0166,-4.0275,-3.9877,-3.9711,-3.9711,-3.9711,-3.9839,-4.0016,-4.0121,-4.0381,-4.083,-4.1494,-4.2023,-4.2504,-4.3019,-4.3586,-4.404,-4.4154,-4.417,-4.4007,-4.3347,-4.288,-4.2701,-4.2702,-4.2759,-4.2836,-4.3251,-4.3598,-4.3835,-4.4068,-4.3765,-4.2827,-4.2469,-4.1796,-4.073,-4.0333,-4.0113,-4.0113,-4.0113,-4.0113,-4.0146,-4.1102,-4.188,-4.2269,-4.3752,-4.4598,-4.4598,-4.4598,-4.457,-4.4468,-4.4468,-4.444,-4.4372,-4.4429,-4.4468,-4.4468,-4.4542,-4.4598,-4.4598,-4.4598,-4.4598,-4.4598,-4.4598,-4.4598,-4.4598,-4.4598,-4.4598,-4.4598,-4.4598,-4.4598,-4.4598,-4.4598,-4.4598,-4.4598,-4.4598,-4.4598,-4.4598,-4.4598,-4.4598,-4.4598,-4.4598,-4.4598,-4.4598,-4.4598,-4.4654,-4.4776,-4.4913,-4.5059,-4.5257,-4.5511,-4.5684,-4.58,-4.5877,-4.5939,-4.5924,-4.5804,-4.551,-4.5009,-4.3872,-4.2433,-3.6499,-3.6628,-3.6675,-3.7142,-3.7985,-3.8845,-3.9675,-4.0459,-4.083,-4.1192,-4.1452,-4.1327,-4.1479,-4.1836,-4.124,-4.0937,-4.0937,-4.0466,-4.0147,-4.0011,-4.0011,-4.0101,-4.0277,-4.0327,-4.0666,-4.1333,-4.2056,-4.276,-4.3436,-4.4149,-4.4703,-4.4965,-4.4997,-4.4897,-4.468,-4.3972,-4.3422,-4.3098,-4.2864,-4.2669,-4.2602,-4.3082,-4.3402,-4.3628,-4.3923,-4.3803,-4.3205,-4.2611,-4.1965,-4.1238,-4.0519,-4.0113,-4.0113,-4.0113,-4.0113,-4.0163,-4.0798,-4.161,-4.2506,-4.3639,-4.4401,-4.4598,-4.4598,-4.4598,-4.4598,-4.4598,-4.4598,-4.4598,-4.457,-4.4598,-4.457,-4.4598,-4.4598,-4.4598,-4.4598,-4.4598,-4.4598,-4.4598,-4.4598,-4.4598,-4.4598,-4.4598,-4.4598,-4.4598,-4.4598,-4.4598,-4.4598,-4.4598,-4.4598,-4.4598,-4.4598,-4.4598,-4.4598,-4.4598,-4.4598,-4.4598,-4.4598,-4.4598,-4.4598,-4.4626,-4.4737,-4.4858,-4.5005,-4.514,-4.538,-4.5563,-4.5615,-4.5735,-4.5787,-4.5788,-4.5632,-4.5425,-4.4905,-4.3852,-4.2354,-3.6417,-3.6452,-3.6628,-3.7201,-3.7965,-3.8666,-3.9292,-3.9821,-4.0617,-4.1352,-4.1942,-4.1748,-4.1995,-4.2476,-4.1919,-4.1442,-4.1073,-4.0937,-4.0588,-4.0071,-4.0011,-4.0101,-4.0342,-4.0342,-4.0897,-4.1894,-4.2338,-4.3092,-4.4058,-4.4406,-4.4911,-4.5612,-4.5608,-4.5403,-4.5152,-4.4389,-4.3566,-4.2778,-4.3,-4.2944,-4.2635,-4.2959,-4.3265,-4.3598,-4.3923,-4.3803,-4.3255,-4.2611,-4.1965,-4.1238,-4.0493,-4.0113,-4.0113,-4.0113,-4.0113,-4.013,-4.0798,-4.1813,-4.3088,-4.3409,-4.3859,-4.4513,-4.4598,-4.4598,-4.4598,-4.4598,-4.4598,-4.4598,-4.4598,-4.4598,-4.4598,-4.4598,-4.4598,-4.4598,-4.4598,-4.4598,-4.4649,-4.4598,-4.4598,-4.4598,-4.4784,-4.4615,-4.4784,-4.4784,-4.4716,-4.4835,-4.4784,-4.4733,-4.4716,-4.4632,-4.4598,-4.4598,-4.4598,-4.4598,-4.4598,-4.4598,-4.4598,-4.4598,-4.4598,-4.4598,-4.4654,-4.4765,-4.4875,-4.5227,-4.5306,-4.5527,-4.571,-4.5719,-4.5823,-4.5865,-4.5604,-4.5146,-4.4226,-4.3664,-4.287,-3.6487,-3.6417,-3.6487,-3.7147,-3.8179,-3.8944,-3.9784,-4.069,-4.1157,-4.1825,-4.254,-4.253,-4.2847,-4.3432,-4.3015,-4.2707,-4.2475,-4.1817,-4.1275,-4.0928,-4.0495,-4.0581,-4.1034,-4.105,-4.158,-4.2532,-4.3271,-4.3933,-4.4516,-4.5243,-4.5768,-4.6078,-4.6057,-4.5933,-4.5693,-4.4986,-4.4408,-4.4053,-4.3512,-4.3233,-4.3233,-4.3141,-4.3281,-4.3598,-4.3923,-4.4037,-4.381,-4.3287,-4.2625,-4.1863,-4.1153,-4.0544,-4.013,-4.0113,-4.0113,-4.0146,-4.0781,-4.166,-4.2692,-4.3122,-4.3741,-4.4547,-4.4598,-4.4598,-4.4598,-4.4598,-4.4598,-4.4598,-4.4598,-4.4598,-4.4598,-4.4598,-4.4598,-4.4598,-4.4598,-4.4767,-4.5196,-4.5229,-4.5382,-4.5788,-4.5889,-4.5855,-4.5918,-4.5918,-4.5918,-4.5821,-4.5568,-4.5246,-4.5229,-4.4891,-4.4615,-4.4598,-4.4598,-4.4598,-4.4598,-4.4598,-4.4598,-4.4598,-4.4598,-4.4598,-4.4632,-4.4709,-4.495,-4.542,-4.5682,-4.6023,-4.6533,-4.6559,-4.6605,-4.6409,-4.5932,-4.5412,-4.4514,-4.3895,-4.3203,-3.6628,-3.6512,-3.6723,-3.7393,-3.8286,-3.9315,-4.0353,-4.1388,-4.177,-4.2424,-4.3159,-4.3415,-4.3756,-4.412,-4.3951,-4.3831,-4.3633,-4.2808,-4.2231,-4.1919,-4.1324,-4.1386,-4.1848,-4.1878,-4.2325,-4.3107,-4.3925,-4.4542,-4.5033,-4.5849,-4.6298,-4.6298,-4.6278,-4.6187,-4.6048,-4.5539,-4.5206,-4.4954,-4.4253,-4.3862,-4.3767,-4.3593,-4.3509,-4.3631,-4.3923,-4.4138,-4.4276,-4.3698,-4.3139,-4.2608,-4.1897,-4.117,-4.0443,-4.0392,-4.0333,-4.0163,-4.0603,-4.1305,-4.2219,-4.2811,-4.3538,-4.4462,-4.4598,-4.4598,-4.4598,-4.4598,-4.4598,-4.4598,-4.4598,-4.4598,-4.4598,-4.4598,-4.4666,-4.484,-4.4919,-4.5196,-4.5872,-4.5991,-4.621,-4.6701,-4.665,-4.6786,-4.6769,-4.6718,-4.6667,-4.6616,-4.6312,-4.6007,-4.5957,-4.5551,-4.5207,-4.4925,-4.4891,-4.479,-4.4666,-4.4598,-4.4598,-4.4598,-4.4598,-4.4682,-4.4807,-4.5004,-4.5354,-4.6045,-4.6221,-4.6447,-4.6839,-4.7084,-4.7204,-4.7027,-4.6629,-4.5937,-4.5196,-4.4456,-4.3927,-3.6662,-3.6798,-3.7581,-3.7967,-3.8126,-3.9657,-4.0729,-4.1613,-4.2441,-4.3142,-4.3652,-4.4388,-4.4715,-4.4603,-4.4571,-4.4397,-4.4195,-4.3883,-4.3386,-4.2824,-4.2535,-4.2509,-4.2571,-4.2586,-4.2998,-4.3731,-4.3929,-4.4617,-4.5692,-4.61,-4.6298,-4.631,-4.6231,-4.6128,-4.6144,-4.6064,-4.5698,-4.518,-4.5357,-4.508,-4.4154,-4.4273,-4.4125,-4.379,-4.3923,-4.4184,-4.4226,-4.3742,-4.3358,-4.3325,-4.2642,-4.1931,-4.1255,-4.1153,-4.0865,-4.0299,-4.0214,-4.0874,-4.2117,-4.2439,-4.3064,-4.4327,-4.4598,-4.4598,-4.4598,-4.4598,-4.4598,-4.4598,-4.4598,-4.4598,-4.4682,-4.4733,-4.4953,-4.55,-4.5652,-4.5974,-4.665,-4.6752,-4.6752,-4.6887,-4.6989,-4.7056,-4.6904,-4.6786,-4.6955,-4.6955,-4.6819,-4.6752,-4.6718,-4.6667,-4.6278,-4.5838,-4.5618,-4.5415,-4.479,-4.4784,-4.4733,-4.4801,-4.4942,-4.4925,-4.5331,-4.5766,-4.6213,-4.661,-4.6838,-4.7026,-4.717,-4.7238,-4.7271,-4.7214,-4.7155,-4.6605,-4.5874,-4.5698,-4.5145,-3.7294,-3.7066,-3.7878,-3.8554,-3.9168,-4.0532,-4.1761,-4.2835,-4.3455,-4.3935,-4.428,-4.4725,-4.494,-4.4986,-4.5262,-4.5174,-4.4814,-4.4429,-4.4013,-4.3531,-4.3035,-4.2906,-4.3054,-4.3048,-4.3438,-4.4081,-4.4308,-4.4949,-4.5953,-4.6165,-4.6549,-4.6908,-4.6555,-4.6403,-4.6486,-4.6246,-4.6044,-4.5987,-4.5931,-4.5732,-4.5569,-4.4983,-4.4602,-4.461,-4.429,-4.4212,-4.4485,-4.4254,-4.3927,-4.3436,-4.3149,-4.2675,-4.1999,-4.1897,-4.1779,-4.1568,-4.1534,-4.1931,-4.2828,-4.2997,-4.3453,-4.4445,-4.4598,-4.4598,-4.4598,-4.4598,-4.4598,-4.4598,-4.4598,-4.4767,-4.5196,-4.5297,-4.5415,-4.5686,-4.6143,-4.6701,-4.7293,-4.7513,-4.7682,-4.8071,-4.8189,-4.8206,-4.8105,-4.8189,-4.8206,-4.8156,-4.7817,-4.7564,-4.7428,-4.7141,-4.6735,-4.6498,-4.6397,-4.6312,-4.6109,-4.5568,-4.5348,-4.5483,-4.5635,-4.5974,-4.6363,-4.6413,-4.676,-4.7352,-4.7585,-4.7768,-4.7954,-4.8124,-4.8031,-4.7679,-4.7585,-4.7297,-4.6578,-4.6312,-4.5754,-3.7585,-3.7283,-3.8226,-3.9029,-3.9782,-4.1269,-4.261,-4.3782,-4.441,-4.4763,-4.4944,-4.5405,-4.5557,-4.5467,-4.5792,-4.5828,-4.5541,-4.5121,-4.4716,-4.4303,-4.3779,-4.3575,-4.3608,-4.3609,-4.38,-4.4228,-4.4703,-4.531,-4.5981,-4.6344,-4.6841,-4.7392,-4.7038,-4.6843,-4.6829,-4.6637,-4.6605,-4.6636,-4.6475,-4.6486,-4.6567,-4.593,-4.5396,-4.5232,-4.4775,-4.4534,-4.4587,-4.4598,-4.435,-4.3876,-4.3792,-4.3453,-4.2743,-4.2422,-4.2303,-4.2303,-4.2286,-4.2608,-4.3284,-4.3403,-4.3758,-4.4513,-4.4598,-4.4598,-4.4598,-4.4598,-4.4598,-4.4632,-4.4886,-4.5196,-4.5652,-4.6109,-4.6413,-4.6481,-4.687,-4.7462,-4.8139,-4.8257,-4.8494,-4.8815,-4.89,-4.8968,-4.9018,-4.8984,-4.8951,-4.9001,-4.8562,-4.8291,-4.8189,-4.7885,-4.7361,-4.7225,-4.7175,-4.7005,-4.6819,-4.6481,-4.621,-4.6295,-4.6346,-4.6769,-4.7141,-4.7158,-4.7394,-4.8003,-4.8359,-4.8562,-4.8765,-4.8951,-4.8748,-4.8325,-4.8206,-4.8034,-4.7411,-4.6836,-4.638,-3.7618,-3.7402,-3.86,-3.9438,-4.0004,-4.1726,-4.3074,-4.4083,-4.518,-4.5477,-4.5447,-4.6513,-4.6425,-4.5997,-4.612,-4.6262,-4.6211,-4.5893,-4.5515,-4.5095,-4.4862,-4.4547,-4.419,-4.4174,-4.4074,-4.4057,-4.5055,-4.5572,-4.575,-4.6633,-4.7278,-4.7526,-4.7581,-4.7442,-4.7177,-4.7312,-4.72,-4.7087,-4.7252,-4.7259,-4.6975,-4.6982,-4.6564,-4.5694,-4.5459,-4.5175,-4.4671,-4.4615,-4.4564,-4.4547,-4.453,-4.4181,-4.3453,-4.2844,-4.2405,-4.2489,-4.2405,-4.2743,-4.3341,-4.3504,-4.3876,-4.4445,-4.4598,-4.4598,-4.4598,-4.4598,-4.4632,-4.479,-4.5229,-4.5703,-4.6024,-4.6955,-4.7669,-4.7855,-4.7817,-4.8176,-4.8731,-4.8968,-4.9001,-4.9018,-4.9018,-4.9018,-4.9018,-4.9018,-4.9018,-4.8984,-4.8917,-4.8849,-4.8832,-4.8714,-4.8562,-4.8139,-4.7919,-4.7784,-4.7547,-4.7344,-4.7208,-4.7107,-4.7107,-4.731,-4.7767,-4.7936,-4.8071,-4.8562,-4.8663,-4.8849,-4.8849,-4.9018,-4.9018,-4.8731,-4.8765,-4.8663,-4.8156,-4.7597,-4.7276,-3.8381,-3.8267,-3.942,-4.0239,-4.0844,-4.2535,-4.3568,-4.4135,-4.5155,-4.5376,-4.5319,-4.602,-4.6322,-4.6243,-4.6372,-4.6563,-4.6684,-4.6298,-4.5884,-4.5447,-4.5204,-4.4754,-4.4205,-4.4089,-4.3972,-4.3992,-4.4734,-4.5535,-4.6144,-4.6877,-4.7753,-4.848,-4.8286,-4.8246,-4.8449,-4.797,-4.7639,-4.7798,-4.7818,-4.7803,-4.7765,-4.7584,-4.7267,-4.6922,-4.6553,-4.6034,-4.5399,-4.4857,-4.4615,-4.4598,-4.4598,-4.4451,-4.4198,-4.4039,-4.3904,-4.3904,-4.3904,-4.3955,-4.413,-4.4198,-4.4282,-4.4547,-4.4598,-4.4598,-4.4598,-4.4649,-4.4886,-4.5246,-4.5602,-4.6041,-4.7043,-4.7567,-4.7922,-4.7906,-4.8328,-4.8697,-4.8934,-4.9018,-4.9018,-4.9018,-4.9018,-4.9018,-4.9018,-4.9018,-4.9018,-4.9018,-4.9018,-4.9018,-4.9018,-4.9018,-4.8984,-4.868,-4.8629,-4.8511,-4.8291,-4.8156,-4.8088,-4.797,-4.7936,-4.7885,-4.8291,-4.8545,-4.8731,-4.8832,-4.8951,-4.9018,-4.9018,-4.9018,-4.9018,-4.9018,-4.8917,-4.8781,-4.8646,-4.8325,-4.7919,-3.9011,-3.8844,-4.0073,-4.0668,-4.0985,-4.2618,-4.356,-4.4016,-4.4979,-4.5342,-4.5421,-4.6095,-4.6502,-4.6555,-4.6652,-4.6807,-4.6927,-4.6509,-4.6084,-4.5687,-4.5352,-4.4754,-4.4065,-4.3832,-4.3865,-4.4103,-4.4915,-4.5768,-4.6585,-4.7405,-4.8327,-4.9038,-4.8934,-4.8969,-4.9371,-4.8912,-4.8648,-4.8551,-4.8464,-4.8397,-4.8371,-4.8174,-4.7911,-4.7686,-4.7385,-4.6853,-4.6143,-4.5664,-4.5173,-4.4716,-4.4598,-4.4598,-4.4598,-4.4581,-4.4598,-4.4598,-4.4581,-4.4581,-4.4598,-4.4547,-4.4598,-4.4632,-4.4852,-4.501,-4.506,-4.5162,-4.5652,-4.6007,-4.6413,-4.6904,-4.7686,-4.8189,-4.8291,-4.8342,-4.8714,-4.9001,-4.9018,-4.9018,-4.9018,-4.9018,-4.9018,-4.9018,-4.9018,-4.9018,-4.9018,-4.9018,-4.9018,-4.9018,-4.9018,-4.9018,-4.9001,-4.9001,-4.8917,-4.8883,-4.8951,-4.8951,-4.8951,-4.8866,-4.8781,-4.868,-4.8815,-4.8832,-4.8934,-4.8934,-4.9001,-4.9018,-4.9018,-4.9018,-4.9018,-4.9018,-4.9137,-4.8934,-4.8798,-4.868,-4.8376,-3.9493,-3.9285,-4.0589,-4.0976,-4.0773,-4.2399,-4.333,-4.369,-4.4684,-4.5364,-4.5827,-4.6481,-4.6925,-4.6904,-4.6876,-4.6996,-4.708,-4.6545,-4.6191,-4.592,-4.5463,-4.4754,-4.4011,-4.3621,-4.3723,-4.4338,-4.5364,-4.6249,-4.6939,-4.7967,-4.8867,-4.93,-4.9479,-4.9717,-4.9882,-5.0041,-4.9746,-4.9372,-4.9177,-4.8993,-4.8889,-4.8784,-4.8543,-4.8058,-4.7956,-4.7614,-4.6955,-4.665,-4.6041,-4.497,-4.4919,-4.4953,-4.4801,-4.4733,-4.4869,-4.4919,-4.4767,-4.4869,-4.4801,-4.497,-4.4936,-4.5021,-4.5449,-4.5771,-4.5821,-4.621,-4.6599,-4.6853,-4.7378,-4.7804,-4.8075,-4.8528,-4.8883,-4.8984,-4.8968,-4.9018,-4.9018,-4.9018,-4.9018,-4.9018,-4.9018,-4.9018,-4.9018,-4.9018,-4.9018,-4.9018,-4.9018,-4.9018,-4.9018,-4.9018,-4.9018,-4.9018,-4.9018,-4.9018,-4.9018,-4.9018,-4.9018,-4.9018,-4.9018,-4.9035,-4.9035,-4.9035,-4.9204,-4.9187,-4.9221,-4.9154,-4.9306,-4.9526,-4.956,-4.9661,-4.9543,-4.9187,-4.9069,-4.9069,-4.89,-4.1619,-4.1449,-4.2086,-4.2182,-4.2071,-4.3299,-4.3686,-4.3705,-4.4567,-4.5137,-4.5472,-4.6065,-4.6683,-4.7097,-4.6961,-4.7064,-4.7149,-4.6631,-4.612,-4.5848,-4.5426,-4.477,-4.4104,-4.3714,-4.3863,-4.4443,-4.5348,-4.6217,-4.7019,-4.8105,-4.8893,-4.9517,-4.9757,-5.0206,-5.0709,-5.0485,-5.0478,-5.05,-4.9809,-4.9556,-4.9545,-4.9164,-4.8903,-4.8734,-4.8714,-4.8325,-4.7631,-4.7073,-4.6684,-4.6295,-4.621,-4.624,-4.6155,-4.6109,-4.6075,-4.6075,-4.6126,-4.616,-4.616,-4.6143,-4.6177,-4.621,-4.6329,-4.6498,-4.6515,-4.6667,-4.7056,-4.7462,-4.7838,-4.8125,-4.8612,-4.8883,-4.9001,-4.9018,-4.9018,-4.9018,-4.9018,-4.9018,-4.9018,-4.9018,-4.9018,-4.9018,-4.9018,-4.9018,-4.9018,-4.9018,-4.9018,-4.9018,-4.9018,-4.9018,-4.9018,-4.9018,-4.9018,-4.9018,-4.9018,-4.9018,-4.9018,-4.9018,-4.9035,-4.9086,-4.9086,-4.9103,-4.9407,-4.9661,-4.9847,-4.9864,-5.0338,-5.0727,-5.0625,-5.0321,-5.0388,-5.0236,-4.9915,-4.9796,-4.9458,-4.2899,-4.2719,-4.3157,-4.3149,-4.2956,-4.3713,-4.3978,-4.3994,-4.4373,-4.4964,-4.5442,-4.5941,-4.6561,-4.7132,-4.6996,-4.6996,-4.7149,-4.658,-4.6136,-4.5739,-4.53,-4.4663,-4.4089,-4.3808,-4.4078,-4.4925,-4.5509,-4.6492,-4.7629,-4.8424,-4.9097,-4.9677,-5.0034,-5.0557,-5.1247,-5.1312,-5.1229,-5.1339,-5.0861,-5.0623,-5.0414,-4.9801,-4.9526,-4.9373,-4.9221,-4.8765,-4.8342,-4.7953,-4.7479,-4.6972,-4.6769,-4.6786,-4.6786,-4.6786,-4.6786,-4.6786,-4.6786,-4.6769,-4.6786,-4.6786,-4.6786,-4.6853,-4.7039,-4.7259,-4.7344,-4.7513,-4.7986,-4.8308,-4.8376,-4.8595,-4.8883,-4.9018,-4.9018,-4.9018,-4.9018,-4.9018,-4.9018,-4.9018,-4.9018,-4.9018,-4.9018,-4.9018,-4.9018,-4.9018,-4.9018,-4.9018,-4.9018,-4.9018,-4.9018,-4.9018,-4.9018,-4.9018,-4.9018,-4.9018,-4.9018,-4.9018,-4.9103,-4.9103,-4.9357,-4.934,-4.956,-4.9576,-4.9898,-5.0304,-5.0456,-5.071,-5.1166,-5.1403,-5.1082,-5.0947,-5.12,-5.115,-5.0744,-5.0557,-5.0185,-4.379,-4.3628,-4.4156,-4.4058,-4.3644,-4.3922,-4.4229,-4.4297,-4.4437,-4.4945,-4.5667,-4.6136,-4.6561,-4.7115,-4.6858,-4.6842,-4.6842,-4.6404,-4.5992,-4.5604,-4.5186,-4.4695,-4.4317,-4.4137,-4.4599,-4.5494,-4.5925,-4.7043,-4.8168,-4.8867,-4.9372,-4.9916,-5.0331,-5.0886,-5.1503,-5.1951,-5.2119,-5.1998,-5.1866,-5.1613,-5.1237,-5.0625,-5.0236,-5.0135,-4.9543,-4.9154,-4.8968,-4.8815,-4.8359,-4.7124,-4.7022,-4.7158,-4.7124,-4.7073,-4.7107,-4.7175,-4.7259,-4.7225,-4.709,-4.7225,-4.7124,-4.7293,-4.775,-4.799,-4.8091,-4.8477,-4.8798,-4.8849,-4.9001,-4.8951,-4.8984,-4.9018,-4.9018,-4.9018,-4.9018,-4.9018,-4.9018,-4.9018,-4.9018,-4.9018,-4.9018,-4.9018,-4.9018,-4.9018,-4.9018,-4.9018,-4.9018,-4.9018,-4.9018,-4.9018,-4.9018,-4.9018,-4.9018,-4.9018,-4.9018,-4.9018,-4.9154,-4.9272,-4.9678,-4.9932,-5.0422,-5.0557,-5.0744,-5.0963,-5.12,-5.1454,-5.1775,-5.1758,-5.1606,-5.1725,-5.2063,-5.1758,-5.1352,-5.1336,-5.1099,-4.5608,-4.5579,-4.5486,-4.5226,-4.4938,-4.5126,-4.4991,-4.463,-4.5083,-4.5401,-4.5667,-4.6004,-4.6413,-4.6802,-4.6708,-4.6493,-4.6676,-4.6227,-4.5609,-4.5139,-4.5249,-4.5163,-4.5013,-4.495,-4.5247,-4.5854,-4.6661,-4.7574,-4.8533,-4.9194,-4.9717,-5.0175,-5.0733,-5.1296,-5.1741,-5.2145,-5.2451,-5.2551,-5.232,-5.2185,-5.2013,-5.1369,-5.0947,-5.0845,-5.0219,-4.9593,-4.912,-4.9018,-4.8849,-4.8612,-4.8494,-4.8426,-4.8376,-4.8392,-4.8376,-4.8376,-4.8426,-4.846,-4.8477,-4.8392,-4.8494,-4.8409,-4.8511,-4.8781,-4.8781,-4.8917,-4.9035,-4.9018,-4.9018,-4.9154,-4.9103,-4.9035,-4.9035,-4.9052,-4.9018,-4.9018,-4.9018,-4.9018,-4.9018,-4.9018,-4.9018,-4.9018,-4.9018,-4.9018,-4.9018,-4.9018,-4.9018,-4.9018,-4.9018,-4.9018,-4.9018,-4.9018,-4.9018,-4.9018,-4.9069,-4.9154,-4.9424,-4.9729,-5.0168,-5.0608,-5.1099,-5.1488,-5.164,-5.1809,-5.1995,-5.2249,-5.2469,-5.2739,-5.2723,-5.2841,-5.2824,-5.2503,-5.2232,-5.2164,-5.186,-4.6535,-4.6521,-4.6254,-4.6153,-4.6049,-4.5841,-4.5749,-4.5712,-4.5831,-4.6121,-4.6451,-4.6792,-4.7107,-4.7417,-4.7253,-4.718,-4.7018,-4.6591,-4.6117,-4.5812,-4.5784,-4.5749,-4.5791,-4.6045,-4.6331,-4.6559,-4.7079,-4.8014,-4.8926,-4.9541,-5.0073,-5.0656,-5.1129,-5.1577,-5.2017,-5.2395,-5.2747,-5.2957,-5.2893,-5.2791,-5.2723,-5.2131,-5.1488,-5.1236,-5.0828,-5.0388,-5.0135,-5.0084,-5.0067,-4.9949,-4.9695,-4.934,-4.9069,-4.9018,-4.9018,-4.9018,-4.9018,-4.9018,-4.9001,-4.9018,-4.8968,-4.9035,-4.9018,-4.9238,-4.9407,-4.9526,-4.9729,-4.9932,-5.0033,-4.9949,-4.9576,-4.9526,-4.9424,-4.9069,-4.9035,-4.9018,-4.9018,-4.9018,-4.9018,-4.9018,-4.9018,-4.9018,-4.9018,-4.9018,-4.9018,-4.9018,-4.9018,-4.9018,-4.9018,-4.9018,-4.9018,-4.9018,-4.9018,-4.9035,-4.9103,-4.9323,-4.9746,-5.0236,-5.0845,-5.1336,-5.1843,-5.2198,-5.2503,-5.2621,-5.2706,-5.2926,-5.3162,-5.3467,-5.3518,-5.3331,-5.3179,-5.3145,-5.3061,-5.2875,-5.2469,-4.6975,-4.6931,-4.6771,-4.6815,-4.6857,-4.6425,-4.6511,-4.683,-4.6631,-4.6753,-4.7317,-4.7601,-4.7662,-4.803,-4.7908,-4.7814,-4.7478,-4.7084,-4.6515,-4.6245,-4.6249,-4.6235,-4.6346,-4.6854,-4.7328,-4.7487,-4.7768,-4.8556,-4.9352,-4.9876,-5.0386,-5.1092,-5.152,-5.1835,-5.2288,-5.2712,-5.3007,-5.3162,-5.3281,-5.3365,-5.3348,-5.2773,-5.2181,-5.1589,-5.1437,-5.1234,-5.1048,-5.1031,-5.1116,-5.1134,-5.0608,-4.9999,-4.9492,-4.9052,-4.9103,-4.9154,-4.9272,-4.9424,-4.9593,-4.9509,-4.9492,-4.9323,-4.939,-4.9661,-5.0118,-5.0287,-5.0507,-5.0845,-5.098,-5.0794,-5.0338,-5.027,-4.9982,-4.961,-4.9407,-4.934,-4.934,-4.934,-4.9424,-4.9018,-4.9018,-4.9018,-4.9018,-4.9018,-4.9018,-4.9035,-4.9052,-4.9035,-4.9052,-4.9018,-4.9035,-4.9018,-4.9018,-4.9323,-4.9441,-4.9661,-5.005,-5.0845,-5.1505,-5.1978,-5.2486,-5.2773,-5.3027,-5.323,-5.3382,-5.3467,-5.3467,-5.3501,-5.3518,-5.3518,-5.3467,-5.3348,-5.3399,-5.3501,-5.3061,-4.7207,-4.7251,-4.7222,-4.7207,-4.7207,-4.7088,-4.7044,-4.7012,-4.7067,-4.7062,-4.7091,-4.7247,-4.7442,-4.7488,-4.7387,-4.717,-4.705,-4.6874,-4.6573,-4.6341,-4.647,-4.6645,-4.6947,-4.7456,-4.7916,-4.8217,-4.8502,-4.9029,-4.9574,-5.0136,-5.0711,-5.1242,-5.1818,-5.22,-5.2466,-5.2817,-5.3144,-5.323,-5.3399,-5.3518,-5.345,-5.3281,-5.2875,-5.2215,-5.2147,-5.1894,-5.1405,-5.1252,-5.1234,-5.1217,-5.1082,-5.0963,-5.0591,-4.9746,-4.9492,-4.9779,-4.9915,-5.0101,-5.049,-5.0727,-5.0811,-5.0862,-5.071,-5.076,-5.0963,-5.1031,-5.12,-5.1269,-5.1354,-5.1217,-5.1082,-5.1031,-5.0948,-5.0796,-5.0661,-5.0676,-5.071,-5.0608,-5.0219,-4.9526,-4.9255,-4.9187,-4.939,-4.9509,-4.9543,-4.9593,-4.9576,-4.9407,-4.9255,-4.9171,-4.9103,-4.9052,-4.9018,-4.9441,-4.9847,-5.0118,-5.049,-5.1488,-5.2147,-5.252,-5.2959,-5.3264,-5.3501,-5.3501,-5.3518,-5.3501,-5.3501,-5.3518,-5.3518,-5.3518,-5.3518,-5.3518,-5.3518,-5.3518,-5.3518,-4.7818,-4.7773,-4.7459,-4.7309,-4.7309,-4.7309,-4.7302,-4.7329,-4.741,-4.7603,-4.7752,-4.7877,-4.8078,-4.8157,-4.8013,-4.7716,-4.7375,-4.7323,-4.7117,-4.6906,-4.7048,-4.7171,-4.7326,-4.7816,-4.8088,-4.8412,-4.8883,-4.9372,-4.9812,-5.0402,-5.0978,-5.1503,-5.2073,-5.2378,-5.2642,-5.3007,-5.323,-5.3348,-5.3433,-5.3518,-5.3518,-5.3518,-5.323,-5.3044,-5.2892,-5.2723,-5.252,-5.2401,-5.2418,-5.235,-5.1995,-5.1826,-5.1471,-5.093,-5.0321,-5.0642,-5.0693,-5.0811,-5.115,-5.1234,-5.1151,-5.1168,-5.1219,-5.1437,-5.1657,-5.1792,-5.1944,-5.2233,-5.2367,-5.2215,-5.186,-5.1792,-5.1589,-5.1269,-5.1268,-5.1285,-5.1268,-5.1268,-5.0828,-5.0287,-5.0355,-5.0371,-5.0287,-5.0321,-5.0219,-5.0152,-5.0101,-4.9881,-4.9593,-4.956,-4.9543,-4.939,-4.9441,-4.9864,-5.0405,-5.0811,-5.1116,-5.2029,-5.2655,-5.3027,-5.323,-5.345,-5.3501,-5.3518,-5.3518,-5.3518,-5.3518,-5.3518,-5.3518,-5.3518,-5.3518,-5.3518,-5.3518,-5.3518,-5.3518,-4.8401,-4.8237,-4.7713,-4.7429,-4.7324,-4.7309,-4.7424,-4.7596,-4.7609,-4.7904,-4.8412,-4.8449,-4.8584,-4.8836,-4.8615,-4.824,-4.7937,-4.7861,-4.7646,-4.746,-4.742,-4.7523,-4.7624,-4.7837,-4.8076,-4.8301,-4.8949,-4.9501,-4.9955,-5.0596,-5.1221,-5.1741,-5.2181,-5.2572,-5.2868,-5.3161,-5.3348,-5.3433,-5.3518,-5.3518,-5.3518,-5.3518,-5.3518,-5.3518,-5.3518,-5.345,-5.3315,-5.3298,-5.3315,-5.3179,-5.2892,-5.2536,-5.2452,-5.1995,-5.1691,-5.1624,-5.1555,-5.1489,-5.1725,-5.1792,-5.1928,-5.1944,-5.1709,-5.2029,-5.2334,-5.2604,-5.279,-5.3365,-5.3416,-5.3179,-5.2655,-5.2553,-5.23,-5.1978,-5.1809,-5.1742,-5.186,-5.1928,-5.1995,-5.1708,-5.1657,-5.1386,-5.1099,-5.0862,-5.071,-5.071,-5.0659,-5.0608,-5.0355,-5.0338,-5.0253,-4.9999,-5.0033,-5.0405,-5.0947,-5.1589,-5.1978,-5.2587,-5.301,-5.3315,-5.3416,-5.3501,-5.3518,-5.3518,-5.3518,-5.3518,-5.3518,-5.3518,-5.3518,-5.3518,-5.3518,-5.3518,-5.3518,-5.3518,-5.3518,-4.885,-4.8282,-4.8192,-4.7848,-4.7354,-4.7309,-4.7424,-4.7596,-4.7596,-4.7767,-4.8091,-4.8091,-4.8133,-4.816,-4.816,-4.7922,-4.7724,-4.7639,-4.7553,-4.7381,-4.7381,-4.7381,-4.7424,-4.781,-4.8083,-4.8324,-4.9001,-4.9477,-5.0121,-5.0823,-5.1301,-5.1851,-5.2412,-5.2868,-5.2903,-5.3246,-5.345,-5.3501,-5.3518,-5.3518,-5.3518,-5.3518,-5.3518,-5.3518,-5.3518,-5.3518,-5.3518,-5.3518,-5.3518,-5.3484,-5.3416,-5.3348,-5.3348,-5.3331,-5.3247,-5.3027,-5.2723,-5.2486,-5.2942,-5.2976,-5.2959,-5.2926,-5.3027,-5.3247,-5.3213,-5.323,-5.3298,-5.3433,-5.3518,-5.3467,-5.3281,-5.3315,-5.3264,-5.3129,-5.2892,-5.2976,-5.3044,-5.2604,-5.2672,-5.2756,-5.2604,-5.2063,-5.1623,-5.1386,-5.12,-5.1217,-5.1234,-5.12,-5.1065,-5.0963,-5.0862,-5.0591,-5.0744,-5.1133,-5.1471,-5.2131,-5.2587,-5.3112,-5.3298,-5.3518,-5.3518,-5.3518,-5.3518,-5.3518,-5.3518,-5.3518,-5.3518,-5.3518,-5.3518,-5.3518,-5.3518,-5.3518,-5.3518,-5.3518,-5.3518,-4.9434,-4.882,-4.8042,-4.7578,-4.7324,-4.7309,-4.7337,-4.7424,-4.7424,-4.7553,-4.7767,-4.7767,-4.7752,-4.7794,-4.7752,-4.7624,-4.7467,-4.7424,-4.7396,-4.7324,-4.7324,-4.7324,-4.7424,-4.7797,-4.8128,-4.8736,-4.9444,-5.0417,-5.0842,-5.1048,-5.1322,-5.1868,-5.2499,-5.2868,-5.2938,-5.328,-5.3467,-5.3518,-5.3518,-5.3518,-5.3518,-5.3518,-5.3518,-5.3518,-5.3518,-5.3518,-5.3518,-5.3518,-5.3518,-5.3518,-5.3518,-5.3518,-5.3501,-5.3501,-5.3484,-5.3467,-5.3196,-5.3162,-5.3416,-5.3501,-5.3518,-5.3518,-5.3518,-5.3467,-5.3501,-5.3518,-5.3518,-5.3518,-5.3518,-5.3518,-5.3518,-5.3518,-5.3518,-5.3518,-5.3518,-5.3518,-5.3518,-5.3518,-5.3365,-5.3467,-5.3467,-5.2841,-5.2384,-5.235,-5.2283,-5.2317,-5.2283,-5.2215,-5.1826,-5.1352,-5.1234,-5.1099,-5.1437,-5.1894,-5.2198,-5.2638,-5.2959,-5.3348,-5.3348,-5.3518,-5.3518,-5.3518,-5.3518,-5.3518,-5.3518,-5.3518,-5.3518,-5.3518,-5.3518,-5.3518,-5.3518,-5.3518,-5.3518,-5.3518,-5.3518,-4.9613,-4.8985,-4.7952,-4.7459,-4.7309,-4.7309,-4.7309,-4.7309,-4.7309,-4.7381,-4.751,-4.7553,-4.751,-4.751,-4.751,-4.7467,-4.7309,-4.7309,-4.7309,-4.7339,-4.7474,-4.7593,-4.7844,-4.8205,-4.8842,-4.9252,-5.0136,-5.098,-5.1555,-5.1866,-5.1923,-5.2093,-5.29,-5.3018,-5.3057,-5.328,-5.3518,-5.3518,-5.3518,-5.3518,-5.3518,-5.3518,-5.3518,-5.3518,-5.3518,-5.3518,-5.3518,-5.3518,-5.3518,-5.3518,-5.3518,-5.3518,-5.3518,-5.3518,-5.3518,-5.3501,-5.3382,-5.3416,-5.3484,-5.3518,-5.3518,-5.3518,-5.3518,-5.3518,-5.3518,-5.3518,-5.3518,-5.3518,-5.3518,-5.3518,-5.3518,-5.3518,-5.3518,-5.3518,-5.3518,-5.3518,-5.3518,-5.3518,-5.3518,-5.3518,-5.3518,-5.3518,-5.323,-5.3348,-5.3399,-5.3433,-5.3365,-5.3179,-5.2672,-5.2012,-5.2012,-5.1995,-5.2232,-5.2621,-5.279,-5.3112,-5.3433,-5.3518,-5.3518,-5.3518,-5.3518,-5.3518,-5.3518,-5.3518,-5.3501,-5.3518,-5.3518,-5.3518,-5.3518,-5.3518,-5.3518,-5.3518,-5.3518,-5.3518,-5.3518,-4.9,-4.8341,-4.8237,-4.7833,-4.7309,-4.7309,-4.7309,-4.7309,-4.7309,-4.7309,-4.7352,-4.7352,-4.7352,-4.7352,-4.7337,-4.7352,-4.7309,-4.7309,-4.7399,-4.7593,-4.7878,-4.8162,-4.8518,-4.9098,-4.9799,-5.0068,-5.0804,-5.1529,-5.2147,-5.2958,-5.2909,-5.288,-5.3562,-5.3417,-5.3409,-5.3685,-5.3839,-5.3856,-5.3839,-5.3771,-5.3721,-5.367,-5.3602,-5.3568,-5.3534,-5.3518,-5.3518,-5.3518,-5.3518,-5.3518,-5.3518,-5.3518,-5.3518,-5.3518,-5.3518,-5.3518,-5.3518,-5.3518,-5.3518,-5.3518,-5.3518,-5.3518,-5.3518,-5.3518,-5.3518,-5.3518,-5.3518,-5.3518,-5.3518,-5.3518,-5.3518,-5.3518,-5.3518,-5.3518,-5.3518,-5.3518,-5.3518,-5.3518,-5.3518,-5.3518,-5.3518,-5.3518,-5.3518,-5.3518,-5.3518,-5.3518,-5.3518,-5.3331,-5.3365,-5.2926,-5.3061,-5.3129,-5.3179,-5.3331,-5.3348,-5.3518,-5.3518,-5.3518,-5.3518,-5.3518,-5.3518,-5.3518,-5.3501,-5.3501,-5.3501,-5.3501,-5.3551,-5.3601,-5.3601,-5.3551,-5.3518,-5.3518,-5.3518,-5.3518,-5.3518,-4.8521,-4.8252,-4.7863,-4.7534,-4.7309,-4.7309,-4.7309,-4.7309,-4.7309,-4.7309,-4.7309,-4.7309,-4.7309,-4.7309,-4.7309,-4.7309,-4.7369,-4.7773,-4.7863,-4.8117,-4.855,-4.888,-4.9209,-4.9642,-5.018,-5.0737,-5.1531,-5.2484,-5.3355,-5.3928,-5.421,-5.4323,-5.4452,-5.4431,-5.4397,-5.4494,-5.47,-5.4803,-5.4803,-5.4837,-5.4769,-5.4363,-5.4177,-5.416,-5.3619,-5.3534,-5.3518,-5.3518,-5.3518,-5.3518,-5.3518,-5.3518,-5.3518,-5.3518,-5.3518,-5.3518,-5.3518,-5.3518,-5.3518,-5.3518,-5.3518,-5.3518,-5.3518,-5.3518,-5.3518,-5.3518,-5.3518,-5.3518,-5.3518,-5.3518,-5.3518,-5.3518,-5.3518,-5.3518,-5.3518,-5.3518,-5.3518,-5.3518,-5.3518,-5.3518,-5.3518,-5.3518,-5.3518,-5.3518,-5.3518,-5.3518,-5.3518,-5.3518,-5.3518,-5.3518,-5.3518,-5.3518,-5.3518,-5.3518,-5.3518,-5.3518,-5.3518,-5.3518,-5.3518,-5.3501,-5.3501,-5.3501,-5.3501,-5.3534,-5.3568,-5.3618,-5.3685,-5.3768,-5.3735,-5.3618,-5.3551,-5.3518,-5.3518,-5.3534,-5.3534,-4.8162,-4.7952,-4.7504,-4.7309,-4.7309,-4.7309,-4.7309,-4.7309,-4.7309,-4.7309,-4.7309,-4.7309,-4.7309,-4.7339,-4.7563,-4.7623,-4.7833,-4.8237,-4.8506,-4.882,-4.9179,-4.9494,-4.9809,-5.0261,-5.097,-5.1469,-5.2242,-5.3216,-5.3945,-5.4733,-5.5053,-5.5162,-5.527,-5.5281,-5.5065,-5.5488,-5.5681,-5.5681,-5.5681,-5.5681,-5.5564,-5.5209,-5.4938,-5.4905,-5.4499,-5.4143,-5.4025,-5.3923,-5.3737,-5.3602,-5.3518,-5.3518,-5.3518,-5.3518,-5.3518,-5.3518,-5.3534,-5.3534,-5.3518,-5.3518,-5.3518,-5.3518,-5.3518,-5.3518,-5.3518,-5.3518,-5.3518,-5.3518,-5.3518,-5.3518,-5.3518,-5.3518,-5.3518,-5.3518,-5.3518,-5.3518,-5.3518,-5.3518,-5.3518,-5.3518,-5.3518,-5.3518,-5.3518,-5.3518,-5.3518,-5.3518,-5.3518,-5.3518,-5.3518,-5.3518,-5.3518,-5.3518,-5.3518,-5.3518,-5.3518,-5.3518,-5.3518,-5.3518,-5.3501,-5.3517,-5.3551,-5.3551,-5.3618,-5.3701,-5.3784,-5.3785,-5.3818,-5.3917,-5.3818,-5.3685,-5.3685,-5.3651,-5.3685,-5.3701,-5.3618,-4.7908,-4.7354,-4.7324,-4.7309,-4.7309,-4.7309,-4.7309,-4.7309,-4.7309,-4.7309,-4.7309,-4.7309,-4.7369,-4.7489,-4.7938,-4.8147,-4.8416,-4.8925,-4.9239,-4.9404,-4.9898,-5.0121,-5.0529,-5.1136,-5.1607,-5.2154,-5.2783,-5.3498,-5.4103,-5.4739,-5.5304,-5.5915,-5.6057,-5.5987,-5.5264,-5.5574,-5.5715,-5.5767,-5.5869,-5.5953,-5.5953,-5.5835,-5.57,-5.5632,-5.5412,-5.5006,-5.4702,-5.4583,-5.438,-5.4042,-5.3771,-5.3771,-5.3856,-5.3721,-5.3704,-5.3771,-5.3737,-5.367,-5.3568,-5.3534,-5.3518,-5.3518,-5.3518,-5.3518,-5.3518,-5.3518,-5.3518,-5.3518,-5.3518,-5.3518,-5.3518,-5.3518,-5.3518,-5.3518,-5.3518,-5.3518,-5.3518,-5.3518,-5.3518,-5.3518,-5.3518,-5.3518,-5.3518,-5.3518,-5.3518,-5.3518,-5.3518,-5.3518,-5.3518,-5.3518,-5.3518,-5.3518,-5.3518,-5.3518,-5.3518,-5.3518,-5.3518,-5.3518,-5.3534,-5.3584,-5.3634,-5.3701,-5.38,-5.3915,-5.4014,-5.4081,-5.4049,-5.4049,-5.4064,-5.4145,-5.3932,-5.3882,-5.3882,-5.3849,-5.375,-4.7519,-4.7309,-4.7309,-4.7309,-4.7309,-4.7309,-4.7309,-4.7309,-4.7309,-4.7309,-4.7309,-4.7309,-4.7608,-4.7938,-4.8222,-4.8581,-4.903,-4.9583,-4.9912,-5.0002,-5.0495,-5.081,-5.1129,-5.1529,-5.2002,-5.2261,-5.2906,-5.3702,-5.4103,-5.4814,-5.5425,-5.6006,-5.6658,-5.6851,-5.6761,-5.6937,-5.7171,-5.7171,-5.7188,-5.7171,-5.707,-5.6697,-5.6444,-5.641,-5.6055,-5.5683,-5.5378,-5.5344,-5.5124,-5.4769,-5.4499,-5.4414,-5.4617,-5.4566,-5.4448,-5.4752,-5.4921,-5.4702,-5.4262,-5.389,-5.3518,-5.3534,-5.3518,-5.3518,-5.3518,-5.3518,-5.3518,-5.3518,-5.3518,-5.3518,-5.3518,-5.3518,-5.3518,-5.3518,-5.3518,-5.3518,-5.3518,-5.3518,-5.3518,-5.3518,-5.3518,-5.3518,-5.3518,-5.3518,-5.3518,-5.3518,-5.3518,-5.3518,-5.3518,-5.3518,-5.3518,-5.3518,-5.3518,-5.3518,-5.3518,-5.3518,-5.3501,-5.3534,-5.3584,-5.3668,-5.375,-5.3849,-5.3948,-5.4078,-5.4209,-5.434,-5.4404,-5.4468,-5.4623,-5.4637,-5.4399,-5.4175,-5.4078,-5.398,-5.3849,-4.7309,-4.7309,-4.7309,-4.7309,-4.7309,-4.7309,-4.7309,-4.7309,-4.7324,-4.7414,-4.7623,-4.7668,-4.8012,-4.8536,-4.8895,-4.909,-4.9673,-5.0272,-5.0524,-5.0584,-5.096,-5.1124,-5.1324,-5.1755,-5.2153,-5.2505,-5.3293,-5.411,-5.4956,-5.5352,-5.5924,-5.6512,-5.7005,-5.7143,-5.7322,-5.7527,-5.7763,-5.7712,-5.7679,-5.7712,-5.7628,-5.7442,-5.7171,-5.707,-5.6782,-5.6393,-5.619,-5.6072,-5.597,-5.5683,-5.5412,-5.5226,-5.5446,-5.5412,-5.5243,-5.5581,-5.5649,-5.5412,-5.4938,-5.4685,-5.4363,-5.3974,-5.3704,-5.3518,-5.3518,-5.3518,-5.3518,-5.3518,-5.3568,-5.3568,-5.3602,-5.3602,-5.3568,-5.3568,-5.3518,-5.3518,-5.3518,-5.3518,-5.3518,-5.3518,-5.3518,-5.3518,-5.3518,-5.3518,-5.3518,-5.3518,-5.3518,-5.3518,-5.3518,-5.3518,-5.3518,-5.3518,-5.3518,-5.3518,-5.3518,-5.3518,-5.3534,-5.3551,-5.3634,-5.375,-5.3948,-5.411,-5.4175,-5.4289,-5.4497,-5.4703,-5.4783,-5.489,-5.4966,-5.4935,-5.479,-5.454,-5.4321,-5.4192,-5.4078,-4.7309,-4.7309,-4.7309,-4.7309,-4.7309,-4.7309,-4.7309,-4.7324,-4.7354,-4.7713,-4.8237,-4.8267,-4.8686,-4.9329,-4.9898,-5.0121,-5.027,-5.0885,-5.1035,-5.1124,-5.1184,-5.1259,-5.1521,-5.1923,-5.2579,-5.3223,-5.4004,-5.4972,-5.6091,-5.6552,-5.6925,-5.7208,-5.7576,-5.7749,-5.7838,-5.81,-5.8217,-5.8203,-5.8135,-5.8152,-5.8101,-5.7881,-5.7695,-5.7611,-5.7509,-5.7222,-5.7002,-5.6833,-5.6511,-5.6173,-5.5818,-5.5818,-5.5783,-5.5767,-5.5767,-5.5835,-5.5919,-5.5784,-5.5716,-5.5564,-5.5192,-5.4634,-5.411,-5.3754,-5.3636,-5.3771,-5.389,-5.3957,-5.4059,-5.389,-5.3771,-5.3737,-5.3687,-5.3636,-5.3551,-5.3534,-5.3518,-5.3518,-5.3518,-5.3518,-5.3518,-5.3518,-5.3518,-5.3518,-5.3518,-5.3518,-5.3518,-5.3518,-5.3518,-5.3518,-5.3518,-5.3518,-5.3518,-5.3518,-5.3518,-5.3518,-5.3551,-5.3601,-5.3734,-5.3849,-5.4078,-5.4335,-5.4448,-5.4575,-5.4873,-5.5044,-5.5166,-5.5236,-5.5262,-5.5197,-5.5152,-5.4913,-5.4683,-5.4512,-5.4385,-4.7309,-4.7309,-4.7309,-4.7309,-4.7309,-4.7309,-4.7309,-4.7354,-4.7773,-4.8162,-4.8312,-4.879,-4.9344,-4.9972,-5.0106,-5.0465,-5.084,-5.1094,-5.1169,-5.1244,-5.1304,-5.1685,-5.2083,-5.256,-5.3312,-5.4098,-5.4914,-5.5646,-5.648,-5.7297,-5.7941,-5.8197,-5.8447,-5.8669,-5.8883,-5.9212,-5.9059,-5.8846,-5.8761,-5.8693,-5.8541,-5.8304,-5.8135,-5.8,-5.7983,-5.7746,-5.7577,-5.7492,-5.7273,-5.7222,-5.6714,-5.6664,-5.7239,-5.6833,-5.6596,-5.7154,-5.69,-5.6494,-5.641,-5.6021,-5.5649,-5.548,-5.5124,-5.4769,-5.4499,-5.4363,-5.4515,-5.4617,-5.4735,-5.4685,-5.4566,-5.4465,-5.4346,-5.4245,-5.4076,-5.3856,-5.3822,-5.3704,-5.3687,-5.3518,-5.3518,-5.3518,-5.3518,-5.3518,-5.3518,-5.3518,-5.3518,-5.3518,-5.3518,-5.3518,-5.3518,-5.3518,-5.3518,-5.3518,-5.3518,-5.3518,-5.3584,-5.3651,-5.3783,-5.3948,-5.4207,-5.4448,-5.4637,-5.489,-5.5109,-5.5334,-5.5519,-5.5594,-5.5617,-5.5627,-5.5555,-5.5306,-5.5053,-5.4855,-5.4655,-4.7381,-4.7309,-4.7309,-4.7309,-4.7309,-4.7309,-4.7429,-4.7728,-4.8117,-4.8506,-4.9075,-4.9479,-5.0017,-5.0556,-5.0614,-5.084,-5.1169,-5.1184,-5.1229,-5.1274,-5.1513,-5.2002,-5.2507,-5.326,-5.4062,-5.4961,-5.5813,-5.6581,-5.7338,-5.8076,-5.8782,-5.9135,-5.9475,-5.9527,-5.971,-6.0059,-6.0296,-5.9979,-5.9691,-5.9522,-5.9252,-5.8964,-5.8727,-5.8372,-5.8338,-5.8203,-5.7932,-5.7915,-5.7898,-5.7881,-5.734,-5.7408,-5.7814,-5.7442,-5.7306,-5.7712,-5.7509,-5.7256,-5.7171,-5.6917,-5.6511,-5.6224,-5.6139,-5.5902,-5.5547,-5.531,-5.5361,-5.5429,-5.5564,-5.5615,-5.548,-5.5344,-5.5192,-5.504,-5.4668,-5.4313,-5.4143,-5.3991,-5.3805,-5.3568,-5.3518,-5.3518,-5.3518,-5.3518,-5.3518,-5.3518,-5.3518,-5.3518,-5.3518,-5.3518,-5.3518,-5.3518,-5.3518,-5.3518,-5.3518,-5.3501,-5.3618,-5.3717,-5.3882,-5.4045,-5.4303,-5.4589,-5.4855,-5.5109,-5.5361,-5.5548,-5.5713,-5.5897,-5.5986,-5.5943,-5.5861,-5.5601,-5.5324,-5.5053,-5.4855,-4.7495,-4.7352,-4.7309,-4.7309,-4.7309,-4.7384,-4.7773,-4.8341,-4.8491,-4.9105,-4.9986,-5.024,-5.0569,-5.1005,-5.1079,-5.1094,-5.1289,-5.1349,-5.1483,-5.1364,-5.2117,-5.265,-5.3267,-5.3778,-5.4908,-5.5843,-5.6699,-5.753,-5.854,-5.9253,-5.9754,-6.0067,-6.0044,-6.0119,-6.0432,-6.1013,-6.1264,-6.1129,-6.0723,-6.0419,-6.0199,-6.003,-5.981,-5.9235,-5.9015,-5.8829,-5.8237,-5.8,-5.7949,-5.7915,-5.7865,-5.7831,-5.7831,-5.7831,-5.7848,-5.7848,-5.7763,-5.7729,-5.7695,-5.7543,-5.734,-5.707,-5.6884,-5.6816,-5.6545,-5.6072,-5.6021,-5.6292,-5.6461,-5.6478,-5.6376,-5.6072,-5.5835,-5.5666,-5.5378,-5.504,-5.4786,-5.4482,-5.4025,-5.3771,-5.3518,-5.3518,-5.3518,-5.3518,-5.3518,-5.3518,-5.3518,-5.3518,-5.3568,-5.3568,-5.3585,-5.3568,-5.3518,-5.3518,-5.3518,-5.3534,-5.3634,-5.3783,-5.3915,-5.4078,-5.4271,-5.4652,-5.5083,-5.5274,-5.5417,-5.5648,-5.5839,-5.6017,-5.6093,-5.6108,-5.5993,-5.5833,-5.5572,-5.5234,-5.5022,-4.7581,-4.751,-4.7352,-4.7309,-4.7384,-4.7833,-4.8416,-4.912,-4.9583,-4.9867,-5.024,-5.0735,-5.1035,-5.1184,-5.1289,-5.1304,-5.1349,-5.1783,-5.1932,-5.2282,-5.281,-5.3546,-5.4307,-5.4918,-5.5962,-5.6885,-5.7745,-5.8475,-5.9522,-6.0233,-6.0746,-6.1043,-6.104,-6.12,-6.1296,-6.1913,-6.1992,-6.1958,-6.1772,-6.1332,-6.1028,-6.0419,-5.9945,-5.9844,-5.9776,-5.9455,-5.8998,-5.8744,-5.8389,-5.8051,-5.7915,-5.7865,-5.7881,-5.7915,-5.7898,-5.7881,-5.7966,-5.7966,-5.7881,-5.7881,-5.7712,-5.7679,-5.756,-5.7611,-5.7391,-5.6867,-5.6731,-5.7087,-5.7273,-5.7239,-5.7137,-5.6782,-5.6494,-5.6308,-5.6139,-5.5818,-5.548,-5.4905,-5.4346,-5.4008,-5.3687,-5.3619,-5.3653,-5.3619,-5.3518,-5.3518,-5.3518,-5.3551,-5.3687,-5.3754,-5.3771,-5.3737,-5.3551,-5.3518,-5.3518,-5.3534,-5.3618,-5.3734,-5.3849,-5.4045,-5.4271,-5.4652,-5.504,-5.5269,-5.5436,-5.5672,-5.5846,-5.6046,-5.6141,-5.6141,-5.5982,-5.5764,-5.5531,-5.5221,-5.5101,-4.788,-4.7596,-4.7396,-4.7309,-4.7414,-4.7997,-4.8656,-4.9359,-4.9957,-5.036,-5.0644,-5.105,-5.1229,-5.1334,-5.1498,-5.1648,-5.1768,-5.2336,-5.2561,-5.2942,-5.3585,-5.428,-5.5077,-5.5879,-5.6665,-5.7605,-5.8564,-5.9415,-6.0361,-6.0785,-6.1161,-6.1628,-6.1934,-6.2093,-6.215,-6.2341,-6.2398,-6.2381,-6.2398,-6.2144,-6.1755,-6.1315,-6.0858,-6.0808,-6.052,-6.0182,-5.9776,-5.9505,-5.9268,-5.8998,-5.8964,-5.8964,-5.8998,-5.9015,-5.8744,-5.8524,-5.8389,-5.8254,-5.8051,-5.7966,-5.7983,-5.8017,-5.7932,-5.7848,-5.7797,-5.7323,-5.7306,-5.7611,-5.7628,-5.7611,-5.7594,-5.734,-5.7289,-5.7171,-5.7019,-5.6799,-5.6241,-5.5598,-5.5209,-5.4955,-5.4752,-5.4752,-5.4769,-5.4786,-5.4718,-5.4702,-5.4532,-5.4397,-5.4397,-5.4177,-5.4143,-5.4042,-5.3923,-5.3636,-5.3518,-5.3534,-5.3551,-5.3701,-5.3901,-5.408,-5.4372,-5.4655,-5.4965,-5.5179,-5.5389,-5.5596,-5.5771,-5.5932,-5.6028,-5.6011,-5.585,-5.5648,-5.5431,-5.5161,-5.4948,-4.8202,-4.7624,-4.7381,-4.7369,-4.7534,-4.8147,-4.885,-4.9449,-5.0092,-5.0644,-5.1154,-5.1304,-5.1334,-5.1558,-5.1887,-5.2142,-5.2516,-5.3054,-5.3264,-5.365,-5.4421,-5.5065,-5.5697,-5.6407,-5.7386,-5.8303,-5.9181,-6.0076,-6.0935,-6.121,-6.1465,-6.1934,-6.2093,-6.2172,-6.2341,-6.2398,-6.2398,-6.2398,-6.2398,-6.2398,-6.2381,-6.2398,-6.1907,-6.1586,-6.1383,-6.1028,-6.052,-6.025,-6.0233,-5.9996,-5.9844,-5.981,-5.981,-5.9742,-5.9539,-5.9268,-5.9133,-5.8863,-5.8541,-5.8457,-5.8389,-5.8287,-5.8152,-5.8118,-5.8135,-5.8068,-5.8051,-5.7915,-5.7932,-5.7881,-5.7881,-5.7848,-5.7831,-5.7814,-5.7695,-5.7492,-5.6816,-5.6224,-5.6004,-5.5732,-5.5666,-5.5649,-5.5666,-5.5681,-5.5698,-5.575,-5.575,-5.5681,-5.5564,-5.5175,-5.4938,-5.4752,-5.4566,-5.4228,-5.3687,-5.3619,-5.367,-5.3957,-5.4193,-5.4319,-5.4493,-5.492,-5.5137,-5.5053,-5.5264,-5.5436,-5.5566,-5.5637,-5.5735,-5.5804,-5.566,-5.5443,-5.5221,-5.4965,-5.47,-4.8202,-4.7581,-4.7381,-4.7608,-4.8132,-4.885,-4.9449,-5.0046,-5.072,-5.1124,-5.1319,-5.1798,-5.2022,-5.2022,-5.2097,-5.2441,-5.3114,-5.3698,-5.4149,-5.4477,-5.5224,-5.581,-5.6467,-5.7135,-5.8287,-5.9091,-5.9772,-6.0335,-6.1169,-6.1482,-6.1692,-6.2014,-6.2246,-6.2341,-6.2358,-6.2398,-6.2398,-6.2398,-6.2398,-6.2398,-6.2398,-6.2381,-6.2347,-6.2195,-6.2161,-6.1704,-6.1298,-6.1095,-6.0672,-6.0317,-6.0216,-6.0283,-6.0334,-6.0385,-6.0182,-6.003,-5.9911,-5.9708,-5.9438,-5.9319,-5.9268,-5.9336,-5.9268,-5.915,-5.9049,-5.8812,-5.8626,-5.8186,-5.8118,-5.7966,-5.7932,-5.7881,-5.7865,-5.7865,-5.778,-5.7459,-5.6968,-5.6714,-5.6528,-5.6224,-5.597,-5.5953,-5.597,-5.5987,-5.6004,-5.6021,-5.6038,-5.6038,-5.6105,-5.5902,-5.575,-5.5513,-5.5277,-5.4465,-5.3805,-5.3873,-5.3974,-5.4245,-5.4568,-5.4836,-5.5068,-5.5329,-5.5415,-5.5445,-5.5235,-5.5218,-5.5334,-5.5524,-5.5366,-5.5425,-5.5348,-5.5217,-5.5009,-5.4762,-5.4463]}]]